[[{"header":{"parameterUnit":"m.s-1","parameterCategory":1,"la1":30.6,"la2":28.766,"lo1":-90.7593,"lo2":-88.6598,"dy":0.0162,"dx":0.0183,"nx":116,"ny":114,"refTime":"2024-03-11T00:00:00:Z","depth":0,"parameterNumber":2,"parameterNumberName":"U-component_of_WINDS"},"data":[0.0,0.0,0.0,0.0,0.0,0.0,0.0,0.0,0.0,0.0,0.0,0.0,0.0,0.0,0.0,0.0,0.0,0.0,0.0,0.0,0.0,0.0,0.0,0.0,0.0,0.0,0.0,0.0,0.0,0.0,0.0,0.0,0.0,0.0,0.0,0.0,0.0,0.0,0.0,0.0,0.0,0.0,0.0,0.0,0.0,0.0,0.0,0.0,0.0,0.0,0.0,0.0,0.0,0.0,0.0,0.0,0.0,0.0,0.0,0.0,0.0,0.0,0.0,0.0,0.0,0.0,0.0,0.0,0.0,0.0,0.0,0.0,0.0,0.0,0.0,0.0,0.0,0.0,0.0,0.0,0.0,0.0,0.0,0.0,0.0,0.0,0.0,0.0,0.0,0.0,0.0,0.0,0.0,0.0,0.0,0.0,0.0,0.0,0.0,0.0,0.0,0.0,0.0,0.0,0.0,0.0,0.0,0.0,0.0,0.0,0.0,0.0,0.0,0.0,0.0,0.0,0.0,0.0,0.0,0.0,0.0,0.0,0.0,0.0,0.0,0.0,0.0,0.0,0.0,0.0,0.0,0.0,0.0,0.0,0.0,0.0,0.0,0.0,0.0,0.0,0.0,0.0,0.0,0.0,0.0,0.0,0.0,0.0,0.0,0.0,0.0,0.0,0.0,0.0,0.0,0.0,0.0,0.0,0.0,0.0,0.0,0.0,0.0,0.0,0.0,0.0,0.0,0.0,0.0,0.0,0.0,0.0,0.0,0.0,0.0,0.0,0.0,0.0,0.0,0.0,0.0,0.0,0.0,0.0,0.0,0.0,0.0,0.0,0.0,0.0,0.0,0.0,0.0,0.0,0.0,0.0,0.0,0.0,0.0,0.0,0.0,0.0,0.0,0.0,0.0,0.0,0.0,0.0,0.0,0.0,0.0,0.0,0.0,0.0,0.0,0.0,0.0,0.0,0.0,0.0,0.0,0.0,0.0,0.0,0.0,0.0,0.0,0.0,0.0,0.0,0.0,0.0,0.0,0.0,0.0,0.0,0.0,0.0,0.0,0.0,0.0,0.0,0.0,0.0,0.0,0.0,0.0,0.0,0.0,0.0,0.0,0.0,0.0,0.0,0.0,0.0,0.0,0.0,0.0,0.0,0.0,0.0,0.0,0.0,0.0,0.0,0.0,0.0,0.0,0.0,0.0,0.0,0.0,0.0,0.0,0.0,0.0,0.0,0.0,0.0,0.0,0.0,0.0,0.0,0.0,0.0,0.0,0.0,0.0,0.0,0.0,0.0,0.0,0.0,0.0,0.0,0.0,0.0,0.0,0.0,0.0,0.0,0.0,0.0,0.0,0.0,0.0,0.0,0.0,0.0,0.0,0.0,0.0,0.0,0.0,0.0,0.0,0.0,0.0,0.0,0.0,0.0,0.0,0.0,0.0,0.0,0.0,0.0,0.0,0.0,0.0,0.0,0.0,0.0,0.0,0.0,0.0,0.0,0.0,0.0,0.0,0.0,0.0,0.0,0.0,0.0,0.0,0.0,0.0,0.0,0.0,0.0,0.0,0.0,0.0,0.0,0.0,0.0,0.0,0.0,0.0,0.0,0.0,0.0,0.0,0.0,0.0,0.0,0.0,0.0,0.0,0.0,0.0,0.0,0.0,0.0,0.0,0.0,0.0,0.0,0.0,0.0,0.0,0.0,0.0,0.0,0.0,0.0,0.0,0.0,0.0,0.0,0.0,0.0,0.0,0.0,0.0,0.0,0.0,0.0,0.0,0.0,0.0,0.0,0.0,0.0,0.0,0.0,0.0,0.0,0.0,0.0,0.0,0.0,0.0,0.0,0.0,0.0,0.0,0.0,0.0,0.0,0.0,0.0,0.0,0.0,0.0,0.0,0.0,0.0,0.0,0.0,0.0,0.0,0.0,0.0,0.0,0.0,0.0,0.0,0.0,0.0,0.0,0.0,0.0,0.0,0.0,0.0,0.0,0.0,0.0,0.0,0.0,0.0,0.0,0.0,0.0,0.0,0.0,0.0,0.0,0.0,0.0,0.0,0.0,0.0,0.0,0.0,0.0,0.0,0.0,0.0,0.0,0.0,0.0,0.0,0.0,0.0,0.0,0.0,0.0,0.0,0.0,0.0,0.0,0.0,0.0,0.0,0.0,0.0,0.0,0.0,0.0,0.0,0.0,0.0,0.0,0.0,0.0,0.0,0.0,0.0,0.0,0.0,0.0,0.0,0.0,0.0,0.0,0.0,0.0,0.0,0.0,0.0,0.0,0.0,0.0,0.0,0.0,0.0,0.0,0.0,0.0,0.0,0.0,0.0,0.0,0.0,0.0,0.0,0.0,0.0,0.0,0.0,0.0,0.0,0.0,0.0,0.0,0.0,0.0,0.0,0.0,0.0,0.0,0.0,0.0,0.0,0.0,0.0,0.0,0.0,0.0,0.0,0.0,0.0,0.0,0.0,0.0,0.0,0.0,0.0,0.0,0.0,0.0,0.0,0.0,0.0,0.0,0.0,0.0,0.0,0.0,0.0,0.0,0.0,0.0,0.0,0.0,0.0,0.0,0.0,0.0,0.0,0.0,0.0,0.0,0.0,0.0,0.0,0.0,0.0,0.0,0.0,0.0,0.0,0.0,0.0,0.0,0.0,0.0,0.0,0.0,0.0,0.0,0.0,0.0,0.0,0.0,0.0,0.0,0.0,0.0,0.0,0.0,0.0,0.0,0.0,0.0,0.0,0.0,0.0,0.0,0.0,0.0,0.0,0.0,0.0,0.0,0.0,0.0,0.0,0.0,0.0,0.0,0.0,0.0,0.0,0.0,0.0,0.0,0.0,0.0,0.0,0.0,0.0,0.0,0.0,0.0,0.0,0.0,0.0,0.0,0.0,0.0,0.0,0.0,0.0,0.0,0.0,0.0,0.0,0.0,0.0,0.0,0.0,0.0,0.0,0.0,0.0,0.0,0.0,0.0,0.0,0.0,0.0,0.0,0.0,0.0,0.0,0.0,0.0,0.0,0.0,0.0,0.0,0.0,0.0,0.0,0.0,0.0,0.0,0.0,0.0,0.0,0.0,0.0,0.0,0.0,0.0,0.0,0.0,0.0,0.0,0.0,0.0,0.0,0.0,0.0,0.0,0.0,0.0,0.0,0.0,0.0,0.0,0.0,0.0,0.0,0.0,0.0,0.0,0.0,0.0,0.0,0.0,0.0,0.0,0.0,0.0,0.0,0.0,0.0,0.0,0.0,0.0,0.0,0.0,0.0,0.0,0.0,0.0,0.0,0.0,0.0,0.0,0.0,0.0,0.0,0.0,0.0,0.0,0.0,0.0,0.0,0.0,0.0,0.0,0.0,0.0,0.0,0.0,0.0,0.0,0.0,0.0,0.0,0.0,0.0,0.0,0.0,0.0,0.0,0.0,0.0,0.0,0.0,0.0,0.0,0.0,0.0,0.0,0.0,0.0,0.0,0.0,0.0,0.0,0.0,0.0,0.0,0.0,0.0,0.0,0.0,0.0,0.0,0.0,0.0,0.0,0.0,0.0,0.0,0.0,0.0,0.0,0.0,0.0,0.0,0.0,0.0,0.0,0.0,0.0,0.0,0.0,0.0,0.0,0.0,0.0,0.0,0.0,0.0,0.0,0.0,0.0,0.0,0.0,0.0,0.0,0.0,0.0,0.0,0.0,0.0,0.0,0.0,0.0,0.0,0.0,0.0,0.0,0.0,0.0,0.0,0.0,0.0,0.0,0.0,0.0,0.0,0.0,0.0,0.0,0.0,0.0,0.0,0.0,0.0,0.0,0.0,0.0,0.0,0.0,0.0,0.0,0.0,0.0,0.0,0.0,0.0,0.0,0.0,0.0,0.0,0.0,0.0,0.0,0.0,0.0,0.0,0.0,0.0,0.0,0.0,0.0,0.0,0.0,0.0,0.0,0.0,0.0,0.0,0.0,0.0,0.0,0.0,0.0,0.0,0.0,0.0,0.0,0.0,0.0,0.0,0.0,0.0,0.0,0.0,0.0,0.0,0.0,0.0,0.0,0.0,0.0,0.0,0.0,0.0,0.0,0.0,0.0,0.0,0.0,0.0,0.0,0.0,0.0,0.0,0.0,0.0,0.0,0.0,0.0,0.0,0.0,0.0,0.0,0.0,0.0,0.0,0.0,0.0,0.0,0.0,0.0,0.0,0.0,0.0,0.0,0.0,0.0,0.0,0.0,0.0,0.0,0.0,0.0,0.0,0.0,0.0,0.0,0.0,0.0,0.0,0.0,0.0,0.0,0.0,0.0,0.0,0.0,0.0,0.0,0.0,0.0,0.0,0.0,0.0,0.0,0.0,0.0,0.0,0.0,0.0,0.0,0.0,0.0,0.0,0.0,0.0,0.0,0.0,0.0,0.0,0.0,0.0,0.0,0.0,0.0,0.0,0.0,0.0,0.0,0.0,0.0,0.0,0.0,0.0,0.0,0.0,0.0,0.0,0.0,0.0,0.0,0.0,0.0,0.0,0.0,0.0,0.0,0.0,0.0,0.0,0.0,0.0,0.0,0.0,0.0,0.0,0.0,0.0,0.0,0.0,0.0,0.0,0.0,0.0,0.0,0.0,0.0,0.0,0.0,0.0,0.0,0.0,0.0,0.0,0.0,0.0,0.0,0.0,0.0,0.0,0.0,0.0,0.0,0.0,0.0,0.0,0.0,0.0,0.0,0.0,0.0,0.0,0.0,0.0,0.0,0.0,0.0,0.0,0.0,0.0,0.0,0.0,0.0,0.0,0.0,0.0,0.0,0.0,0.0,0.0,0.0,0.0,0.0,0.0,0.0,0.0,0.0,0.0,0.0,0.0,0.0,0.0,0.0,0.0,0.0,0.0,0.0,0.0,0.0,0.0,0.0,0.0,0.0,0.0,0.0,0.0,0.0,0.0,0.0,0.0,0.0,0.0,0.0,0.0,0.0,0.0,0.0,0.0,0.0,0.0,0.0,0.0,0.0,0.0,0.0,0.0,0.0,0.0,0.0,0.0,0.0,0.0,0.0,0.0,0.0,0.0,0.0,0.0,0.0,0.0,0.0,0.0,0.0,0.0,0.0,0.0,0.0,0.0,0.0,0.0,0.0,0.0,0.0,0.0,0.0,0.0,0.0,0.0,0.0,0.0,0.0,0.0,0.0,0.0,0.0,0.0,0.0,0.0,0.0,0.0,0.0,0.0,0.0,0.0,0.0,0.0,0.0,0.0,0.0,0.0,0.0,0.0,0.0,0.0,0.0,0.0,0.0,0.0,0.0,0.0,0.0,0.0,0.0,0.0,0.0,0.0,0.0,0.0,0.0,0.0,0.0,0.0,0.0,0.0,0.0,0.0,0.0,0.0,0.0,0.0,0.0,0.0,0.0,0.0,0.0,0.0,0.0,0.0,0.0,0.0,0.0,0.0,0.0,0.0,0.0,0.0,0.0,0.0,0.0,0.0,0.0,0.0,0.0,0.0,0.0,0.0,0.0,0.0,0.0,0.0,0.0,0.0,0.0,0.0,0.0,0.0,0.0,0.0,0.0,0.0,0.0,0.0,0.0,0.0,0.0,0.0,0.0,0.0,0.0,0.0,0.0,0.0,0.0,0.0,0.0,0.0,0.0,0.0,0.0,0.0,0.0,0.0,0.0,0.0,0.0,0.0,0.0,0.0,0.0,0.0,0.0,0.0,0.0,0.0,0.0,0.0,0.0,0.0,0.0,0.0,0.0,0.0,0.0,0.0,0.0,0.0,0.0,0.0,0.0,0.0,0.0,0.0,0.0,0.0,0.0,0.0,0.0,0.0,0.0,0.0,0.0,0.0,0.0,0.0,0.0,0.0,0.0,0.0,0.0,0.0,0.0,0.0,0.0,0.0,0.0,0.0,0.0,0.0,0.0,0.0,0.0,0.0,0.0,0.0,0.0,0.0,0.0,0.0,0.0,0.0,0.0,0.0,0.0,0.0,0.0,0.0,0.0,0.0,0.0,0.0,0.0,0.0,0.0,0.0,0.0,0.0,0.0,0.0,0.0,0.0,0.0,0.0,0.0,0.0,0.0,0.0,0.0,0.0,0.0,0.0,0.0,0.0,0.0,0.0,0.0,2.6639,0.0,0.0,0.0,0.0,0.0,0.0,0.0,0.0,0.0,0.0,0.0,0.0,0.0,0.0,0.0,0.0,0.0,0.0,0.0,0.0,0.0,0.0,0.0,0.0,0.0,0.0,0.0,0.0,0.0,0.0,0.0,0.0,0.0,0.0,0.0,0.0,0.0,0.9052,1.1043,1.2934,1.5588,1.8978,1.9613,0.0,0.0,0.0,0.0,0.0,0.0,0.0,0.0,0.0,0.0,0.0,0.0,0.0,0.0,0.0,0.0,0.0,0.0,0.0,0.0,0.0,0.0,0.0,0.0,0.0,0.0,0.0,0.0,0.0,0.0,0.0,0.0,0.0,0.0,0.0,0.0,0.0,0.0,0.0,0.0,0.0,0.0,0.0,0.0,0.0,0.0,0.0,0.0,0.0,0.0,0.0,0.0,0.0,0.0,0.0,0.0,0.0,0.0,0.0,0.0,0.0,0.0,0.0,0.0,0.0,0.0,0.0,0.0,0.0,0.0,0.0,0.0,0.0,2.6955,0.0,0.0,0.0,0.0,0.0,0.0,0.0,0.0,0.0,0.0,0.0,0.0,0.0,0.0,0.0,0.0,0.0,0.0,0.0,0.0,0.0,0.0,0.0,0.5975,0.6521,0.6827,0.8137,0.9063,0.9184,0.9878,0.9883,0.8945,0.9245,0.9053,0.8203,0.9459,1.1147,1.3213,1.6032,1.9752,2.4232,0.0,0.0,0.0,0.0,0.0,0.0,0.0,0.0,0.0,0.0,0.0,0.0,0.0,0.0,0.0,0.0,0.0,0.0,0.0,0.0,0.0,0.0,0.0,0.0,0.0,0.0,0.0,0.0,0.0,0.0,0.0,0.0,0.0,0.0,0.0,0.0,0.0,0.0,0.0,0.0,0.0,0.0,0.0,0.0,0.0,0.0,0.0,0.0,0.0,0.0,0.0,0.0,0.0,0.0,0.0,0.0,0.0,0.0,0.0,0.0,0.0,0.0,0.0,0.0,0.0,0.0,0.0,0.0,3.4236,3.9712,3.8162,3.7638,3.7731,3.2656,3.051,3.0271,0.0,0.0,0.0,0.0,0.0,0.0,0.0,0.0,0.0,0.0,0.0,0.0,0.0,0.0,0.0,0.0,0.0,0.0,0.0,0.0,0.0,0.0,0.6324,0.6985,0.8461,0.8788,0.9243,0.9988,1.0194,0.9883,0.8945,0.8832,0.9013,0.9364,1.0177,1.2383,1.6052,2.2599,2.7439,3.0543,3.2605,3.2747,3.0987,2.4716,0.0,0.0,0.0,0.0,0.0,0.0,0.0,0.0,0.0,0.0,0.0,0.0,0.0,0.0,0.0,0.0,0.0,0.0,0.0,0.0,0.0,0.0,0.0,0.0,0.0,0.0,0.0,0.0,0.0,0.0,0.0,0.0,0.0,0.0,0.0,0.0,0.0,0.0,0.0,0.0,0.0,0.0,0.0,2.6591,2.8214,0.0,0.0,0.0,0.0,0.0,0.0,0.0,0.0,0.0,0.0,0.0,0.0,0.0,0.0,3.8967,4.2174,4.1171,3.5948,3.9127,4.1962,4.4518,4.5281,4.4633,4.2812,4.183,0.0,3.2269,3.016,0.0,0.0,0.0,0.0,0.0,0.0,0.0,0.0,0.0,0.0,0.0,0.0,0.0,0.0,0.0,0.0,0.0,0.0,0.0,0.0,0.0,0.8799,1.0392,1.1721,1.3481,1.3914,1.25,1.2851,1.2065,0.9737,0.996,1.0259,1.0487,1.2566,1.6115,2.1279,2.7485,3.1718,3.4008,3.6395,3.7313,3.6746,3.2908,2.7994,2.2354,1.8733,0.0,0.0,0.0,0.0,0.0,0.0,0.0,0.0,0.0,0.0,0.0,0.0,0.0,0.0,0.0,0.0,0.0,0.0,0.0,0.0,0.0,0.0,0.0,0.0,0.0,0.0,0.0,0.0,0.0,0.0,0.0,0.0,0.0,0.0,0.0,0.0,0.0,0.0,0.0,2.4257,2.7858,2.8058,2.7127,2.476,0.0,0.0,0.0,0.0,0.0,0.0,0.0,0.0,0.0,3.9322,4.3743,4.5975,4.5818,4.6544,4.5702,4.3372,4.6046,4.8709,5.1299,5.1322,5.047,4.9019,4.7999,4.5554,4.1928,3.625,3.2274,2.9489,0.0,0.0,0.0,0.0,2.4813,2.4436,0.0,0.0,0.0,0.0,0.0,0.0,0.0,0.0,0.0,0.0,0.0,0.0,0.9122,1.1883,1.414,1.5574,1.7675,1.8101,1.6116,1.5573,1.4257,1.1929,1.1896,1.2139,1.2539,1.6523,2.1317,2.6963,3.1892,3.5475,3.776,4.0265,4.1412,4.1279,3.9739,3.4797,2.7372,2.3412,2.0301,0.0,0.0,0.0,0.0,0.0,0.0,0.0,0.0,0.0,0.0,0.0,0.0,0.0,0.0,0.0,0.0,0.0,0.0,0.0,0.0,0.0,0.0,0.0,0.0,0.0,0.0,0.0,0.0,0.0,0.0,0.0,0.0,0.0,0.0,0.0,0.0,0.0,0.0,2.4705,2.8449,2.7628,2.9939,2.8841,0.0,0.0,0.0,0.0,0.0,0.0,3.8118,3.6985,3.9842,4.8201,4.8677,4.9412,5.0672,4.9847,4.9637,5.0135,5.1692,5.4119,5.7139,5.5676,5.4554,5.3672,5.1797,5.0818,4.9966,4.2187,3.794,3.6033,3.2881,3.0722,2.964,3.1763,3.208,3.1943,0.0,0.0,0.0,0.0,0.0,0.0,0.0,0.0,0.0,0.0,0.0,1.0039,1.3319,1.526,1.7292,1.9781,1.9388,1.9619,2.1043,1.7461,1.5553,1.6144,1.4648,1.4522,1.6083,2.2516,2.8065,3.259,3.61,3.9635,4.314,4.5027,4.5891,4.5779,4.4179,4.0734,3.5724,3.0105,2.7276,2.5953,0.0,0.0,0.0,0.0,0.0,0.0,0.0,0.0,0.0,0.0,0.0,0.0,0.0,0.0,0.0,0.0,0.0,0.0,0.0,0.0,0.0,0.0,0.0,0.0,0.0,0.0,0.0,0.0,0.0,0.0,0.0,0.0,0.0,0.0,0.0,0.0,0.0,0.0,0.0,3.0781,3.3637,0.0,0.0,0.0,0.0,2.6571,3.1836,3.8083,4.5219,4.2524,4.4915,5.3983,5.2298,5.2034,5.3663,5.4445,5.5215,5.6051,5.6115,5.7761,6.0635,5.7674,5.595,5.5256,5.2794,5.2075,5.2242,4.7001,4.4598,4.3789,4.0239,3.8733,3.8625,3.9277,3.9485,3.9661,0.0,0.0,0.0,0.0,0.0,0.0,0.0,0.0,0.613,0.699,0.959,1.2069,1.3798,1.7871,2.132,2.336,2.4645,2.5209,2.4793,2.1798,1.9978,1.9773,1.8087,1.8959,2.2869,2.5935,2.9317,3.3045,3.6024,3.8975,4.1933,4.4286,4.5669,4.6164,4.5153,4.3482,4.1079,3.5126,3.1567,2.9627,2.5465,2.2304,0.0,0.0,0.0,0.0,0.0,0.0,0.0,0.0,0.0,0.0,0.0,0.0,0.0,0.0,0.0,0.0,0.0,0.0,0.0,0.0,0.0,0.0,0.0,0.0,0.0,0.0,0.0,0.0,0.0,0.0,0.0,0.0,0.0,0.0,0.0,0.0,0.0,3.4927,3.7721,0.0,0.0,3.3994,3.3543,3.3758,3.7502,4.1618,4.5859,4.5721,4.8014,5.3458,5.5078,5.6478,5.7793,5.7767,5.7882,5.8172,5.8649,5.9436,6.0321,5.8725,5.7734,5.7099,5.459,5.421,5.5165,5.2681,5.0915,4.9669,4.8051,4.7075,4.6569,4.6765,4.6783,4.6857,0.0,0.0,0.0,0.0,0.0,0.0,0.0,0.0,0.6839,0.8298,1.1747,1.4956,1.7185,2.1649,2.5274,2.7285,2.8644,2.9193,2.8782,2.5521,2.352,2.3342,2.189,2.3217,2.7774,2.9428,3.1636,3.4464,3.7131,3.9597,4.1968,4.4565,4.6259,4.7039,4.6435,4.5744,4.4739,4.0419,3.6933,3.4077,3.0942,2.8268,2.5837,0.0,0.0,0.0,0.0,0.0,0.0,0.0,0.0,0.0,0.0,0.0,0.0,0.0,0.0,0.0,0.0,0.0,0.0,0.0,0.0,0.0,0.0,0.0,0.0,0.0,0.0,0.0,0.0,0.0,0.0,0.0,0.0,0.0,0.0,0.0,3.5723,3.6482,4.1312,4.3766,4.1627,4.118,4.1009,4.0845,4.283,4.5382,4.8469,4.9756,5.2108,5.5777,5.8189,5.9919,6.0976,6.0583,6.0385,6.0427,6.093,6.1114,6.0993,5.9864,5.8861,5.7899,5.5539,5.5462,5.6932,5.6434,5.6287,5.6187,5.4705,5.4066,5.3993,5.3752,5.361,5.3532,0.0,0.0,0.0,0.0,0.0,0.0,0.0,0.634,0.7906,1.2212,1.5105,1.8625,2.3664,2.6494,2.9044,3.153,3.0979,3.1172,3.2839,2.828,2.5884,2.6737,2.602,2.7127,3.0432,3.3119,3.5377,3.7184,3.9722,4.1897,4.3734,4.6298,4.7975,4.8767,4.8257,4.7603,4.6884,4.6075,4.3502,3.9665,3.6357,3.4588,3.3237,0.0,0.0,0.0,0.0,0.0,0.0,0.0,0.0,0.0,0.0,0.0,0.0,0.0,0.0,0.0,0.0,0.0,0.0,0.0,0.0,0.0,0.0,0.0,0.0,0.0,0.0,0.0,0.0,0.0,0.0,0.0,0.0,0.0,3.3806,3.6613,3.8021,3.5761,4.4636,5.0059,4.8002,4.7417,4.7335,4.7629,4.8046,4.9893,5.3522,5.4765,5.7285,6.1465,6.1671,6.2115,6.2943,6.2969,6.2987,6.2999,6.2924,6.295,6.2999,6.1166,5.9394,5.7584,5.5694,5.5747,5.7252,5.7968,6.0321,6.3168,5.99,5.9574,6.0918,6.0193,5.9833,5.9631,0.0,0.0,0.0,0.0,0.0,0.0,0.0,0.7281,0.9194,1.2258,1.662,2.0664,2.3925,2.8184,3.1283,3.254,3.242,3.2728,3.3826,3.0317,2.8202,2.8361,2.9358,0.0,3.3058,3.4032,3.5334,3.7077,3.9136,4.1327,4.3661,4.6264,4.7978,4.8847,4.8373,4.8075,4.7892,4.7111,4.6574,4.5875,4.1864,3.875,3.6078,0.0,0.0,0.0,0.0,0.0,0.0,0.0,0.0,0.0,0.0,0.0,0.0,0.0,0.0,0.0,0.0,0.0,0.0,0.0,0.0,0.0,0.0,0.0,0.0,0.0,0.0,0.0,0.0,0.0,0.0,0.0,0.0,4.2601,3.588,3.7759,4.1589,4.6344,5.1878,5.507,5.4375,5.4322,5.3811,5.2651,5.3121,5.4237,5.6047,5.7733,5.9547,6.145,6.3127,6.412,6.4345,6.4597,6.4099,6.2945,6.3174,6.2809,6.1914,6.1443,5.9954,5.7711,5.6606,5.6409,5.6964,5.7716,6.0001,6.3047,6.3133,6.418,6.5498,6.4818,6.4138,6.3347,0.0,0.0,0.0,0.0,0.0,0.0,0.0,0.8233,1.0652,1.4294,1.8715,2.2928,2.6561,3.0248,3.2912,3.408,3.35,3.3451,3.4323,3.1826,3.0276,0.0,0.0,3.3018,3.4647,3.5577,3.6548,3.7553,3.9715,4.1741,4.3671,4.6288,4.8161,4.9372,4.8632,4.8373,4.8393,4.8025,4.8197,4.854,4.6298,4.3965,4.1499,3.8343,3.5292,3.2551,3.074,3.0001,2.951,2.6797,0.0,0.0,0.0,0.0,0.0,0.0,0.0,0.0,0.0,0.0,0.0,0.0,0.0,0.0,0.0,0.0,0.0,0.0,0.0,0.0,0.0,0.0,0.0,0.0,4.5692,4.7391,4.3115,4.3939,4.6827,5.1776,5.5435,5.7649,5.7966,5.8006,5.7745,5.7112,5.7149,5.7642,5.8521,5.982,6.101,6.2009,6.3691,6.4754,6.51,6.5278,6.5065,6.448,6.4241,6.3516,6.2457,6.2306,6.08,0.0,5.7159,5.6843,5.7111,5.7569,5.9492,0.0,0.0,0.0,0.0,0.0,6.6486,6.5531,0.0,0.0,0.0,0.0,0.0,0.0,0.0,0.911,1.207,1.7258,2.1071,2.5223,3.0312,3.2631,3.4325,3.5687,3.4505,3.3946,3.4602,3.3006,0.0,3.2281,3.3098,3.4229,3.5751,3.7382,3.8324,3.8572,4.1023,4.2844,4.4075,4.6507,4.8586,5.0194,4.9011,4.8549,4.8643,4.8711,4.8753,4.8844,4.9676,4.9197,4.7538,4.4162,4.2469,4.1344,3.7378,3.5552,3.4556,3.1492,0.0,0.0,0.0,0.0,0.0,0.0,0.0,0.0,0.0,0.0,0.0,0.0,0.0,0.0,0.0,0.0,0.0,0.0,0.0,0.0,0.0,0.0,0.0,0.0,4.8613,5.088,5.2694,5.2781,5.31,5.4205,5.694,5.8981,5.965,5.9776,6.0115,6.0774,6.0377,6.0319,6.0822,0.0,0.0,0.0,0.0,6.4441,6.5122,6.5033,6.5239,6.566,6.4708,6.3889,6.3244,6.264,6.111,5.8856,5.7608,5.7159,5.7308,5.7511,5.9073,6.1697,6.4422,6.6718,6.8472,6.8044,6.7407,6.6439,0.0,0.0,0.0,0.0,0.0,0.0,0.0,0.9887,1.2856,1.8086,2.2422,2.6748,3.1317,3.5191,3.703,3.5953,3.6221,3.6195,3.5585,0.0,3.3817,3.5809,3.6091,3.6621,3.7602,3.8013,3.8899,4.0322,4.1586,4.3716,4.6683,4.7951,4.9484,5.1057,4.9369,4.861,4.8694,4.8843,4.8898,4.8996,5.1131,5.0624,4.843,4.6985,4.5296,4.3623,4.3139,4.2987,4.268,4.0177,3.8581,3.6832,3.228,0.0,0.0,0.0,0.0,0.0,0.0,0.0,0.0,0.0,0.0,0.0,0.0,0.0,0.0,0.0,0.0,0.0,0.0,0.0,0.0,4.8193,5.2336,5.5566,5.7211,5.8451,5.8946,5.8284,6.037,6.169,6.125,6.2485,6.3045,6.2291,6.2405,6.2459,6.2322,6.2045,0.0,6.3555,6.3865,6.3773,6.3302,6.3283,6.1957,5.9359,0.0,0.0,5.9978,5.8568,5.8119,5.8457,5.854,5.7886,5.6816,5.7583,5.9619,6.2509,6.5838,6.7493,6.8032,6.7991,6.7457,6.654,0.0,0.0,0.0,0.0,0.0,0.0,0.0,1.0776,1.3895,1.9515,2.3301,2.7175,3.1532,3.4267,3.5285,3.4062,3.4351,3.4564,0.0,3.494,3.6095,3.8141,3.8257,3.8634,3.9414,3.9503,4.0122,4.1451,4.3197,4.5201,4.7388,4.9148,5.0724,5.194,5.0574,4.9581,4.8914,4.9034,4.8885,4.8712,5.0923,5.1348,5.062,5.0115,4.9179,4.8101,4.8056,4.7967,4.7507,4.517,4.3322,4.1209,3.6964,3.103,2.4656,0.0,0.0,0.0,0.0,0.0,0.0,0.0,0.0,0.0,0.0,0.0,0.0,0.0,0.0,4.0611,0.0,0.0,4.5188,4.9737,5.2377,5.5013,5.8309,6.014,6.1215,6.1358,6.2191,6.2795,6.2742,6.3868,6.4369,6.3839,6.3944,6.3584,6.259,6.2503,6.2394,6.2313,6.2886,6.2851,6.2139,6.1229,5.9132,5.5845,5.458,5.4718,5.6015,5.5681,5.6587,5.8435,5.8652,5.8339,5.7837,5.8104,5.8934,6.0303,6.3365,6.5661,6.719,6.6862,6.6479,6.5898,0.0,0.0,0.0,0.0,0.0,0.0,0.0,1.1673,1.4865,2.052,2.3566,2.6784,3.0935,3.2229,3.2538,3.1802,3.1872,3.2591,0.0,3.6441,3.8606,4.0276,4.0539,4.0829,4.1313,4.1302,4.1745,4.2625,4.482,4.6484,4.7606,5.002,5.1686,5.2513,5.1668,5.0539,4.9354,4.9472,4.9139,4.8671,5.0657,5.191,5.2652,5.2625,5.2453,5.2134,5.1784,5.1091,5.0095,4.8309,4.6187,4.3698,4.0471,3.5442,2.9666,2.4096,2.0601,0.0,0.0,0.0,0.0,0.0,0.0,0.0,0.0,0.0,2.3821,2.9373,3.841,4.3813,3.8906,4.2279,4.6787,4.9815,5.1193,5.3619,5.8622,6.0856,6.2469,6.3775,6.3412,6.3264,6.3855,6.4381,6.4571,6.4372,6.4389,6.3789,6.2487,6.2429,6.1991,6.0982,6.1654,6.1615,6.0703,5.8918,5.6359,5.3111,5.1057,5.0911,5.2513,5.3698,5.5775,5.8396,5.8424,5.8684,5.9049,5.8665,5.8387,5.8332,6.0468,6.3075,6.5609,6.5527,6.5394,6.5062,0.0,0.0,0.0,0.0,0.0,0.0,0.0,0.0,1.5231,1.9834,2.2598,2.5523,2.9115,3.0868,3.1474,3.0818,3.1516,0.0,3.6563,3.9137,4.1302,4.2991,4.3802,4.3889,4.3228,4.3147,4.3552,4.4494,4.5487,4.6848,4.8498,5.0292,5.16,5.2396,5.1502,5.0781,5.0199,5.0486,5.0156,4.9637,5.1725,5.2733,5.298,5.3333,5.32,5.284,5.327,5.203,5.023,5.0331,4.9204,4.7298,4.4754,4.1094,3.6648,3.1481,0.0,2.1295,2.1069,2.1685,2.3382,2.7683,2.4159,2.027,0.0,0.0,1.8359,4.3378,4.4909,4.2422,4.4647,4.4474,4.4601,4.646,5.0608,5.5385,6.0475,6.2983,6.4692,6.576,6.4415,6.3584,6.4026,6.3886,6.3299,6.2254,6.2383,6.2473,6.2421,6.1657,6.1302,6.1505,6.1057,5.9847,5.7775,5.6048,5.3342,4.9755,4.9163,4.9504,5.0772,5.3003,5.5398,5.7753,5.8386,5.8901,5.9335,5.8845,5.9141,5.9955,6.0348,6.1183,6.2453,6.4666,6.5004,6.434,0.0,0.0,0.0,0.0,0.0,0.0,0.0,0.0,0.0,1.9684,2.1962,2.408,2.6442,2.6868,2.705,2.7357,2.9684,0.0,3.6913,4.0543,4.3487,4.5741,4.6169,4.6208,4.5819,4.5296,4.5433,4.6309,4.7116,4.8405,5.0158,5.18,5.3016,5.3805,5.2977,5.2122,5.1258,5.0532,5.0123,5.004,5.1096,5.2139,5.3072,5.3404,5.2977,5.2244,5.2726,5.2064,0.0,0.0,4.8894,4.7178,4.5144,4.1556,3.7368,3.3658,2.966,0.0,2.563,2.4314,0.0,0.0,2.6261,2.5102,2.2445,1.8553,2.1761,4.3845,4.7701,4.7567,4.8977,4.8668,4.9713,0.0,5.6952,5.9371,6.24,6.4438,6.5451,6.5114,6.1499,6.0261,6.3392,6.2475,6.1516,6.1124,6.105,6.0785,6.0253,6.0231,6.014,5.9912,6.0188,5.9331,5.7156,5.4924,5.2151,4.8879,4.769,4.7957,4.9554,5.1937,5.5245,5.9134,5.9895,6.0436,6.0766,6.0339,6.0203,6.0204,5.9786,5.9859,6.0444,6.3077,6.378,6.352,0.0,0.0,0.0,0.0,0.0,0.0,0.0,0.0,0.0,0.0,2.1138,2.2364,2.3612,2.3409,2.3601,2.4613,0.0,0.0,0.0,4.1792,4.5499,4.81,4.8646,4.8684,4.821,4.782,4.7774,4.8102,4.9166,5.0461,5.1964,5.3571,5.4739,5.5487,5.4684,5.374,5.2614,5.1205,5.0617,5.0717,5.0969,5.1797,5.2831,5.281,5.2048,5.1054,5.1669,5.0816,0.0,0.0,4.654,4.4931,4.3169,4.037,3.7254,3.4711,3.201,2.9358,2.7192,0.0,0.0,2.6618,3.0219,3.1948,2.7785,2.7675,3.2089,4.497,5.0405,5.2702,5.2195,5.328,0.0,6.0169,6.1627,6.2678,6.3915,6.5061,6.5025,6.2969,5.8816,5.7061,5.9353,5.8649,5.8297,5.8846,5.8651,5.8339,5.8098,5.8483,5.8684,5.8628,5.9376,5.883,5.6896,5.4373,5.1592,4.8638,4.7029,4.7266,4.9195,5.2305,5.5988,6.004,6.0648,6.1134,6.1458,6.1018,6.0488,5.9854,5.9072,5.8441,5.8293,6.0679,6.1832,6.2311,0.0,0.0,0.0,0.0,0.0,0.0,0.0,0.0,0.0,0.0,0.0,0.0,0.0,2.1666,2.2571,0.0,0.0,0.0,0.0,4.3242,4.7291,4.9891,5.1576,5.1661,4.9964,5.0743,5.0757,4.9919,5.1624,5.2903,5.3747,5.5356,5.6483,5.7119,5.6343,5.548,5.4428,5.3163,5.23,5.1893,5.2195,5.2266,5.2066,5.1337,5.0304,4.9314,5.0422,0.0,0.0,0.0,4.204,4.0496,3.8655,3.8144,0.0,3.5593,3.2674,0.0,0.0,0.0,2.6059,3.2883,3.7424,4.1016,4.4249,4.7727,5.0409,5.1031,5.3955,5.5942,5.4229,5.8006,6.0895,5.9412,6.1892,6.4237,6.4777,6.473,6.3184,5.9254,5.768,5.5113,0.0,5.1408,5.2974,5.4489,5.4472,5.502,5.6496,5.6329,5.6942,5.8467,5.8543,5.7954,5.6625,5.4089,5.1396,4.8594,4.7482,4.8002,5.0046,5.4979,5.8049,5.9512,5.9815,6.0227,6.0612,6.0145,5.9594,5.8966,5.8158,5.6819,5.554,5.7304,5.9014,6.0464,0.0,0.0,0.0,0.0,0.0,0.0,0.0,0.0,0.0,0.0,0.0,0.0,0.0,0.0,0.0,0.0,0.0,0.0,0.0,4.3041,4.7024,5.0818,5.2052,5.2645,5.264,5.2351,5.2667,5.3509,5.2962,5.3631,5.5541,5.5435,5.6087,5.7217,5.5745,5.5253,5.5372,5.3046,5.2158,5.2296,5.1563,5.1507,5.1785,5.138,4.8996,4.5828,0.0,0.0,0.0,0.0,0.0,3.6104,3.529,3.4167,3.2676,3.0189,3.1978,3.353,0.0,0.0,3.57,4.0591,4.6339,5.1122,5.2471,5.3702,5.4618,5.4732,5.5708,5.5652,5.2727,5.5577,5.8352,5.8463,6.0222,6.2024,6.3247,6.2857,6.1259,5.8097,5.3452,0.0,0.0,0.0,0.0,5.1177,5.1663,5.2587,5.412,5.5527,5.6717,5.7635,5.8665,5.8565,5.7215,5.4259,5.1369,4.8515,4.7762,4.8584,5.0898,5.4428,5.6968,5.8643,5.8463,5.8563,5.8973,5.9434,5.9138,5.8315,5.7329,5.6627,5.5692,5.2136,5.1554,5.315,0.0,0.0,0.0,0.0,0.0,0.0,0.0,0.0,0.0,0.0,0.0,0.0,0.0,0.0,0.0,0.0,0.0,0.0,0.0,0.0,4.5518,5.0243,5.0975,5.187,5.3034,5.2499,5.2928,5.4359,5.3544,5.4271,5.6432,5.5463,5.5682,5.6776,5.5316,5.4967,5.5358,5.2879,5.2186,5.2537,5.0757,4.9797,4.9326,4.7872,4.4692,0.0,0.0,0.0,0.0,0.0,0.0,0.0,3.0677,3.0152,2.9324,2.6813,2.9793,3.4227,3.5791,4.0666,4.594,4.8356,5.2993,5.682,5.6311,5.6251,5.6679,5.8043,5.736,5.545,5.1918,5.1654,5.3195,5.6991,5.8336,5.9606,6.1567,6.0488,5.7945,5.3746,4.8593,0.0,0.0,0.0,0.0,4.771,4.8871,5.0571,5.2992,5.5016,5.6785,5.8242,5.9219,5.9322,5.8471,5.4998,5.12,4.7087,4.6859,4.8039,5.0453,5.3197,5.5053,5.5998,5.5313,5.5618,5.6604,5.6497,5.6135,5.5522,5.4234,5.2967,5.1396,4.732,4.6112,4.721,0.0,0.0,0.0,0.0,0.0,0.0,0.0,0.0,0.0,0.0,0.0,0.0,0.0,0.0,0.0,0.0,0.0,0.0,0.0,0.0,0.0,4.8269,4.8664,4.9583,5.1364,5.132,5.1753,5.2695,5.3398,5.4567,5.6142,5.5237,5.5112,5.5699,5.4894,5.4516,5.4364,5.2658,5.2181,5.2372,4.9591,4.718,4.4834,4.1427,0.0,0.0,0.0,0.0,0.0,0.0,0.0,0.0,0.0,2.639,2.7942,2.5968,2.7219,3.232,4.6372,5.2843,5.566,5.5723,5.7194,5.816,5.6515,5.6218,5.7262,6.0643,5.8763,5.5199,0.0,0.0,4.6515,5.4723,5.6243,5.7255,5.9638,5.7681,5.3452,0.0,0.0,0.0,0.0,0.0,0.0,4.4095,0.0,4.9005,5.3121,5.4821,5.7071,6.0103,6.0051,6.0026,6.0144,5.5882,5.0555,4.4384,4.4814,4.6178,4.8558,5.1364,5.2451,5.2008,5.0748,5.143,5.3332,5.1669,5.1008,5.081,4.8591,4.5682,4.2682,4.2682,4.2448,4.2623,0.0,0.0,0.0,0.0,0.0,0.0,0.0,0.0,0.0,0.0,0.0,0.0,0.0,0.0,0.0,0.0,0.0,0.0,0.0,0.0,0.0,0.0,0.0,0.0,0.0,0.0,0.0,5.2685,5.1592,5.1286,5.1716,5.0806,5.1063,5.2241,5.1385,5.1668,5.2647,5.0325,4.9079,4.8426,0.0,4.3374,4.1437,0.0,0.0,0.0,0.0,0.0,0.0,0.0,0.0,0.0,0.0,2.6208,2.6506,2.9976,3.6259,4.3751,5.1508,5.4428,5.5619,5.7228,5.7956,5.8196,5.7949,5.6936,5.6397,5.7444,5.704,5.265,0.0,0.0,0.0,4.9483,5.3512,0.0,5.5613,5.3252,0.0,0.0,0.0,3.7761,3.5997,3.6274,0.0,0.0,4.5298,4.886,5.2314,5.5093,5.767,6.0103,6.0583,6.0861,6.0995,5.263,4.5973,4.117,4.1108,4.1903,4.3632,4.6875,4.9077,5.022,4.9277,4.8372,4.768,4.9997,4.9524,4.6528,3.8166,3.4135,3.318,3.4883,3.5133,3.5119,0.0,0.0,0.0,0.0,0.0,0.0,0.0,0.0,0.0,0.0,0.0,0.0,0.0,0.0,0.0,0.0,0.0,0.0,0.0,0.0,0.0,0.0,0.0,0.0,0.0,0.0,0.0,0.0,0.0,0.0,4.7808,4.6953,4.6973,4.7678,4.7172,4.7656,4.8761,4.694,0.0,0.0,0.0,0.0,0.0,0.0,0.0,0.0,0.0,0.0,0.0,0.0,0.0,2.7627,2.8735,2.914,2.9897,3.3074,0.0,4.681,5.2635,5.5113,5.6358,5.781,5.8366,5.8787,5.9456,5.8876,5.7882,5.6576,5.2775,0.0,0.0,0.0,0.0,0.0,0.0,0.0,5.1703,4.8743,4.4813,0.0,3.6782,0.0,3.4736,3.5416,3.7105,0.0,4.4633,4.871,5.1973,5.5843,5.8796,6.0675,6.1717,6.0608,5.7134,4.8941,4.2458,3.7781,3.6824,3.7553,3.9937,4.2969,4.5463,4.7325,0.0,4.3437,4.3159,4.3929,4.1249,3.6044,2.9946,2.809,2.8968,2.988,3.0628,3.172,0.0,0.0,0.0,0.0,0.0,0.0,0.0,0.0,0.0,0.0,2.3074,0.0,0.0,0.0,0.0,0.0,0.0,0.0,0.0,0.0,0.0,0.0,0.0,0.0,0.0,0.0,0.0,0.0,0.0,0.0,0.0,0.0,0.0,0.0,0.0,0.0,0.0,0.0,0.0,0.0,0.0,0.0,0.0,0.0,0.0,0.0,0.0,0.0,0.0,0.0,2.9345,2.9682,3.1918,3.4017,3.582,3.6846,4.0704,4.6031,5.2067,5.5538,5.757,5.817,5.8832,5.9588,6.0723,5.963,5.7577,5.4788,0.0,3.6833,3.0385,0.0,3.5468,4.585,0.0,4.6249,4.7408,4.4135,4.0,3.5703,3.3242,3.2186,3.2868,3.4525,3.6539,3.8915,4.3775,4.815,5.1661,5.6329,5.9726,6.1576,6.2927,5.9769,5.1739,4.5401,3.9593,3.4378,3.2409,3.3193,3.6559,3.9377,4.187,4.3818,0.0,0.0,3.7517,3.5243,3.0502,2.4698,2.4707,2.6139,2.806,2.7564,2.8703,3.094,0.0,0.0,0.0,0.0,0.0,0.0,0.0,0.0,0.0,0.0,2.5129,2.406,0.0,0.0,0.0,0.0,0.0,0.0,0.0,0.0,0.0,0.0,0.0,0.0,0.0,0.0,0.0,0.0,0.0,0.0,0.0,0.0,0.0,0.0,0.0,0.0,0.0,0.0,0.0,0.0,0.0,0.0,0.0,0.0,0.0,0.0,0.0,0.0,0.0,0.0,3.3691,3.4899,3.7637,3.9245,4.0909,4.5259,4.7504,4.9596,5.4448,5.7197,5.8891,5.9829,6.0176,6.043,6.0742,5.2146,0.0,0.0,0.0,2.6555,2.2577,2.458,0.0,3.5551,0.0,0.0,0.0,0.0,3.6343,0.0,0.0,0.0,0.0,0.0,0.0,0.0,0.0,0.0,5.0287,5.4486,5.8669,6.2818,6.2766,5.9071,5.159,4.3673,3.6832,3.1174,2.8682,2.8785,3.1299,3.584,3.8846,4.0453,3.9785,0.0,2.417,2.6189,2.6096,2.4891,2.6776,2.761,2.8047,3.0145,3.0755,3.094,0.0,0.0,0.0,0.0,0.0,0.0,0.0,2.5236,2.7281,3.0783,3.0898,2.9775,2.7443,2.5956,2.5412,0.0,0.0,0.0,0.0,0.0,0.0,0.0,0.0,0.0,0.0,0.0,0.0,0.0,0.0,0.0,0.0,0.0,0.0,0.0,0.0,0.0,0.0,0.0,0.0,0.0,0.0,0.0,0.0,0.0,0.0,0.0,0.0,0.0,0.0,0.0,3.5605,3.9641,4.2594,4.4358,4.5885,4.8866,5.061,5.2189,5.4914,5.7329,5.9158,5.9714,5.9255,5.7851,5.4485,0.0,0.0,0.0,0.0,1.9442,1.7856,0.0,0.0,0.0,0.0,0.0,0.0,0.0,0.0,0.0,0.0,0.0,0.0,0.0,0.0,0.0,0.0,0.0,4.8007,5.4011,5.9065,6.2857,6.192,5.7277,4.8799,4.144,3.4408,2.7816,2.5631,2.5597,2.7578,3.086,3.2354,3.2286,3.0574,0.0,2.0791,2.3918,2.5963,2.7214,2.7733,2.8719,2.997,3.1065,3.185,3.2583,0.0,0.0,0.0,0.0,0.0,0.0,0.0,2.7611,3.0332,3.482,3.6416,3.5543,3.151,2.8394,2.6641,0.0,0.0,0.0,0.0,0.0,0.0,0.0,0.0,0.0,0.0,0.0,0.0,0.0,0.0,0.0,0.0,0.0,0.0,0.0,0.0,0.0,0.0,0.0,0.0,0.0,0.0,0.0,0.0,0.0,0.0,0.0,0.0,0.0,0.0,0.0,3.6047,4.1592,4.5153,4.7991,5.0131,5.1078,5.2824,5.4638,5.5673,5.7499,5.9071,5.9102,5.7672,5.4153,4.5956,3.485,0.0,0.0,1.7086,1.5234,0.0,0.0,0.0,0.0,0.0,0.0,0.0,0.0,0.0,0.0,0.0,0.0,0.0,0.0,0.0,0.0,0.0,0.0,4.7009,5.4252,5.9509,6.2197,6.0845,5.5679,4.6397,3.9384,3.2314,2.5229,2.3244,2.3153,2.4858,2.6614,2.6792,2.5535,2.2845,0.0,0.0,2.4588,2.7382,2.9844,2.8976,2.9971,3.1862,3.184,3.2958,3.4452,0.0,0.0,0.0,0.0,0.0,0.0,0.0,2.8345,3.32,3.8364,3.8481,3.7928,3.7502,3.3719,3.0249,0.0,0.0,0.0,0.0,0.0,0.0,0.0,0.0,0.0,0.0,0.0,0.0,0.0,0.0,0.0,0.0,0.0,0.0,0.0,0.0,0.0,0.0,0.0,0.0,0.0,0.0,0.0,0.0,0.0,0.0,0.0,0.0,0.0,0.0,0.0,0.0,3.7524,4.3014,4.8394,5.294,5.3865,0.0,0.0,5.8481,5.8891,5.906,5.8872,5.6397,5.0474,3.7028,0.0,0.0,1.6394,1.5338,1.5003,1.4954,0.0,0.0,0.0,0.0,0.0,0.0,0.0,0.0,0.0,0.0,0.0,0.0,0.0,0.0,0.0,0.0,0.0,0.0,5.5072,5.8854,6.0711,5.9992,5.5396,4.6656,3.8249,3.0799,2.4372,2.1832,2.1523,2.328,2.5066,2.5808,2.56,2.5274,0.0,0.0,2.6759,2.9101,3.1602,3.1603,3.1862,3.2282,3.3421,3.4581,3.5668,0.0,0.0,0.0,0.0,0.0,0.0,2.3819,2.5816,2.9638,3.7659,3.8355,3.8544,3.9728,3.6937,3.3096,2.842,0.0,0.0,0.0,0.0,0.0,0.0,0.0,0.0,0.0,0.0,0.0,0.0,0.0,0.0,0.0,0.0,0.0,0.0,0.0,0.0,0.0,0.0,0.0,0.0,0.0,0.0,0.0,0.0,0.0,0.0,0.0,0.0,0.0,0.0,0.0,0.0,3.6156,4.1237,0.0,0.0,5.3724,5.5627,5.7183,5.8727,5.9633,5.8604,5.5326,4.9794,3.9618,0.0,2.406,1.8572,1.6062,1.4871,1.4737,0.0,0.0,0.0,0.0,0.0,0.0,0.0,0.0,0.0,0.0,0.0,0.0,0.0,0.0,0.0,0.0,0.0,4.8355,5.2958,5.6298,5.8152,5.6942,5.2291,4.3986,3.6362,2.973,2.4117,2.2601,2.2795,2.4529,2.6575,2.786,2.8502,2.8394,0.0,0.0,2.9247,3.0026,3.0592,3.2158,3.253,3.2425,3.4214,3.4972,3.5244,0.0,0.0,0.0,0.0,0.0,1.7681,2.2176,2.3459,2.6874,3.5116,3.6561,3.7692,3.9903,3.7107,3.3651,3.0154,2.956,0.0,0.0,0.0,0.0,0.0,0.0,0.0,0.0,0.0,0.0,0.0,0.0,0.0,0.0,0.0,0.0,0.0,0.0,0.0,0.0,0.0,0.0,0.0,0.0,0.0,0.0,0.0,0.0,0.0,0.0,0.0,0.0,0.0,0.0,0.0,0.0,0.0,0.0,0.0,5.1223,5.359,5.6014,5.7939,5.9075,5.7966,5.4073,4.8656,0.0,0.0,2.6715,1.9587,1.6142,1.4294,1.4015,1.413,1.4753,1.6356,0.0,1.717,0.0,0.0,0.0,0.0,0.0,0.0,0.0,0.0,0.0,0.0,0.0,0.0,0.0,5.0782,5.381,5.5784,5.4044,4.9431,4.1894,3.5142,2.9375,2.4678,2.3986,2.4585,2.6381,2.7945,2.9302,3.0318,0.0,0.0,0.0,3.0442,3.0374,3.0076,3.1998,3.2527,3.2457,3.4322,3.4904,3.4967,0.0,0.0,0.0,0.0,0.0,0.0,1.7953,2.2076,2.6479,3.0886,3.3034,3.5212,3.8,3.3492,3.1274,3.374,3.1049,0.0,0.0,0.0,0.0,0.0,0.0,0.0,0.0,0.0,2.0272,2.0136,2.2668,2.4157,0.0,0.0,0.0,0.0,0.0,0.0,0.0,0.0,0.0,0.0,0.0,0.0,0.0,0.0,0.0,0.0,0.0,0.0,0.0,0.0,0.0,0.0,0.0,0.0,0.0,0.0,4.8791,5.2441,5.5771,5.6778,5.6865,5.6898,5.2423,4.6283,0.0,0.0,2.5628,1.7925,1.478,1.3234,1.2621,1.2453,1.3039,1.4924,1.4541,0.0,0.0,0.0,0.0,0.0,0.0,0.0,0.0,0.0,0.0,0.0,0.0,0.0,0.0,4.9061,5.1729,5.3977,5.1859,4.7639,4.1169,3.4855,2.988,2.6259,2.5642,2.6518,2.8552,2.8579,2.9194,0.0,0.0,0.0,0.0,2.9817,3.0238,3.073,3.1239,3.1742,3.2373,3.3697,3.4505,3.506,0.0,0.0,0.0,0.0,0.0,0.0,0.0,1.5338,1.8167,2.4183,2.512,2.7369,3.3037,3.0494,2.9336,3.18,2.9952,0.0,0.0,0.0,0.0,0.0,0.0,0.0,0.0,0.0,1.9674,2.018,2.267,2.4847,2.6719,2.7742,0.0,0.0,0.0,0.0,0.0,0.0,0.0,0.0,0.0,0.0,0.0,0.0,0.0,0.0,0.0,0.0,0.0,0.0,0.0,0.0,0.0,0.0,0.0,3.4002,4.0292,4.6187,4.8433,5.0353,5.116,4.8894,4.5586,4.1293,3.5148,0.0,2.4368,1.8086,1.4989,1.3208,1.2604,1.1933,1.2095,1.4065,1.3965,0.0,0.0,0.0,0.0,0.0,0.0,0.0,0.0,0.0,0.0,0.0,0.0,0.0,0.0,4.8562,5.0092,5.1629,4.9615,4.5536,3.9323,3.454,3.0809,2.8083,2.8022,2.8961,3.0744,3.1239,0.0,0.0,0.0,0.0,0.0,3.1008,3.1413,3.1672,3.2417,3.304,3.3697,3.482,3.5348,3.572,0.0,0.0,0.0,0.0,0.0,0.0,0.0,1.1384,1.3447,1.8467,1.9308,2.1917,2.854,2.6516,2.6169,2.9812,2.7764,0.0,0.0,0.0,0.0,0.0,0.0,0.0,0.0,1.8237,1.9534,2.162,2.3821,2.6337,2.9079,2.9597,2.9735,2.9539,0.0,0.0,0.0,0.0,0.0,0.0,0.0,0.0,2.5347,0.0,0.0,0.0,0.0,0.0,0.0,0.0,0.0,0.0,0.0,0.0,0.0,0.0,3.3187,3.8589,0.0,4.5291,4.6506,4.4437,4.174,0.0,0.0,0.0,2.3122,1.7185,1.4313,1.2638,1.1875,1.1031,1.0929,1.2403,1.2247,0.0,0.0,0.0,0.0,0.0,0.0,0.0,0.0,0.0,0.0,0.0,0.0,0.0,0.0,4.7834,4.8531,4.8955,4.7121,4.3638,3.8427,3.4852,3.2164,3.0331,3.0574,3.136,3.2679,3.307,0.0,0.0,0.0,0.0,0.0,3.1919,3.2236,3.2124,3.3291,3.3927,3.438,3.5337,3.5767,3.5966,0.0,0.0,0.0,0.0,0.0,0.0,0.0,0.9922,1.1889,1.3928,1.546,1.8559,2.4349,2.1944,2.2071,2.7504,0.0,0.0,0.0,0.0,0.0,0.0,0.0,0.0,0.0,1.7726,1.9856,2.4006,2.5736,2.8307,3.161,3.2301,3.1974,3.0809,3.088,0.0,0.0,0.0,0.0,0.0,2.6589,2.6118,0.0,0.0,0.0,0.0,0.0,0.0,0.0,0.0,0.0,0.0,0.0,0.0,0.0,0.0,0.0,0.0,0.0,4.0759,4.2072,4.1822,3.938,3.577,0.0,0.0,0.0,0.0,1.3038,1.1726,1.0822,1.0035,0.9773,1.0532,1.021,0.0,0.0,0.0,0.0,0.0,0.0,0.0,0.0,0.0,0.0,0.0,0.0,0.0,0.0,4.6946,4.7108,4.6085,4.4572,4.202,3.8399,3.5684,3.3865,3.2916,3.3102,3.3645,3.4465,3.4197,0.0,0.0,0.0,0.0,0.0,3.2559,3.2641,3.2366,3.3862,3.4505,3.4643,3.5455,3.5823,3.6021,0.0,0.0,0.0,0.0,0.0,0.0,0.0,0.0,0.0,0.0,1.314,1.5131,1.8717,1.8377,1.9246,0.0,0.0,0.0,0.0,0.0,0.0,0.0,0.0,0.0,1.7452,1.8314,2.0531,2.4152,2.642,2.9259,3.2644,3.2737,3.2737,3.2656,3.2228,3.0894,0.0,0.0,0.0,0.0,2.6239,2.6035,0.0,0.0,0.0,0.0,2.4929,2.497,0.0,0.0,0.0,0.0,0.0,0.0,0.0,0.0,2.4418,2.5687,2.7538,0.0,3.1197,2.9213,2.7595,2.5796,0.0,0.0,0.0,0.0,0.0,1.2019,1.2269,1.0911,1.0532,1.3007,0.0,0.0,0.0,0.0,0.0,0.0,0.0,0.0,0.0,0.0,0.0,0.0,0.0,0.0,0.0,4.5662,4.5733,4.4549,4.315,4.0999,3.7895,3.6174,3.52,3.4908,3.4342,3.4845,3.6195,3.5254,0.0,0.0,0.0,0.0,3.2755,3.3131,3.3626,3.4172,3.4554,3.5218,3.5974,3.6117,3.6489,3.6955,0.0,0.0,0.0,0.0,0.0,0.0,0.0,0.0,0.0,0.0,0.0,1.3334,1.5719,1.636,0.0,0.0,0.0,0.0,0.0,0.0,0.0,0.0,0.0,1.7631,1.7886,1.8673,2.1069,2.5244,2.6959,2.9781,3.3554,3.3493,3.3485,3.3466,3.2205,3.0872,0.0,0.0,0.0,0.0,2.6264,0.0,0.0,0.0,0.0,0.0,2.4936,2.4914,0.0,2.4901,2.574,2.6777,0.0,0.0,0.0,0.0,2.2726,2.277,2.2479,2.5104,2.7577,2.6172,2.4531,2.2881,2.1477,0.0,0.0,0.0,0.0,0.0,1.2174,0.0,0.0,0.0,0.0,0.0,0.0,0.0,0.0,0.0,0.0,0.0,0.0,0.0,0.0,0.0,0.0,0.0,0.0,4.4196,4.4235,4.348,4.2652,4.099,3.8441,3.7122,3.6549,3.6792,3.562,3.567,3.6752,3.5592,3.4604,0.0,0.0,0.0,3.347,3.4058,3.4484,3.4703,3.5026,3.5792,3.6659,3.6497,3.7006,3.7711,0.0,0.0,0.0,0.0,0.0,0.0,0.0,0.0,0.0,0.0,0.0,0.0,0.0,0.0,0.0,0.0,0.0,0.0,0.0,0.0,0.0,0.0,0.0,1.795,1.8752,1.9048,2.1509,2.6304,2.7533,3.0067,3.3814,3.4289,3.4347,3.3975,3.2072,3.0765,0.0,0.0,0.0,0.0,2.6571,0.0,0.0,0.0,0.0,0.0,0.0,0.0,0.0,2.5778,2.6517,2.7102,2.6964,0.0,0.0,0.0,0.0,0.0,2.1004,2.4141,2.7234,2.6463,2.4607,2.2671,2.1589,0.0,0.0,0.0,0.0,0.0,0.0,0.0,0.0,0.0,0.0,0.0,0.0,0.0,0.0,0.0,0.0,0.0,0.0,0.0,0.0,0.0,0.0,0.0,0.0,4.2778,4.281,4.2512,4.2319,4.139,3.9559,3.831,3.7877,3.8208,3.6673,3.6241,3.6717,3.549,3.4679,0.0,0.0,0.0,3.388,3.4898,3.5169,3.5087,3.5711,3.6396,3.6964,3.6816,3.7491,3.8258,0.0,0.0,0.0,0.0,0.0,0.0,0.0,0.0,0.0,0.0,0.0,0.0,0.0,0.0,0.0,0.0,0.0,0.0,0.0,0.0,0.0,1.8872,1.7623,1.787,1.9888,1.993,2.1704,2.5317,2.8221,3.0424,3.199,3.4677,3.5666,3.5086,3.3832,3.2117,3.0168,0.0,0.0,2.7228,2.7366,0.0,0.0,0.0,0.0,0.0,0.0,0.0,0.0,2.3759,2.5473,2.7209,2.46,0.0,0.0,0.0,0.0,0.0,2.3448,2.5156,2.5234,2.1244,1.9858,1.9037,0.0,0.0,0.0,0.0,0.0,0.0,0.0,0.0,0.0,0.0,0.0,0.0,0.0,0.0,0.0,0.0,0.0,0.0,0.0,0.0,0.0,0.0,0.0,0.0,0.0,4.1949,4.2053,4.1258,4.1393,4.1225,4.0651,3.9949,3.9138,3.8258,3.723,3.6682,3.6575,3.521,3.4292,0.0,0.0,3.3947,3.3845,3.4515,3.5916,3.7604,3.7577,3.7286,3.6972,3.7536,3.812,3.862,0.0,0.0,0.0,0.0,0.0,0.0,0.0,0.0,0.0,0.0,0.0,0.0,0.0,0.0,0.0,0.0,0.0,0.0,0.0,0.0,0.0,2.0254,1.9094,1.9025,2.0273,2.1017,2.2989,2.6284,2.8791,3.114,3.3413,3.5341,3.5773,3.4857,3.3241,3.178,3.0449,2.8815,2.7993,2.7805,0.0,0.0,0.0,0.0,0.0,0.0,0.0,0.0,0.0,0.0,2.5435,2.7076,2.4866,0.0,0.0,0.0,0.0,0.0,2.1871,2.3013,2.3439,2.1708,2.1806,2.2077,0.0,0.0,0.0,0.0,0.0,0.0,0.0,0.0,0.0,0.0,0.0,0.0,0.0,0.0,0.0,0.0,0.0,0.0,0.0,0.0,0.0,0.0,0.0,0.0,0.0,0.0,4.2288,4.1673,4.2285,4.2342,4.1765,4.1865,4.1106,3.9564,3.8214,3.7411,3.7072,3.572,3.4785,3.4264,0.0,3.4305,3.4606,3.5302,3.6464,3.7812,3.7722,3.7556,3.7552,3.8233,3.8592,3.8828,0.0,0.0,0.0,0.0,0.0,0.0,0.0,0.0,0.0,0.0,0.0,0.0,0.0,0.0,0.0,0.0,0.0,0.0,0.0,0.0,2.0409,2.1292,2.0883,2.0937,2.1581,2.253,2.452,2.756,2.9569,3.2141,3.523,3.5685,3.5395,3.4419,3.2455,3.1238,3.0442,2.8592,2.7936,2.8176,0.0,0.0,0.0,0.0,0.0,0.0,0.0,0.0,0.0,0.0,0.0,0.0,0.0,0.0,0.0,2.3671,2.201,2.1129,2.1362,2.1868,2.2582,0.0,0.0,0.0,0.0,0.0,0.0,0.0,0.0,0.0,0.0,0.0,0.0,0.0,0.0,0.0,0.0,0.0,0.0,0.0,0.0,0.0,0.0,0.0,0.0,0.0,0.0,0.0,0.0,0.0,4.2725,4.2516,4.3393,4.3504,4.273,4.3453,4.285,4.0978,3.9406,3.8383,3.7827,3.6443,3.5451,3.4891,3.4715,3.4764,3.5044,3.6165,3.7136,3.7885,3.7786,3.7844,3.8102,3.878,3.8982,3.9069,0.0,0.0,0.0,0.0,0.0,0.0,0.0,0.0,0.0,0.0,0.0,0.0,0.0,0.0,0.0,0.0,0.0,0.0,0.0,0.0,2.0734,2.0744,2.2223,2.3681,2.5004,2.4762,2.5875,2.8395,3.0847,3.3391,3.5924,3.5344,3.4886,3.442,3.2735,3.1191,2.9807,2.8586,2.7904,2.7666,2.7743,0.0,0.0,0.0,0.0,0.0,0.0,0.0,0.0,0.0,0.0,0.0,0.0,0.0,2.5853,2.5114,2.3324,2.2209,2.5217,2.4522,2.3474,2.5695,0.0,0.0,0.0,0.0,0.0,0.0,0.0,0.0,0.0,0.0,0.0,0.0,0.0,0.0,0.0,0.0,0.0,0.0,0.0,0.0,0.0,0.0,0.0,0.0,0.0,0.0,0.0,0.0,0.0,4.3028,4.4031,4.4183,4.343,4.4288,4.3721,4.1808,4.0754,3.9687,3.8652,3.7079,3.6001,3.5439,3.5368,3.4885,3.4352,3.6523,3.8137,3.9123,3.8567,3.8403,3.8498,3.8872,3.9172,3.9518,0.0,0.0,0.0,0.0,0.0,0.0,0.0,0.0,0.0,0.0,0.0,0.0,0.0,0.0,0.0,0.0,0.0,0.0,0.0,2.0384,2.1085,2.2599,2.3234,2.4757,2.7336,2.728,2.8688,3.1675,3.4205,3.5945,3.6838,3.5589,3.4621,3.3847,3.2091,3.1192,3.0919,2.8979,2.8691,2.9343,2.8219,2.7368,0.0,0.0,0.0,0.0,0.0,0.0,0.0,0.0,2.4742,2.6009,2.4617,2.5997,2.7625,2.4996,2.3313,2.2317,2.2574,2.1607,2.1131,0.0,0.0,0.0,0.0,0.0,0.0,0.0,0.0,0.0,0.0,0.0,0.0,0.0,0.0,0.0,0.0,0.0,0.0,0.0,0.0,0.0,0.0,0.0,0.0,0.0,0.0,0.0,0.0,0.0,0.0,4.4362,4.5169,4.5467,4.5263,4.5885,4.5708,4.469,4.2258,4.052,3.9371,3.7891,3.6867,3.6182,3.5297,3.5566,3.6703,3.8053,3.8897,3.9202,3.8632,3.8567,3.8841,3.8933,3.9582,4.0307,0.0,0.0,0.0,0.0,0.0,0.0,0.0,0.0,0.0,0.0,0.0,0.0,0.0,0.0,0.0,0.0,0.0,0.0,2.073,2.0501,2.1345,2.3583,2.4021,2.5634,2.8547,2.9513,3.1184,3.3657,3.5872,3.6835,3.6495,3.5229,3.4372,3.3809,3.2354,3.2009,3.24,3.0374,3.0004,3.0665,2.8972,2.7741,0.0,0.0,0.0,0.0,0.0,0.0,0.0,0.0,2.436,2.5729,2.4942,2.632,2.7835,2.5996,2.4549,2.3199,2.1795,2.061,2.0165,0.0,0.0,0.0,0.0,0.0,0.0,0.0,0.0,0.0,0.0,0.0,0.0,0.0,0.0,0.0,0.0,0.0,0.0,0.0,0.0,0.0,0.0,0.0,0.0,0.0,0.0,0.0,0.0,0.0,0.0,0.0,4.6513,4.6873,4.6797,4.7353,4.7214,4.6396,4.396,4.2105,4.0848,3.9364,3.8161,3.718,3.6213,3.6636,3.8065,3.8972,3.9148,3.8931,3.8576,3.8663,3.8996,3.9091,3.9835,4.0814,0.0,0.0,0.0,0.0,0.0,0.0,0.0,0.0,0.0,0.0,0.0,0.0,0.0,0.0,0.0,0.0,0.0,0.0,2.1308,2.0949,2.1445,2.3129,2.4627,2.6425,2.8647,3.1333,3.302,3.3718,3.5305,3.5598,3.4604,3.4074,3.4055,3.448,3.3802,3.3752,3.4056,3.2837,3.191,3.1229,2.9902,2.8626,2.7557,0.0,0.0,0.0,0.0,0.0,0.0,0.0,2.4468,2.3893,2.8811,2.8052,2.584,2.8486,2.7324,2.4983,2.4101,2.2625,0.0,0.0,0.0,0.0,0.0,0.0,0.0,0.0,0.0,0.0,0.0,0.0,0.0,0.0,0.0,0.0,0.0,0.0,0.0,0.0,0.0,0.0,0.0,0.0,0.0,0.0,0.0,0.0,0.0,0.0,0.0,0.0,4.8078,4.8268,4.7941,4.8483,4.7995,4.6538,4.5719,4.4624,4.3232,4.1555,3.9933,3.8409,3.8397,3.8208,3.786,3.8868,3.8964,3.8408,3.8408,3.8663,3.8996,3.9219,3.99,4.0976,0.0,0.0,0.0,0.0,0.0,0.0,0.0,0.0,0.0,0.0,0.0,0.0,0.0,0.0,0.0,0.0,0.0,0.0,2.1731,2.1528,2.2024,2.3329,2.4967,2.6511,2.7969,3.1174,3.3446,3.4687,3.5666,3.5645,3.4651,3.4604,3.4585,3.4651,3.4469,3.4727,3.5161,3.3099,3.2285,3.2232,3.0768,2.9517,2.8547,0.0,0.0,0.0,0.0,0.0,0.0,0.0,0.0,0.0,2.6161,2.6914,2.7296,2.6711,2.5862,2.4448,2.1627,2.1393,0.0,0.0,0.0,0.0,0.0,0.0,0.0,0.0,0.0,0.0,0.0,0.0,0.0,0.0,0.0,0.0,0.0,0.0,0.0,0.0,0.0,0.0,0.0,0.0,0.0,0.0,0.0,0.0,0.0,0.0,0.0,0.0,4.9381,5.0027,5.0754,5.0656,5.0058,4.8947,4.7655,4.5748,4.3232,4.0829,3.898,3.7721,3.8196,3.8274,3.8104,3.8949,3.8985,3.8544,3.8464,3.8873,3.9534,3.9377,4.0161,4.1484,0.0,0.0,0.0,0.0,0.0,0.0,0.0,0.0,0.0,0.0,0.0,0.0,0.0,0.0,0.0,0.0,0.0,0.0,0.0,2.1878,2.2309,2.3247,2.4725,2.6526,2.8732,3.0828,3.2557,3.3837,3.4746,3.4813,3.4078,3.4582,3.5241,3.6032,3.6545,3.6977,3.7188,3.552,3.4563,3.4044,3.3242,3.1983,3.0527,0.0,0.0,0.0,0.0,0.0,0.0,0.0,0.0,0.0,2.4815,2.5483,2.6095,2.6045,2.5472,2.4608,2.3397,0.0,0.0,0.0,0.0,0.0,0.0,0.0,0.0,0.0,0.0,0.0,0.0,0.0,0.0,0.0,0.0,0.0,0.0,0.0,0.0,0.0,0.0,0.0,0.0,0.0,0.0,0.0,0.0,0.0,0.0,0.0,0.0,0.0,5.0449,5.1199,5.2046,5.1954,5.1559,5.0894,4.8837,4.6228,4.3141,4.1076,3.8834,3.6741,3.782,3.84,3.8617,3.9076,3.904,3.8678,3.8544,3.9076,3.9845,3.9659,4.0641,4.2227,0.0,0.0,0.6361,0.6388,0.0,0.0,0.0,0.0,0.0,0.0,1.6118,0.0,0.0,0.0,0.0,0.0,0.0,0.0,0.0,0.0,2.2443,2.3084,2.4339,2.6696,3.0352,3.0402,3.0854,3.1761,3.2959,3.3336,3.3038,3.4245,3.595,3.8103,3.9194,3.958,3.9314,3.8654,3.7363,3.5757,3.6233,3.5022,3.289,3.2724,0.0,0.0,0.0,0.0,0.0,0.0,0.0,0.0,2.4413,2.3895,2.3335,2.5815,2.5658,2.5167,0.0,0.0,0.0,0.0,0.0,0.0,0.0,0.0,0.0,0.0,0.0,0.0,0.0,0.0,0.0,0.0,0.0,0.0,0.0,0.0,0.0,0.0,0.0,0.0,0.0,0.0,0.0,0.0,0.0,0.0,0.0,0.0,0.0,5.0417,5.137,5.2113,5.25,5.2634,5.2638,0.0,4.9238,4.6075,4.2975,4.1622,3.9121,3.5949,3.7401,3.8535,3.9288,3.9288,3.9094,3.8788,3.8678,3.9217,4.0059,4.0059,4.1246,4.3033,0.0,0.0,0.7304,0.7318,0.0,0.0,0.0,0.0,0.0,0.0,0.0,0.0,0.0,0.0,0.0,0.0,0.0,0.0,0.0,0.0,2.2933,2.3879,2.5653,2.7856,3.0488,3.0577,3.0606,3.0637,3.1645,3.2164,3.2281,3.4561,3.6596,3.8249,3.8629,3.8373,3.7596,3.5946,3.4397,3.314,3.4343,3.4129,3.309,3.2686,3.0697,0.0,0.0,0.0,0.0,0.0,0.0,0.0,2.3819,2.363,2.3163,2.3369,2.4245,2.5278,0.0,0.0,0.0,0.0,0.0,0.0,0.0,0.0,0.0,0.0,0.0,0.0,0.0,0.0,0.0,0.0,0.0,0.0,0.0,0.0,0.0,0.0,0.0,0.0,0.0,0.0,0.0,0.0,0.0,0.0,0.0,0.0,0.0,5.1372,5.3188,5.4372,5.4766,5.4011,5.3583,0.0,4.829,4.4592,4.2171,3.9841,3.8457,3.786,3.7684,3.8235,3.9288,3.9288,3.9148,3.8952,3.8788,3.9503,4.054,4.024,4.1238,4.2912,0.0,0.0,0.0,0.0,0.0,0.0,0.0,0.0,0.0,0.0,0.0,0.0,0.0,0.0,0.0,0.0,2.3468,2.3603,2.3191,2.3342,2.3768,2.4484,2.6726,2.8418,2.9365,3.0219,3.052,3.0304,3.072,3.1307,0.0,3.463,3.67,3.8239,3.8878,3.8455,3.7144,3.6414,3.5229,3.4018,3.6131,3.6114,3.4894,3.4339,3.1776,2.8233,2.6142,0.0,0.0,0.0,0.0,0.0,0.0,0.0,2.1902,2.2124,2.295,2.4406,0.0,0.0,0.0,0.0,0.0,0.0,0.0,0.0,0.0,0.0,0.0,0.0,0.0,0.0,0.0,0.0,0.0,0.0,0.0,0.0,0.0,0.0,0.0,0.0,0.0,0.0,0.0,0.0,0.0,0.0,0.0,5.0194,5.175,5.296,5.4307,5.5493,5.6523,5.4518,5.3008,5.2073,4.7433,4.3739,4.0943,3.9079,3.8339,3.8512,3.8314,3.8673,3.9395,3.9395,3.9288,3.9148,3.8985,3.9532,4.0435,4.0528,4.1797,4.3739,0.0,0.0,0.0,0.0,0.0,0.0,0.0,0.0,0.0,0.0,0.0,0.0,0.0,0.0,2.2829,0.0,0.0,0.0,2.3125,2.3896,2.4575,2.4968,2.7325,2.852,2.8364,2.9737,3.0402,3.0328,0.0,0.0,0.0,0.0,0.0,3.8415,3.9157,3.858,3.7052,3.7152,3.6286,3.5133,3.7605,3.7577,3.5927,3.54,3.2405,2.8185,2.6163,2.4375,2.3012,2.2963,0.0,0.0,0.0,0.0,2.0514,2.1262,2.1831,2.3231,0.0,0.0,0.0,0.0,0.0,0.0,0.0,0.0,0.0,0.0,0.0,0.0,0.0,0.0,0.0,0.0,0.0,0.0,0.0,0.0,0.0,0.0,0.0,0.0,0.0,0.0,0.0,0.0,0.0,0.0,4.927,5.1152,5.2847,5.4371,5.4973,5.5817,5.6835,5.4193,5.1935,4.9983,4.6288,4.2784,3.9583,3.8936,3.8594,3.855,3.869,3.911,3.9554,3.9554,3.9501,3.9395,3.9202,3.9643,4.0502,4.0983,4.2657,4.4759,0.0,0.0,0.0,0.0,0.0,0.0,0.0,0.0,0.0,0.0,0.0,0.0,0.0,2.3237,2.3914,2.4674,2.4447,2.4281,2.4276,0.0,0.0,2.5244,2.6652,2.8029,2.9291,2.945,2.9794,3.0384,0.0,0.0,0.0,0.0,0.0,3.9429,0.0,0.0,3.6458,3.4306,3.2727,3.1764,3.33,3.346,3.2703,3.2486,3.0472,2.7517,2.5847,2.4081,2.2672,2.3176,2.2915,0.0,0.0,0.0,0.0,1.995,2.0944,0.0,0.0,0.0,0.0,0.0,0.0,0.0,0.0,0.0,0.0,0.0,0.0,0.0,0.0,0.0,0.0,0.0,0.0,0.0,0.0,0.0,0.0,0.0,0.0,0.0,0.0,0.0,0.0,0.0,0.0,0.0,5.238,5.3497,5.4149,5.4409,5.5475,5.5297,5.3803,5.2883,5.1239,4.8846,4.425,4.0828,3.8542,3.9301,3.9292,3.8639,3.8193,3.8704,3.9866,3.9729,3.9729,3.9781,3.9781,4.0514,4.161,4.182,4.3237,4.5123,0.0,0.0,0.0,0.0,0.0,0.0,0.0,0.0,0.0,0.0,0.0,2.2401,2.2266,2.3232,2.4,2.4319,2.4444,2.4559,2.466,2.4861,2.5065,2.5303,2.6823,2.8184,2.9201,2.9783,3.0178,3.0384,0.0,0.0,0.0,3.6893,3.8357,0.0,0.0,0.0,0.0,0.0,0.0,3.2289,3.3067,3.377,3.4149,0.0,3.0766,2.8953,2.6234,2.4081,2.2672,2.3363,2.3123,2.2515,0.0,0.0,0.0,0.0,0.0,0.0,0.0,0.0,0.0,0.0,0.0,0.0,0.0,0.0,0.0,0.0,0.0,0.0,0.0,0.0,0.0,0.0,0.0,0.0,0.0,0.0,0.0,0.0,0.0,0.0,0.0,0.0,0.0,0.0,0.0,4.8733,5.0398,5.2122,5.3082,5.3084,5.3893,5.3724,5.2429,5.1307,4.8966,4.5515,4.2389,4.0244,3.8972,3.8758,3.8783,3.8936,3.9445,3.9904,4.0288,4.0172,4.0121,4.0206,4.0578,4.1068,4.1726,4.3119,4.4529,4.5943,0.0,0.0,0.0,0.0,0.0,0.0,0.0,0.0,0.0,0.0,0.0,2.3178,2.244,0.0,0.0,0.0,2.4509,2.4783,2.4813,2.4981,2.5133,2.5274,2.6668,2.7873,2.8767,2.9602,3.0164,0.0,0.0,0.0,3.8515,3.9502,4.1623,0.0,4.2737,0.0,0.0,0.0,0.0,0.0,0.0,3.4357,0.0,0.0,3.2916,3.1518,2.8329,0.0,0.0,0.0,0.0,0.0,0.0,0.0,0.0,0.0,0.0,0.0,0.0,0.0,0.0,0.0,0.0,0.0,0.0,0.0,0.0,0.0,0.0,0.0,0.0,0.0,0.0,0.0,0.0,0.0,0.0,0.0,0.0,0.0,0.0,0.0,0.0,0.0,0.0,0.0,0.0,4.8416,4.871,5.0565,5.1676,5.1788,5.2007,5.1775,5.099,4.8802,4.591,4.2315,4.0746,3.9718,3.9199,3.8651,3.8719,3.9358,4.0165,4.0642,4.0728,4.0651,4.0603,4.0603,4.137,4.1781,4.2192,4.4387,4.5814,4.69,0.0,0.0,0.0,0.0,0.0,0.0,0.0,0.0,0.0,0.0,0.0,2.4273,2.4185,2.481,2.5235,2.5234,2.5031,2.4888,2.4888,2.508,2.5224,2.5312,2.5599,0.0,2.8212,2.823,0.0,0.0,0.0,0.0,4.1244,4.2781,4.6491,5.1623,4.6834,4.3923,4.2354,0.0,0.0,0.0,0.0,3.3598,0.0,0.0,0.0,0.0,0.0,0.0,0.0,0.0,0.0,0.0,0.0,0.0,0.0,0.0,0.0,0.0,0.0,0.0,0.0,0.0,0.0,0.0,0.0,0.0,0.0,0.0,0.0,0.0,0.0,0.0,0.0,0.0,0.0,0.0,0.0,0.0,0.0,0.0,0.0,0.0,0.0,0.0,0.0,0.0,0.0,4.8783,4.9848,5.0267,5.0638,5.0964,5.0454,4.9712,4.8789,4.4831,4.2014,4.0333,3.9282,3.8689,3.8517,3.9554,4.0006,3.9818,3.9273,3.9832,4.1047,4.0953,4.1012,4.1233,4.2044,4.2762,4.3597,4.546,4.6795,4.7893,0.0,0.0,0.0,0.0,0.0,0.0,0.0,0.0,0.0,0.0,0.0,0.0,0.0,2.4904,2.5284,2.5293,2.5141,2.5032,2.4968,2.5115,2.5224,2.5284,2.597,2.6606,0.0,0.0,0.0,0.0,0.0,3.3532,3.9144,4.1304,4.4586,4.8586,4.6605,4.548,4.4646,3.8763,0.0,0.0,3.5442,3.6094,0.0,0.0,0.0,0.0,0.0,0.0,0.0,0.0,0.0,0.0,0.0,0.0,0.0,0.0,0.0,0.0,0.0,0.0,0.0,0.0,0.0,0.0,0.0,0.0,0.0,0.0,0.0,0.0,0.0,0.0,0.0,0.0,0.0,0.0,0.0,0.0,0.0,0.0,0.0,0.0,0.0,0.0,0.0,0.0,0.0,0.0,4.9009,4.9564,4.9894,4.9955,4.9344,4.8159,4.6382,4.38,4.1989,4.1045,4.0591,4.022,4.0028,4.0274,4.0811,4.1439,4.0613,4.0793,4.1657,4.1471,4.1471,4.1674,4.2537,4.3356,4.4272,4.6363,4.7759,4.8905,0.0,0.0,0.0,0.0,0.0,0.0,0.0,0.0,0.0,0.0,0.0,0.0,0.0,0.0,2.5313,2.5262,2.5176,2.5118,2.5056,2.516,2.5273,2.5322,2.5944,2.6412,2.6729,0.0,0.0,0.0,0.0,0.0,0.0,0.0,4.3694,4.7448,4.5824,0.0,0.0,0.0,0.0,3.9561,0.0,0.0,4.0756,0.0,0.0,0.0,0.0,0.0,0.0,0.0,0.0,0.0,0.0,0.0,0.0,0.0,0.0,0.0,0.0,0.0,0.0,0.0,0.0,0.0,0.0,0.0,0.0,0.0,0.0,0.0,0.0,0.0,0.0,0.0,0.0,0.0,0.0,0.0,0.0,0.0,0.0,0.0,0.0,0.0,0.0,0.0,0.0,0.0,4.8495,4.8678,4.8491,4.7821,4.7352,4.6172,4.4206,4.3,4.211,4.1489,4.1065,4.0941,4.0972,4.052,4.0999,4.2142,4.1725,4.17,4.1995,4.1823,4.1964,4.2498,4.3365,4.4235,4.5241,4.7582,4.8758,4.9528,0.0,0.0,0.0,0.0,0.0,0.0,0.0,0.0,0.0,0.0,0.0,0.0,0.0,0.0,0.0,2.5317,2.5291,2.5313,2.5236,2.5301,2.5361,2.5389,2.5451,2.5886,2.673,2.6699,0.0,0.0,0.0,0.0,0.0,0.0,4.4299,0.0,4.4843,4.6148,5.1245,0.0,4.565,4.4787,0.0,4.1674,4.1049,0.0,0.0,0.0,4.7747,4.5375,0.0,0.0,0.0,0.0,0.0,0.0,0.0,0.0,0.0,0.0,0.0,0.0,0.0,0.0,0.0,0.0,0.0,0.0,0.0,0.0,0.0,0.0,0.0,0.0,0.0,0.0,0.0,0.0,0.0,0.0,0.0,0.0,0.0,0.0,0.0,0.0,0.0,0.0,0.0,4.7756,4.8532,4.7647,4.6324,4.4675,4.4455,4.3761,4.2456,4.239,4.2051,4.1482,4.0614,4.056,4.1199,4.0427,4.0702,4.1759,4.2289,4.2328,4.1987,4.1987,4.2625,4.3709,4.4462,4.5414,4.6633,4.9009,4.9683,4.9865,0.0,0.0,0.0,0.0,0.0,0.0,2.3423,0.0,0.0,0.0,0.0,0.0,0.0,0.0,2.8044,2.7943,2.7943,2.747,2.6288,2.6233,2.5985,2.5331,2.5293,2.5408,2.5639,2.6254,0.0,0.0,0.0,0.0,0.0,0.0,0.0,0.0,4.4966,4.6026,4.6124,4.128,0.0,0.0,4.204,4.3885,0.0,0.0,0.0,0.0,0.0,4.9449,0.0,0.0,4.3196,3.8231,0.0,0.0,0.0,0.0,0.0,0.0,1.8859,0.0,0.0,0.0,0.0,0.0,0.0,0.0,0.0,0.0,0.0,0.0,0.0,0.0,0.0,0.0,0.0,0.0,0.0,0.0,0.0,0.0,0.0,0.0,0.0,0.0,0.0,0.0,4.733,4.7932,4.8677,4.7684,4.6361,4.4781,4.4529,4.4053,4.3439,4.3369,4.2728,4.1667,4.2567,4.2402,4.136,4.2169,4.2627,4.2741,4.2696,4.2649,4.253,4.245,4.2996,4.3953,4.4288,4.5675,4.7643,4.892,5.0359,5.1953,0.0,0.0,2.1597,2.1548,0.0,2.4179,2.4173,2.4393,2.4797,0.0,0.0,0.0,0.0,0.0,3.039,2.9639,2.9245,2.8617,2.7757,2.6995,2.6359,2.5869,2.5444,2.5373,2.5723,2.6244,2.7132,0.0,0.0,0.0,0.0,0.0,0.0,0.0,0.0,0.0,0.0,0.0,0.0,0.0,4.4711,0.0,0.0,5.2821,5.4447,0.0,0.0,0.0,5.2628,5.3057,4.9116,0.0,0.0,0.0,0.0,0.0,0.0,0.0,0.0,0.0,0.0,0.0,0.0,0.0,2.3145,2.3373,2.4166,0.0,0.0,0.0,0.0,0.0,0.0,0.0,0.0,0.0,0.0,0.0,0.0,0.0,0.0,0.0,0.0,0.0,0.0,4.6594,4.7318,4.7705,4.7608,4.6726,4.5588,4.4196,4.4053,4.394,4.3804,4.38,4.3447,4.2789,4.3386,4.329,4.2642,4.2811,4.3057,4.3321,4.3068,4.2918,4.288,4.3312,4.393,4.4696,4.5217,4.6793,4.8849,4.9984,5.1402,5.3069,0.0,0.0,2.231,2.0789,2.3371,2.5847,2.6208,2.4643,2.3927,0.0,0.0,0.0,0.0,0.0,0.0,0.0,3.0098,2.9494,2.9352,2.7816,2.6813,2.6602,2.5877,2.5773,2.6477,2.6642,2.752,2.9102,0.0,0.0,0.0,0.0,0.0,0.0,3.5913,3.6837,0.0,0.0,0.0,4.2266,4.8477,5.0403,0.0,0.0,5.9481,0.0,6.0603,5.9822,5.7659,5.8249,5.3847,0.0,0.0,0.0,0.0,0.0,2.5876,0.0,0.0,0.0,0.0,0.0,0.0,0.0,2.3233,2.1934,2.099,0.0,0.0,0.0,0.0,0.0,0.0,0.0,0.0,0.0,0.0,0.0,0.0,0.0,0.0,0.0,0.0,4.3165,4.4759,4.629,4.7164,4.7043,4.5845,4.5252,4.4412,4.3251,4.3393,4.3566,4.3804,4.3865,4.3986,4.4154,4.3473,4.3511,4.4117,4.2891,4.2779,4.356,4.3321,4.3397,4.3761,4.4526,4.5109,4.5656,4.676,4.8346,5.0231,5.1632,5.2692,5.3708,1.7896,1.9603,2.0893,2.0542,2.3387,2.664,2.9461,2.7222,2.5301,0.0,0.0,0.0,0.0,0.0,0.0,0.0,3.3572,3.2202,3.0427,2.9312,2.8058,2.668,2.6945,2.6861,2.6365,2.7671,2.855,2.8925,0.0,0.0,0.0,0.0,0.0,0.0,3.5134,3.5222,0.0,0.0,0.0,4.2071,4.4536,0.0,5.5135,5.7946,6.0591,6.2763,6.2537,6.2295,6.1722,0.0,5.6043,5.1343,0.0,0.0,0.0,0.0,0.0,0.0,0.0,0.0,0.0,0.0,0.0,0.0,1.581,1.6319,1.8304,0.0,0.0,0.0,0.0,0.0,0.0,0.0,0.0,0.0,0.0,0.0,0.0,0.0,0.0,0.0,0.0,4.1733,4.349,4.4363,4.5679,4.6022,4.507,4.4818,4.4306,4.3499,4.3428,4.3569,4.3804,4.3929,4.3751,4.3258,4.3896,4.3858,4.3295,4.3677,4.3769,4.3495,4.3463,4.4894,4.7203,4.6103,4.5737,4.5957,4.7647,4.9381,5.1083,5.2197,5.3829,5.5554,1.8002,2.0051,2.1525,2.0689,2.3396,2.6873,3.0359,3.0859,0.0,0.0,0.0,0.0,0.0,0.0,0.0,0.0,0.0,0.0,0.0,3.0488,2.911,2.7343,2.7528,2.765,2.7608,2.835,2.9171,3.0068,0.0,0.0,0.0,0.0,0.0,0.0,0.0,0.0,0.0,0.0,3.7987,4.0539,4.7341,0.0,5.8316,6.2113,6.4868,6.6701,6.608,6.5711,6.4867,6.0555,5.7872,0.0,0.0,4.4787,4.2404,0.0,3.4248,3.4045,0.0,0.0,0.0,2.4154,0.0,0.0,0.0,1.6455,1.6707,1.9884,0.0,0.0,0.0,0.0,0.0,0.0,0.0,0.0,0.0,0.0,0.0,0.0,0.0,0.0,0.0,4.0081,4.1674,4.3717,4.4472,4.4777,4.4636,4.3868,4.3428,4.3358,4.3027,4.3164,4.3804,4.3929,4.3893,4.3669,4.4224,4.4215,4.3784,4.4138,4.4177,4.3934,4.4254,4.5477,4.7242,4.7351,4.7387,4.7533,4.8861,5.0192,5.16,5.3348,5.4951,5.6364,1.8359,2.089,2.2678,2.1328,2.4219,2.7655,3.0484,3.3802,0.0,0.0,0.0,0.0,0.0,0.0,0.0,0.0,0.0,0.0,0.0,0.0,2.9674,2.8229,2.8082,2.8288,2.8879,2.889,2.951,3.0667,0.0,0.0,0.0,0.0,0.0,0.0,0.0,0.0,0.0,0.0,0.0,4.1276,0.0,5.6581,5.814,6.494,6.7746,6.806,6.8815,6.8636,6.71,6.1891,0.0,5.8141,5.1754,4.9436,0.0,0.0,0.0,0.0,0.0,0.0,0.0,0.0,0.0,2.2382,0.0,0.0,0.0,1.9968,0.0,0.0,0.0,0.0,0.0,0.0,0.0,0.0,0.0,0.0,0.0,0.0,0.0,0.0,0.0,3.7934,3.9503,4.2934,4.25,4.2548,4.3616,4.2591,4.2223,4.274,4.2441,4.2684,4.3545,4.3855,4.4085,4.4266,4.4411,4.4496,4.4505,4.4354,4.4296,4.4371,4.4856,4.5722,4.6897,4.8336,4.9036,4.9291,5.0075,5.0999,5.2146,5.4499,5.5807,5.6631,1.9296,2.1328,2.3125,2.2852,2.6953,3.0428,3.0838,3.3802,0.0,0.0,0.0,0.0,0.0,0.0,0.0,0.0,0.0,0.0,3.4004,0.0,0.0,2.9041,2.894,2.8875,2.8789,2.938,2.9393,2.881,2.943,0.0,0.0,0.0,0.0,0.0,3.4395,0.0,0.0,0.0,4.2432,0.0,5.3503,5.3079,0.0,6.0188,6.3522,6.3773,6.7778,6.9141,6.8388,0.0,6.1961,6.0103,0.0,5.2304,0.0,0.0,0.0,0.0,0.0,0.0,0.0,0.0,2.9462,0.0,0.0,0.0,2.0209,1.727,0.0,0.0,0.0,0.0,0.0,0.0,0.0,0.0,0.0,0.0,0.0,0.0,0.0,0.0,0.0,0.0,3.6708,4.0669,3.8307,3.798,4.0959,4.0959,4.0955,4.1165,4.1857,4.2359,4.2728,4.3532,4.3992,4.4207,4.4383,4.4496,4.4505,4.4354,4.4354,4.444,4.4228,4.5946,4.8833,4.8885,4.9508,5.0459,5.1174,5.1996,5.3072,5.4897,5.6023,5.6776,2.1288,2.2383,2.3437,2.4453,2.6406,2.9218,3.3238,3.5078,0.0,0.0,0.0,0.0,0.0,0.0,0.0,0.0,0.0,4.2315,0.0,0.0,0.0,0.0,3.0181,2.9985,3.0228,2.9943,2.9547,2.9083,2.9247,0.0,0.0,0.0,0.0,0.0,3.5189,0.0,4.0157,0.0,0.0,0.0,0.0,0.0,0.0,6.3562,6.8593,6.8978,7.0629,7.0933,6.9841,0.0,6.3104,0.0,0.0,0.0,0.0,0.0,0.0,0.0,0.0,0.0,0.0,0.0,0.0,0.0,0.0,0.0,1.9905,0.0,0.0,0.0,0.0,0.0,0.0,0.0,0.0,0.0,0.0,0.0,0.0,0.0,0.0,0.0,0.0,0.0,0.0,0.0,0.0,3.654,3.9765,4.0013,4.0297,4.087,4.0932,4.1392,4.2295,4.2786,4.3361,4.4085,4.4354,4.4496,4.4496,4.444,4.4477,4.4543,4.5365,4.7124,4.9364,4.9197,4.9982,5.1282,5.1715,5.2386,5.3395,5.5634,5.6616,5.7001,2.1362,0.0,0.0,0.0,0.0,2.8043,3.4959,3.6012,0.0,0.0,0.0,0.0,4.0952,4.2597,0.0,0.0,0.0,4.8242,0.0,0.0,3.3324,0.0,3.1729,0.0,0.0,3.0722,2.9901,2.9194,2.9153,0.0,0.0,0.0,0.0,0.0,0.0,3.9662,4.4028,0.0,0.0,4.8961,5.077,5.3187,5.6818,6.6954,7.2013,7.3657,7.3093,7.2507,7.1336,6.6829,6.4576,0.0,6.1126,0.0,0.0,0.0,0.0,0.0,4.7445,0.0,0.0,0.0,0.0,0.0,0.0,0.0,0.0,0.0,0.0,0.0,0.0,0.0,0.0,0.0,0.0,0.0,0.0,0.0,0.0,0.0,0.0,0.0,0.0,0.0,0.0,0.0,0.0,3.3882,3.7851,3.838,3.9017,3.9918,4.001,4.0614,4.1673,4.2421,4.3182,4.3986,4.4296,4.444,4.4496,4.4496,4.4496,4.4646,4.6749,4.8394,4.9551,4.9427,5.0226,5.1682,5.2478,5.3365,5.4382,5.6375,5.7209,5.7522,1.8203,2.0773,0.0,0.0,0.0,0.0,0.0,0.0,0.0,0.0,0.0,0.0,0.0,0.0,0.0,0.0,0.0,5.0494,4.8592,0.0,3.6034,0.0,0.0,0.0,0.0,0.0,3.0354,2.8425,2.8944,0.0,0.0,0.0,0.0,0.0,0.0,4.1576,4.5054,4.9352,5.4863,6.076,6.1027,6.5512,7.162,0.0,7.0039,7.4702,7.3708,0.0,0.0,6.8323,6.6811,0.0,0.0,0.0,0.0,0.0,0.0,0.0,0.0,0.0,0.0,3.7829,0.0,0.0,0.0,0.0,2.2482,0.0,0.0,0.0,0.0,0.0,0.0,0.0,0.0,0.0,0.0,0.0,0.0,0.0,0.0,0.0,0.0,0.0,0.0,0.0,0.0,0.0,3.4352,3.555,3.6468,3.7497,3.9318,4.0368,4.0535,4.2664,4.3865,4.3986,4.4207,4.4354,4.4496,4.4496,4.4496,4.4684,4.7988,4.9506,4.9663,4.9551,5.0228,5.1525,5.3736,5.5404,5.655,5.6965,5.7645,5.858,0.0,0.0,0.0,0.0,0.0,0.0,0.0,3.2578,0.0,0.0,0.0,0.0,0.0,0.0,5.4569,0.0,0.0,5.4369,5.3786,4.5667,0.0,0.0,0.0,3.5218,0.0,0.0,0.0,0.0,0.0,0.0,0.0,0.0,0.0,0.0,0.0,4.241,0.0,0.0,0.0,0.0,0.0,6.776,7.2936,0.0,0.0,7.5095,7.4636,7.444,0.0,7.1322,6.9196,6.7488,6.6153,6.3467,6.072,6.0162,5.9004,0.0,0.0,0.0,4.9809,4.2804,0.0,0.0,0.0,0.0,0.0,0.0,0.0,0.0,0.0,0.0,0.0,0.0,0.0,0.0,0.0,0.0,0.0,0.0,0.0,0.0,0.0,0.0,0.0,0.0,0.0,0.0,0.0,3.3599,3.4619,3.5914,3.7381,3.8536,3.9301,4.0215,4.1809,4.3986,4.4296,4.444,4.4496,4.4496,4.5881,4.8378,4.937,4.9862,5.0009,5.0629,5.2115,5.402,5.3783,5.5177,5.7279,5.7693,5.8116,5.8906,1.8328,0.0,0.0,0.0,0.0,0.0,0.0,0.0,0.0,0.0,4.2204,0.0,4.6658,0.0,5.8117,0.0,5.8168,5.713,5.4633,4.9342,0.0,4.5209,4.1179,0.0,0.0,0.0,0.0,0.0,0.0,3.2465,0.0,0.0,0.0,0.0,0.0,0.0,0.0,0.0,5.7929,0.0,0.0,7.0716,0.0,0.0,7.5389,7.5356,0.0,7.5056,7.467,7.2924,7.1098,6.9498,6.8692,6.5786,6.2626,6.247,6.0711,5.8353,5.6295,5.4237,0.0,4.5183,3.8122,0.0,2.45,0.0,0.0,0.0,0.0,0.0,0.0,0.0,0.0,0.0,0.0,0.0,0.0,1.1213,0.0,0.0,0.0,0.0,0.0,0.0,0.0,0.0,0.0,0.0,0.0,0.0,3.2391,3.3785,3.6362,3.8339,3.9663,4.0511,4.1965,4.3986,4.4354,4.4496,4.4496,4.4551,4.6315,4.9372,4.9822,5.0063,5.0228,5.1509,5.3084,5.474,5.4808,5.614,5.7987,5.7992,5.8432,5.9393,0.0,0.0,0.0,0.0,2.0374,0.0,0.0,0.0,3.6186,0.0,4.8275,5.6541,5.6736,5.9527,6.1419,6.1419,6.1662,0.0,5.2152,5.1454,0.0,0.0,4.559,4.4637,4.374,0.0,0.0,0.0,0.0,0.0,0.0,0.0,0.0,0.0,4.0613,0.0,4.9029,5.7794,6.4058,6.8495,7.2901,7.4612,7.4612,7.5418,7.5666,7.5535,7.5535,7.5245,7.4714,7.3042,7.2356,7.1855,7.0228,6.8447,6.6628,6.5009,6.2711,6.0116,5.7528,5.558,5.251,4.5335,0.0,0.0,0.0,0.0,3.2717,0.0,0.0,0.0,0.0,0.0,0.0,0.0,0.0,0.0,0.0,0.0,0.0,0.0,0.0,0.0,0.0,0.0,0.0,0.0,0.0,0.0,0.0,0.0,2.9654,3.144,3.6157,3.9571,4.1397,4.3334,4.4207,4.4017,4.4354,4.4496,4.4496,4.4632,4.5773,4.7753,4.9472,5.0197,5.0316,5.2093,5.306,5.3772,5.6714,5.823,5.8727,5.7987,5.8639,6.0037,2.0508,1.8944,1.7534,0.0,1.8821,2.2928,0.0,0.0,0.0,0.0,5.2727,5.7477,6.001,6.1042,6.1567,6.1567,6.3886,0.0,0.0,0.0,0.0,5.3652,5.0451,4.8487,4.8243,4.4667,0.0,4.0616,0.0,0.0,3.6839,0.0,0.0,0.0,0.0,0.0,4.84,5.5811,6.3652,7.143,7.5091,7.5841,0.0,0.0,7.5947,7.5826,7.5633,7.5042,7.4214,7.3076,7.2168,7.1295,7.0079,6.8486,6.686,6.5918,6.3728,6.1353,5.9568,5.6889,5.3849,5.0597,4.5388,4.0314,0.0,0.0,0.0,0.0,0.0,0.0,0.0,0.0,0.0,0.0,0.0,0.0,0.0,0.0,0.0,0.0,0.0,0.0,0.0,0.0,0.0,0.0,0.0,0.0,0.0,0.0,0.0,3.2481,3.5751,3.8707,4.1512,4.3394,4.4325,4.4383,4.444,4.4551,4.4659,4.4685,4.6026,4.8272,4.8777,4.9472,5.0459,5.2188,5.2977,5.3422,5.6269,5.8515,6.0085,5.9674,5.9756,6.0089,2.1597,0.0,0.0,1.9682,0.0,0.0,2.7969,0.0,0.0,5.2117,5.6659,0.0,6.1383,6.1607,6.221,6.3733,6.5644,0.0,0.0,0.0,0.0,5.5288,5.3643,5.2388,5.1639,4.8876,0.0,4.4333,0.0,0.0,3.8457,0.0,0.0,0.0,0.0,4.3302,0.0,5.7224,6.5846,7.3176,7.621,0.0,0.0,7.6584,7.6492,7.6062,7.5887,7.513,7.4052,7.3143,7.2126,7.1142,7.0157,6.8679,6.7202,6.6785,6.4623,6.2041,6.0405,5.778,5.4903,5.2281,4.7909,4.3705,4.1605,3.9352,3.7467,0.0,0.0,0.0,0.0,0.0,0.0,0.0,0.0,0.0,0.0,0.0,0.0,0.0,0.0,0.0,0.0,0.0,0.0,0.0,0.0,0.0,0.0,0.0,0.0,3.1111,3.4304,3.7588,4.1045,4.2528,4.3643,4.4411,4.4524,4.4605,4.4648,4.4738,4.5975,4.8119,4.8143,4.8999,5.0572,5.2257,5.297,5.3299,5.6381,5.8859,6.0649,6.048,6.0342,6.0197,0.0,0.0,0.0,0.0,0.0,0.0,0.0,3.4173,0.0,5.2514,0.0,5.9162,6.1344,6.1616,6.3023,6.6517,0.0,6.5691,6.4606,6.2695,5.9503,5.4818,5.5978,5.5891,5.41,5.3049,0.0,0.0,0.0,0.0,0.0,0.0,0.0,0.0,0.0,0.0,0.0,6.0172,6.8578,0.0,7.6417,7.7576,7.7524,7.7601,7.7112,7.6379,7.621,7.5264,7.4002,7.3242,7.2192,7.1064,7.0267,6.8899,6.7531,6.7531,6.5275,6.2399,6.0677,5.8339,5.5483,5.204,4.9928,4.7844,4.4587,4.3139,4.2259,4.1304,3.9301,3.8,0.0,0.0,0.0,0.0,0.0,0.0,0.0,0.0,0.0,0.0,0.0,0.0,0.0,0.0,0.0,0.0,0.0,0.0,0.0,0.0,0.0,2.8502,3.2361,3.6259,4.0093,0.0,4.2687,4.4195,4.453,4.4712,4.4648,4.4777,4.5797,4.7448,4.7655,4.8723,5.0483,5.2286,5.3207,5.382,5.6928,5.91,6.057,6.0685,6.0585,6.0398,0.0,0.0,0.0,0.0,0.0,3.0419,4.4656,4.7879,4.6512,4.0429,4.0116,4.5877,6.0058,6.1634,6.3076,6.6483,6.4219,0.0,0.0,0.0,0.0,5.8918,5.8646,5.7429,5.5013,5.3385,5.0899,0.0,0.0,0.0,0.0,0.0,0.0,0.0,0.0,0.0,5.2333,6.1074,0.0,7.0838,7.5633,7.765,7.776,7.776,7.7643,7.7411,7.6692,7.5183,7.3475,7.3176,7.1942,7.051,7.0258,6.9008,6.7673,6.7807,6.5372,6.2483,6.1707,5.8425,5.4762,5.2759,5.0437,4.8067,4.594,4.4766,4.3847,4.295,4.1863,4.034,3.8018,0.0,0.0,0.0,0.0,0.0,0.0,0.0,0.0,0.0,0.0,0.0,0.0,0.0,0.0,0.0,0.0,0.0,0.0,0.0,0.0,0.0,3.0607,0.0,0.0,0.0,4.2441,4.3461,4.4334,4.4815,4.4827,4.501,4.5635,4.6679,4.7559,4.8544,4.968,5.2162,5.4413,5.6412,5.7758,5.8873,5.9796,6.0527,6.0734,6.1069,0.0,0.0,0.0,0.0,0.0,0.0,0.0,5.2902,0.0,4.9765,4.9332,5.2482,6.0749,6.3243,6.4999,6.6678,6.5312,6.4297,6.4179,6.2545,6.1112,5.9958,5.9317,0.0,5.6541,5.5264,5.3143,5.0137,0.0,0.0,0.0,0.0,0.0,0.0,0.0,4.5224,0.0,0.0,0.0,6.8858,7.3727,7.6514,7.7844,7.8314,7.8198,7.781,7.7384,7.5956,7.4218,7.3553,7.2349,7.1083,7.0501,6.9208,6.7865,6.7928,6.555,6.2672,6.1437,5.8907,5.5908,5.321,5.1277,4.9511,4.771,4.6323,4.524,4.4783,4.3691,4.1518,3.7423,3.2383,0.0,0.0,0.0,0.0,0.0,0.0,0.0,0.0,0.0,0.0,0.0,0.0,0.0,0.0,0.0,0.0,0.0,0.0,0.0,0.0,0.0,0.0,0.0,0.0,0.0,4.3326,4.4322,4.4865,4.4962,4.5042,4.5611,4.656,4.7545,4.8508,4.9548,5.2144,5.4434,5.6395,5.728,5.8127,5.8973,5.9819,6.0396,6.0988,0.0,2.3769,0.0,0.0,2.3543,0.0,4.8677,5.43,5.7832,6.125,6.1704,6.1697,6.1718,6.475,6.6795,6.6795,6.6131,6.457,6.1876,6.166,6.1049,5.9771,5.9365,5.8724,5.7711,5.7251,5.5567,0.0,0.0,0.0,0.0,0.0,0.0,0.0,0.0,0.0,0.0,0.0,6.1257,6.6838,7.1665,7.5066,7.7401,7.8607,7.861,7.7932,7.7932,7.6883,7.5348,7.4253,7.3058,7.1871,7.1129,6.9574,6.808,6.808,6.5761,6.2785,6.0992,5.914,5.6843,5.3453,5.1939,5.0833,4.9029,4.7477,4.6367,4.6164,4.4726,4.2314,3.8267,3.4279,0.0,0.0,0.0,0.0,0.0,0.0,0.0,0.0,0.0,0.0,0.0,0.0,0.0,0.0,0.0,0.0,0.0,0.0,0.0,0.0,0.0,3.1964,3.5923,0.0,4.205,4.3088,4.4272,4.4889,4.5033,4.5109,4.56,4.6393,4.7376,4.8606,5.0087,5.2318,5.4203,5.578,5.6665,5.7456,5.8187,5.9088,5.9858,6.0496,0.0,0.0,0.0,0.0,0.0,0.0,0.0,5.4266,5.7832,6.125,6.1704,6.1697,6.1718,6.475,6.6795,6.6795,6.3984,6.2032,6.172,6.1676,6.0912,5.9161,5.9542,5.9152,5.7711,5.8398,5.6783,0.0,0.0,0.0,0.0,0.0,0.0,0.0,0.0,0.0,0.0,5.4951,5.9604,6.4128,7.0103,7.3728,7.5798,7.8202,7.8651,7.799,7.799,7.7389,7.64,7.5449,7.3883,7.2328,7.2118,7.0315,6.829,6.8345,6.5816,6.2651,6.1045,5.8654,5.5984,5.3274,5.1939,5.0833,4.9029,4.7894,4.7049,4.6278,4.4562,4.2943,4.1996,3.9123,3.4399,0.0,0.0,0.0,0.0,0.0,0.0,0.0,0.0,0.0,0.0,0.0,0.0,0.0,0.0,0.0,0.0,0.0,0.0,2.0767,0.0,2.8989,3.1654,3.7617,4.1188,4.2322,4.4045,4.4986,4.5186,4.5311,4.543,4.5587,4.657,4.8797,5.1741,5.2779,5.4203,5.578,5.6665,5.7093,5.7384,5.8649,5.9249,5.9485,0.0,0.0,0.0,0.0,0.0,0.0,0.0,5.2526,5.4669,5.8186,6.043,6.1715,6.1719,6.2915,6.375,6.375,6.2501,6.172,6.172,6.172,6.1342,6.0603,6.0126,5.9707,5.9248,5.9108,5.7694,0.0,0.0,0.0,0.0,0.0,0.0,0.0,0.0,4.8629,5.1834,5.5506,5.9427,6.354,6.7687,7.1402,7.4668,7.6785,7.8049,7.867,7.8145,7.7757,7.735,7.6458,7.5193,7.3828,7.2701,7.0863,6.9078,6.8552,6.5897,6.2758,6.1071,5.8578,5.587,5.3236,5.1912,5.0892,4.9662,4.8655,4.7796,4.715,4.5071,4.3102,4.2205,3.8803,3.5186,0.0,0.0,0.0,0.0,0.0,0.0,0.0,0.0,0.0,0.0,0.0,0.0,0.0,0.0,0.0,0.0,0.0,0.0,1.7731,0.0,2.8402,3.1144,3.7285,4.1231,4.2875,4.4234,4.5033,4.5273,4.5438,4.5515,4.5592,4.7029,4.924,5.1972,5.2856,5.4203,5.5742,5.6088,5.6648,5.7285,5.7212,5.8424,6.0211,3.1114,0.0,3.5681,0.0,4.466,4.7467,5.085,5.1356,5.2246,5.4728,5.7185,5.9451,6.1481,6.1697,6.172,6.172,6.172,6.172,6.172,6.1666,6.1634,6.1607,6.0846,0.0,6.0317,5.9981,5.9105,5.766,5.4115,0.0,0.0,0.0,0.0,0.0,4.9213,5.1438,5.409,5.6725,5.9781,6.3166,6.6121,6.9501,7.2977,7.5059,7.6769,7.8049,7.7718,7.7619,7.7559,7.6923,7.6012,7.4917,7.3373,7.1309,6.9282,6.836,6.5756,6.2734,6.0764,5.8386,5.587,5.3236,5.1912,5.1006,5.0134,4.9226,4.8213,4.712,4.5338,4.3433,4.1601,3.8728,3.6786,3.7338,0.0,0.0,0.0,0.0,0.0,0.0,0.0,2.6303,2.4366,0.0,0.0,0.0,0.0,0.0,0.0,0.0,0.0,0.0,0.0,0.0,0.0,3.6833,4.0896,4.2886,4.4247,4.5057,4.5339,4.5514,4.5603,4.5714,4.7201,4.9125,5.1299,5.2664,5.4049,5.5378,5.5588,5.6225,5.6845,5.6115,5.7349,5.9524,3.0801,3.6306,4.2084,4.5636,4.6261,4.7416,5.0789,5.1359,5.1427,5.1449,5.1483,5.4108,6.0978,6.172,6.172,6.172,6.172,6.172,6.172,6.1658,6.1607,0.0,0.0,6.1198,6.0317,6.1212,6.1225,6.036,0.0,0.0,5.2537,0.0,4.9535,5.1217,5.282,5.4397,5.6018,5.8526,6.0564,6.2436,6.5874,6.842,7.0346,7.3005,7.4634,7.556,7.6415,7.676,7.6777,7.6743,7.6107,7.5236,7.4284,7.1584,6.8536,6.7579,6.5307,6.254,6.0009,5.7939,5.587,5.3236,5.1939,5.1049,5.0214,4.9429,4.8186,4.5757,4.5186,4.4075,4.0577,4.0078,4.0234,4.0272,0.0,0.0,0.0,0.0,0.0,0.0,2.7606,2.512,2.355,0.0,0.0,0.0,0.0,0.0,0.0,0.0,0.0,1.8401,2.3361,0.0,2.9709,3.5837,3.9919,4.1927,4.3932,4.5065,4.54,4.555,4.5637,4.5758,4.6835,4.8143,4.9738,5.2184,5.3743,5.4592,5.5378,5.5787,5.5904,5.5766,5.5847,5.6553,3.7828,4.1498,4.4972,4.6105,4.6275,4.7372,5.0774,5.1357,5.1402,5.1404,5.1389,5.3132,5.7738,5.8207,5.8207,0.0,6.0314,6.1612,0.0,6.1625,6.1586,6.1612,6.1588,6.1485,6.1251,6.1537,6.1275,6.0383,0.0,0.0,0.0,5.3494,5.4237,5.6433,5.7521,5.8839,6.0365,6.1833,6.3033,6.411,6.5894,6.7985,7.0253,7.1785,7.3993,7.6259,7.5983,7.6638,7.7603,7.7019,7.5876,7.4616,7.4239,7.2037,6.9275,6.7802,6.5427,6.2743,6.0119,5.768,5.5312,5.3288,5.1662,5.0456,5.0152,4.9158,4.775,4.5742,4.4115,4.2641,4.1492,4.0635,3.9948,3.9433,3.8727,0.0,0.0,0.0,0.0,0.0,0.0,2.778,0.0,2.3108,0.0,0.0,0.0,0.0,0.0,0.0,0.0,0.0,2.4706,0.0,3.0638,3.6178,3.9733,4.1301,4.3641,4.5042,4.555,4.5586,4.5671,4.5849,4.6931,4.821,4.9658,5.1606,5.2935,5.3822,5.5287,5.5885,5.5885,5.5904,5.5959,5.6476,4.2972,4.4682,4.6203,4.6203,4.619,4.7345,5.0774,5.1371,5.1406,5.1382,5.1385,5.2716,5.6216,5.6606,0.0,5.6575,5.9654,6.1607,6.1607,6.1607,6.1612,6.1647,6.2251,6.2317,6.1693,0.0,0.0,6.1369,6.0271,5.9207,5.8136,5.8048,5.8861,6.0389,6.1187,6.2065,6.3003,6.3912,6.4692,6.5432,6.6032,6.7832,7.0157,7.0502,7.2608,7.53,7.5113,7.5974,7.7131,7.6611,7.5468,7.4247,7.3868,7.1853,6.9382,6.789,6.5561,6.2866,6.0234,5.7812,5.5562,5.3819,5.2064,5.0656,5.0302,4.9045,4.766,4.655,4.4729,4.314,4.2775,4.2087,4.1151,4.0043,3.9681,3.8861,3.6996,0.0,0.0,0.0,0.0,0.0,0.0,2.6448,2.5649,0.0,0.0,0.0,0.0,0.0,0.0,2.0256,2.6644,0.0,3.2466,3.6528,3.9554,4.1454,4.3793,4.5154,4.5603,4.5671,4.5712,4.5877,4.7255,4.8292,4.9208,5.1331,5.2527,5.3165,5.5094,5.5847,5.5923,5.5995,5.6012,5.6321,4.6406,4.6162,0.0,0.0,4.6122,0.0,5.0774,5.1341,5.1396,5.1389,5.1402,5.2732,5.622,5.6606,5.6665,5.6823,0.0,0.0,0.0,6.185,6.1999,6.207,6.35,6.355,6.1933,6.2686,6.3086,6.3086,6.3086,6.3081,6.3065,6.3013,6.3038,6.3179,6.3886,6.4271,6.4414,6.5086,6.5824,6.6489,6.6528,6.7966,7.006,6.9428,7.0766,7.3094,7.3951,7.4872,7.5674,7.556,7.5028,7.4223,7.3327,7.1251,6.8978,6.792,6.5683,6.2954,6.0341,5.8264,5.6391,5.4685,5.2891,5.1461,5.0747,4.9192,4.7907,4.7893,4.6531,4.5053,4.4172,4.4039,4.3484,4.1858,4.1475,4.0559,3.8061,0.0,0.0,0.0,0.0,0.0,0.0,2.9586,3.0825,0.0,0.0,0.0,0.0,0.0,2.129,2.5046,2.9119,3.2447,3.4885,3.6943,3.9388,4.2184,4.4287,4.5419,4.562,4.5742,4.58,4.5877,4.7661,4.8392,4.8562,5.1211,5.2331,5.2584,5.4592,5.5461,5.5664,5.5952,5.6029,5.6029,0.0,0.0,4.5997,4.5997,4.6122,4.7345,5.0774,5.1341,5.1391,5.1406,5.1406,5.2732,5.622,5.6606,5.7635,6.0174,6.114,6.1607,6.1607,6.4092,6.5594,6.5664,6.4799,6.4125,6.3692,6.3876,6.3984,6.3984,6.3984,6.3979,6.3923,6.3954,6.4614,6.5822,6.6042,6.6828,6.7976,6.8199,6.8397,6.8527,6.8486,6.925,7.0377,7.0251,7.1394,7.308,7.3325,7.441,7.5659,7.4987,7.5065,7.5182,7.3651,7.1819,6.9918,6.8224,6.5902,6.3219,6.0536,5.851,5.6695,5.4939,5.3164,5.1774,5.1523,4.97,4.803,4.8049,4.6204,4.4477,4.4211,4.3655,4.3079,4.2584,4.2008,4.0952,3.9023,3.8108,0.0,0.0,3.3113,3.301,3.111,3.2505,3.2456,0.0,0.0,0.0,0.0,2.6523,2.695,2.7707,3.1756,3.4556,3.5936,3.7941,4.0177,4.2654,4.4614,4.562,4.5757,4.5786,4.58,4.5877,4.7632,4.8624,4.9111,5.0619,5.1261,5.1338,5.1846,5.2056,5.243,5.5186,5.6238,5.6238,5.1296,4.9732,4.7861,4.6268,4.6122,4.7345,5.0774,5.1341,5.1389,5.1406,5.2773,5.449,5.6376,5.6606,5.7947,6.1305,6.1607,6.227,6.3828,6.5775,6.6872,6.6906,6.6758,6.5935,6.4333,6.5095,6.5468,6.5429,6.5819,6.6214,6.6566,6.6625,6.7096,6.7945,6.7961,6.8483,6.9272,6.9294,6.9499,6.9829,6.9406,7.0006,7.1044,7.0655,7.1354,7.2617,7.3007,7.3778,7.4554,7.4102,7.425,7.4312,7.2548,7.1113,6.9701,6.7848,6.57,6.3439,6.1174,5.9215,5.7309,5.5189,5.359,5.2415,5.205,5.0279,4.8739,4.8718,4.7332,4.595,4.5494,4.5378,4.4802,4.3192,4.2607,4.1463,3.8984,3.7681,0.0,3.4194,3.4885,3.5267,3.4559,3.5837,3.5647,3.3082,3.2478,0.0,2.9068,3.0169,3.0562,2.9929,3.3213,3.556,3.6805,3.851,4.0099,4.1508,4.4307,4.6535,4.8082,4.6496,4.6225,4.7076,4.8817,4.9397,4.9296,5.0442,5.1231,5.1648,5.1115,5.192,5.3621,5.5566,5.6291,5.6291,5.1296,5.1259,5.0292,4.7289,4.69,4.793,5.0852,5.181,5.2166,5.2185,5.4765,5.6795,5.7313,5.7387,5.8538,6.1361,6.2102,6.3613,6.6517,6.6813,6.691,6.6917,6.8544,6.8124,6.5273,6.6435,6.7121,6.7199,6.7815,6.8566,6.9403,6.9406,6.9489,6.9609,6.9593,6.965,6.9796,6.9731,7.0138,7.0745,6.9977,7.0531,7.1716,7.0976,7.1204,7.2023,7.2734,7.3189,7.3374,7.3153,7.3342,7.3275,7.1394,7.0239,6.9224,6.7282,6.5436,6.3597,6.1666,5.97,5.7721,5.547,5.4216,5.3365,5.2691,5.1078,4.9732,4.9727,4.8921,4.7983,4.7237,4.7681,4.7083,4.3833,4.3196,4.1956,3.8595,0.0,3.5974,3.5881,3.6419,3.7091,3.7802,3.8997,3.9164,3.7713,3.6578,3.5236,3.3598,3.3431,3.3017,3.2158,3.426,3.625,3.7931,3.9177,4.0033,4.0507,4.402,4.7383,5.0442,4.7516,4.7013,4.8484,5.0031,5.0124,4.9311,5.0457,5.161,5.2637,5.1973,5.3582,5.6291,5.6291,5.6304,5.6329,5.1281,5.1312,5.1122,5.0487,5.0481,5.0696,5.1203,5.3877,5.5786,5.5794,5.6245,5.7693,6.0597,6.09,6.113,6.1627,6.4325,6.6174,6.6673,6.6813,6.691,6.6912,6.8518,6.9397,6.9375,6.8476,6.832,6.8984,6.8457,6.8605,6.9403,6.9451,6.9843,7.0508,7.0507,7.0927,7.1597,7.1591,7.1669,7.178,7.1589,7.1642,7.1876,7.1741,7.1798,7.1979,7.2127,7.3147,7.4162,7.2678,7.3654,7.506,7.2557,7.119,7.0015,6.7514,6.5527,6.3613,6.1067,5.8493,5.6446,5.6024,5.5249,5.4604,5.4498,5.2545,5.0763,5.0773,4.9459,4.8221,4.8111,4.8166,4.7394,4.4646,4.3722,4.2148,3.8662,0.0,3.7804,3.7641,3.8837,3.991,4.0539,4.0753,4.0745,4.0495,3.829,3.6528,3.5522,3.5348,3.5179,3.4958,3.6012,3.7804,4.0427,4.0939,4.1851,4.312,4.4822,4.6728,4.8778,4.8294,4.8205,4.8528,4.9317,4.9524,4.9446,5.0516,5.1678,5.287,5.4724,5.5812,5.6291,5.6291,5.6364,5.6485,5.3736,5.2606,5.1287,5.1225,5.1259,5.132,5.132,5.4306,5.6606,5.6606,5.6595,5.8632,6.3901,6.447,6.4062,6.3164,6.5351,6.7585,6.9436,6.9609,6.964,6.9663,7.0392,7.0722,7.0507,6.9414,6.9258,7.0117,6.9726,6.9998,7.0796,7.0817,7.1289,7.2109,7.2109,7.2303,7.2687,7.2717,7.2432,7.1987,7.1969,7.1963,7.1963,7.1924,7.1924,7.2065,7.2539,7.2912,7.3162,7.2811,7.3201,7.3437,7.1289,7.0312,6.941,6.6344,6.4184,6.2387,6.065,5.9293,5.8129,5.7146,5.6291,5.5514,5.5048,5.3676,5.246,5.2419,5.1354,5.0287,4.9776,4.9714,4.8879,4.6303,4.4497,0.0,0.0,3.9209,3.8616,3.9354,4.0745,4.1934,4.2633,4.2617,4.2147,4.1215,3.958,3.804,3.6663,3.6558,3.6902,3.7716,3.8702,3.9876,4.1321,4.2807,4.3937,4.4746,4.5362,4.6461,4.7927,4.7998,4.8038,4.8128,4.8994,4.9382,4.9498,5.0596,5.1707,5.2898,5.4283,5.545,5.6304,5.6375,5.6466,5.6503,5.5957,5.4359,5.2503,5.2391,5.2466,5.2528,5.2528,5.4853,5.6879,5.7699,5.8509,6.0859,6.5742,6.6594,6.6301,6.5038,6.6795,6.913,7.1822,7.2365,7.2404,7.2014,7.1997,7.1694,7.1013,7.0156,7.0117,7.1013,7.0796,7.1161,7.202,7.2225,7.2656,7.332,7.3514,7.3474,7.3319,7.3514,7.3114,7.2319,7.2505,7.2617,7.2573,7.232,7.2242,7.2372,7.3048,7.2865,7.2381,7.3056,7.2861,7.2014,7.0257,6.9562,6.8787,6.578,6.3433,6.1568,6.0526,6.0087,5.962,5.8276,5.7448,5.6708,5.5819,5.4968,5.4271,5.4,5.3247,5.239,5.1648,5.1377,5.0284,4.7391,0.0,0.0,0.0,4.011,3.9636,4.1403,4.2694,4.3771,4.4556,4.4505,4.371,4.2015,4.1022,3.9743,3.7986,3.7829,3.8577,4.0226,4.1127,4.1751,4.2139,4.3993,4.5151,4.5603,4.5688,4.6303,4.7439,4.7262,4.7456,4.7959,4.8812,4.9329,4.9601,5.0662,5.1787,5.2861,5.3003,5.4388,5.6304,5.6427,5.6519,5.6535,5.6464,5.6269,5.6086,5.5967,5.6046,5.6113,5.6113,5.6374,5.7738,6.09,6.4135,6.5703,6.4609,6.5937,6.6832,6.6722,6.9728,7.1712,7.1997,7.3432,7.3627,7.2071,7.1987,7.1948,7.1914,7.105,7.1011,7.1914,7.1089,7.1134,7.2002,7.2849,7.3242,7.3359,7.4158,7.4062,7.3364,7.4177,7.3984,7.328,7.4093,7.4392,7.434,7.3511,7.3202,7.3203,7.3278,7.3275,7.3192,7.3286,7.3281,7.289,7.1134,7.004,6.9039,6.7147,6.4795,6.2452,6.0822,5.9794,5.917,5.9014,5.8936,5.8655,5.7697,5.6844,5.595,5.518,5.4245,5.3546,5.3441,5.2783,5.0918,4.6752,0.0,0.0,4.0344,4.036,4.1606,4.4021,4.4932,4.5722,4.6512,4.6472,4.5684,4.4,4.2962,4.166,3.9964,3.9785,4.0501,4.2253,4.2322,4.2784,4.3732,4.3807,4.4422,4.5603,4.5727,4.6292,4.721,4.6397,4.6887,4.8463,4.8577,4.9104,4.992,5.0841,5.1851,5.2783,5.1773,5.3378,5.6304,5.6427,5.6549,5.6602,5.6511,5.6503,5.6494,5.6417,5.6485,5.6853,5.7905,5.8967,6.0567,6.3008,6.447,6.5461,6.5859,6.6484,6.7107,6.7659,6.9064,7.0494,7.1908,7.3252,7.3861,7.3549,7.3236,7.2729,7.2026,7.1694,7.1666,7.1986,7.2197,7.2495,7.2846,7.3686,7.4403,7.4917,7.5259,7.5204,7.4915,7.5287,7.491,7.4136,7.4453,7.4606,7.4566,7.4218,7.4101,7.4179,7.4709,7.4184,7.3309,7.3849,7.3328,7.2112,7.0395,6.9634,6.8835,6.6088,6.414,6.2807,6.2169,6.1359,6.0542,6.0035,5.9918,5.9684,5.878,5.8289,5.7922,5.7594,5.6378,5.5364,5.5353,5.4214,5.2552,5.0442,0.0,4.6597,4.4729,4.4229,4.4366,4.5247,4.6484,4.7349,4.7568,4.7511,4.6762,4.5074,4.4594,4.3616,4.1798,4.2091,4.2617,4.3368,4.3907,4.4391,4.4781,4.4767,4.5053,4.5671,4.5765,4.6303,4.7171,4.6887,4.7416,4.8592,4.9154,4.9604,4.9992,5.0848,5.2103,5.3319,5.1797,5.3347,5.6427,5.651,5.6587,5.6606,5.7182,5.7719,5.81,5.81,5.7806,5.7883,5.8841,6.0465,6.218,6.3818,6.4648,6.5442,6.64,6.7068,6.7656,6.8148,6.9085,7.0345,7.1913,7.3416,7.4251,7.4251,7.3549,7.3158,7.308,7.2729,7.2475,7.2417,7.3017,7.3315,7.3309,7.4173,7.5043,7.588,7.6154,7.6102,7.5891,7.6164,7.5785,7.4982,7.5264,7.5388,7.535,7.5073,7.4995,7.5072,7.5668,7.4701,7.3321,7.4211,7.3345,7.162,6.9865,6.899,6.8117,6.5762,6.4482,6.3785,6.3788,6.2917,6.191,6.1348,6.103,6.06,5.9697,5.9456,5.9372,5.9077,5.7836,5.6787,5.6777,5.5356,5.3847,5.2762,5.065,4.8833,4.7938,4.7019,4.6585,4.7016,4.8029,4.8684,4.8617,4.8526,4.7912,4.6511,4.6108,4.5151,4.3272,4.3382,4.3645,4.395,4.4569,4.5092,4.5438,4.5475,4.5565,4.575,4.6081,4.6602,4.7249,4.7559,4.8177,4.9054,4.9642,5.0042,5.0353,5.0957,5.1891,5.298,5.2891,5.4363,5.6549,5.6592,5.6606,5.6606,5.8702,6.0408,6.1607,6.1607,6.0676,5.9708,5.9083,6.0477,6.2024,6.3247,6.5379,6.6483,6.5702,6.7399,6.851,6.8242,7.0547,7.199,7.202,7.415,7.4915,7.3783,7.2651,7.308,7.5345,7.429,7.3588,7.3315,7.3315,7.3315,7.3354,7.4212,7.5032,7.5852,7.6711,7.6633,7.5852,7.6711,7.6594,7.5891,7.675,7.7117,7.7019,7.6136,7.5813,7.5813,7.5794,7.4694,7.3367,7.4203,7.3337,7.162,6.9865,6.8149,6.6791,6.679,6.617,6.5516,6.5505,6.4258,6.3007,6.3021,6.2345,6.1486,6.0622,6.0427,6.0143,5.9201,5.8334,5.7712,5.7642,5.6261,5.4576,5.2902,5.1206,4.9802,4.8833,4.7985,4.801,4.9613,4.973,4.9713,4.9722,4.9637,4.9241,4.8398,4.7422,4.6103,4.4327,4.3368,4.3292,4.4075,4.4115,4.4632,4.5671,4.5703,4.575,4.5834,4.6745,4.7236,4.735,4.8204,4.9093,4.9925,4.9925,5.0402,5.118,5.1201,5.1219,5.1564,5.5103,5.6556,5.6606,5.6606,5.6606,5.6606,6.0417,6.1149,6.1529,6.1529,6.0603,5.9841,5.9903,6.0854,6.2162,6.3739,6.5074,6.6043,6.6405,6.7503,6.8449,6.9,7.0302,7.1864,7.3715,7.5506,7.636,7.6047,7.5735,7.5891,7.6594,7.6216,7.5616,7.4765,7.4967,7.5052,7.5085,7.595,7.6464,7.6711,7.6919,7.6911,7.6731,7.695,7.6872,7.6677,7.6997,7.7095,7.7073,7.6816,7.6698,7.6711,7.6692,7.5975,7.4944,7.4548,7.3659,7.2323,7.0025,6.8124,6.6619,6.6121,6.5769,6.5451,6.4804,6.3974,6.3398,6.3818,6.2797,6.1779,6.213,6.1729,6.1247,6.0963,6.0197,5.9396,5.8772,5.7751,5.6432,5.4697,5.3475,5.2253,5.0725,5.0274,5.0236,5.0661,5.0687,5.085,5.1338,5.0874,5.0124,4.9208,4.7769,4.6677,4.6127,4.5207,4.4824,4.5016,4.5055,4.5263,4.5632,4.5665,4.6066,4.6797,4.712,4.7881,4.907,4.9376,4.9982,5.0786,5.085,5.0987,5.1278,5.2572,5.2386,5.1598,5.5191,5.6592,5.6606,5.6606,5.6585,5.6598,6.1245,6.1857,6.2118,6.2045,6.1715,6.1578,6.1768,6.2586,6.3622,6.5007,6.5931,6.6837,6.7693,6.8591,6.9489,7.0348,7.1846,7.3403,7.4981,7.6314,7.7011,7.702,7.7059,7.7059,7.7059,7.7034,7.6673,7.6028,7.6193,7.6045,7.5677,7.6294,7.677,7.7089,7.7067,7.7059,7.7059,7.7012,7.7004,7.7043,7.7402,7.7575,7.7628,7.7957,7.7887,7.7582,7.7567,7.6808,7.5659,7.5112,7.387,7.2262,7.0385,6.8603,6.7131,6.6674,6.6323,6.5925,6.5425,6.4765,6.4404,6.5155,6.4218,6.316,6.3434,6.3117,6.2638,6.2279,6.1525,6.0539,5.9306,5.8403,5.7349,5.5957,5.497,5.406,5.3007,5.2528,5.2222,5.2173,5.2188,5.233,5.2678,5.1958,5.099,4.973,4.8601,4.7819,4.7426,4.6565,4.6011,4.5975,4.5686,4.5719,4.6159,4.5911,4.6267,4.7248,4.7994,4.8871,4.9904,5.0236,5.0713,5.1247,5.1259,5.1278,5.1317,5.2442,5.3089,5.3592,5.5772,5.6606,5.6606,5.6585,5.6597,5.6601,6.1861,6.2609,6.3206,6.3067,6.3603,6.4111,6.4111,6.4887,6.58,6.6576,6.7462,6.831,6.921,7.0113,7.105,7.1909,7.433,7.5801,7.5819,7.662,7.7075,7.7022,7.6999,7.6999,7.6999,7.6999,7.6983,7.6995,7.6985,7.6496,7.5534,7.5794,7.6333,7.7114,7.7106,7.7059,7.7004,7.6995,7.7034,7.719,7.797,7.8321,7.8477,7.9218,7.8993,7.8291,7.8223,7.716,7.5785,7.5635,7.3832,7.1533,7.0842,6.9401,6.7998,6.8028,6.7374,6.672,6.6658,6.6127,6.5797,6.6556,6.6042,6.5195,6.457,6.4297,6.3945,6.3154,6.2293,6.119,5.9502,5.8559,5.7701,5.6776,5.5884,5.5304,5.5215,5.445,5.3892,5.3913,5.3852,5.3778,5.3712,5.2912,5.1722,5.0054,4.9794,4.9257,4.8243,4.74,4.687,4.6703,4.6009,4.6018,4.6868,4.6371,4.6589,4.7556,4.901,4.9868,5.0121,5.086,5.1211,5.1307,5.1317,5.1304,5.1289,5.1281,5.3397,5.6606,5.661,5.661,5.6614,5.6599,5.6601,5.6601,6.5217,6.4542,6.4022,6.4658,6.4375,6.4091,6.4091,6.4842,6.5748,6.6595,6.7442,6.832,6.9185,7.0099,7.0973,7.1838,7.4317,7.5807,7.5807,7.6627,7.7095,7.7082,7.7043,7.6999,7.6999,7.6999,7.6999,7.7022,7.7011,7.6866,7.6643,7.6778,7.6911,7.7114,7.7053,7.6994,7.7014,7.6921,7.7274,7.787,7.8105,7.8636,7.9205,7.8759,7.8467,7.8204,7.754,7.705,7.6493,7.5001,7.2803,7.0625,7.0551,6.9328,6.7938,6.8046,6.7477,6.658,6.5698,6.5992,6.636,6.5663,6.6024,6.6309,6.5498,6.4252,6.3238,6.3047,6.2304,6.1363,6.0315,5.9954,5.9334,5.7851,5.6852,5.6032,5.5293,5.445,5.4142,5.4743,5.4217,5.4058,5.4647,5.3275,5.189,5.0907,5.017,4.9354,4.8415,4.7519,4.67,4.5957,4.577,4.5796,4.6071,4.7314,4.8424,4.9337,4.8593,4.9197,5.0957,5.1123,5.1229,5.1236,5.132,5.1375,5.1357,5.1303,5.3397,5.661,5.6595,5.6599,5.66,5.6601,5.6601,5.6601,6.5606,6.5086,6.4721,6.5226,6.5284,6.531,6.5328,6.5728,6.6468,6.7764,6.8338,6.9245,7.0931,7.1555,7.2353,7.3657,7.535,7.6372,7.6372,7.6848,7.7316,7.7848,7.7316,7.6999,7.6999,7.6897,7.6897,7.6999,7.6999,7.6999,7.6999,7.7043,7.7073,7.709,7.7609,7.7784,7.7646,7.8,7.839,7.883,7.9272,7.9675,8.0065,8.0078,7.9793,7.9337,7.8442,7.7611,7.6677,7.4856,7.3518,7.2468,7.1433,7.0485,6.9624,6.8885,6.7764,6.6642,6.6042,6.6336,6.6661,6.607,6.6382,6.6745,6.6301,6.5524,6.4633,6.3788,6.3242,6.242,6.0725,6.0409,5.9859,5.8172,5.748,5.6858,5.5946,5.5449,5.5287,5.5676,5.5327,5.5041,5.5022,5.3767,5.2615,5.1774,5.092,5.0181,4.9674,4.8415,4.731,4.6552,4.6414,4.6383,4.6419,4.7792,4.8953,4.9886,4.9605,5.0091,5.123,5.1239,5.123,5.1249,5.132,5.2317,5.3873,5.3834,5.4939,5.6593,5.6601,5.6601,5.6601,5.6601,5.6601,5.6601,6.5071,6.525,6.5483,6.5654,6.6314,6.6864,6.7097,6.713,6.7686,6.9312,6.9624,7.0598,7.2869,7.3397,7.4207,7.5659,7.6682,7.7151,7.7004,7.7051,7.7472,7.8379,7.8074,7.7584,7.6999,7.684,7.6825,7.6962,7.6962,7.6975,7.6999,7.6999,7.7011,7.7043,7.8048,7.8506,7.857,7.922,7.9507,7.9545,8.027,8.0668,8.1003,8.1703,8.1563,8.0785,7.9773,7.8333,7.6645,7.5206,7.4661,7.4261,7.2354,7.1758,7.1443,6.979,6.8271,6.7151,6.7188,6.7017,6.683,6.7048,6.6939,6.6805,6.6868,6.6756,6.6219,6.4646,6.4179,6.3359,6.1051,6.0621,6.011,5.8577,5.8267,5.7882,5.6866,5.6719,5.6634,5.6433,5.6378,5.6014,5.5112,5.422,5.3365,5.2496,5.158,5.1023,5.0801,4.9359,4.8237,4.7593,4.7272,4.7163,4.7323,4.8128,4.896,4.9849,5.0849,5.1295,5.1273,5.1289,5.1303,5.1342,5.1966,5.3877,5.6618,5.6599,5.6601,5.6601,5.6601,5.6601,5.6601,5.6601,5.6601,5.6601,6.619,6.6195,6.6467,6.7231,6.7519,6.7907,6.8676,6.8825,6.9234,7.02,7.1003,7.1895,7.2986,7.4427,7.5452,7.5686,7.7189,7.7794,7.7053,7.7014,7.7063,7.7209,7.9906,8.0039,7.7077,7.6975,7.6883,7.6721,7.6721,7.684,7.6999,7.6999,7.6999,7.7011,7.7167,7.8046,7.9442,7.9478,7.9455,7.9423,7.9476,8.0396,8.1774,8.192,8.1913,8.1602,7.9968,7.8248,7.6704,7.6471,7.445,7.2018,7.1708,7.163,7.1311,6.9757,6.9128,6.8933,6.8943,6.792,6.7048,6.8,6.7514,6.679,6.6795,6.6238,6.5418,6.4473,6.3699,6.2842,6.1713,6.1518,6.1206,6.0231,6.0038,5.9491,5.784,5.7629,5.7322,5.6519,5.6358,5.6003,5.5169,5.428,5.3425,5.2562,5.1614,5.079,4.9989,4.9688,4.9126,4.8299,4.7487,4.7492,4.8296,4.8472,4.8914,4.9557,5.0782,5.1328,5.122,5.133,5.1406,5.1562,5.4567,5.6152,5.6601,5.6601,5.6601,5.6601,5.6601,5.6601,5.6601,5.6601,5.6601,5.6601,6.6422,6.6389,6.6644,6.7515,6.7704,6.8031,6.8917,6.9109,6.9487,7.0395,7.0835,7.1794,7.3609,7.5363,7.6403,7.6391,7.7533,7.8078,7.7701,7.8129,7.8402,7.8402,7.8948,7.9454,7.9844,7.9764,7.8754,7.6687,7.6687,7.676,7.684,7.6962,7.8012,7.9844,7.9844,7.9181,7.8156,7.9066,7.9998,8.0863,8.0815,8.1247,8.1892,8.1947,8.1947,8.1714,7.9872,7.8108,7.6633,7.6633,7.5662,7.4123,7.218,7.1598,7.1474,7.0886,7.0687,7.0414,6.9128,6.871,6.8456,6.7686,6.7469,6.7321,6.6869,6.6081,6.5269,6.4458,6.3993,6.3295,6.1967,6.1694,6.142,6.0522,6.0022,5.9294,5.802,5.7417,5.6926,5.6455,5.6378,5.6241,5.5841,5.4585,5.3641,5.3252,5.1925,5.0906,5.0571,5.004,4.9509,4.898,4.8734,4.8606,4.8553,4.9493,4.9936,4.9798,5.0844,5.1335,5.1323,5.1362,5.2468,5.4264,5.3854,5.4801,5.6601,5.6595,5.6591,5.6591,5.6591,5.6591,5.6591,5.6591,5.6591,5.6591]},{"header":{"parameterUnit":"m.s-1","parameterCategory":1,"la1":30.6,"la2":28.766,"lo1":-90.7593,"lo2":-88.6598,"dy":0.0162,"dx":0.0183,"nx":116,"ny":114,"refTime":"2024-03-11T00:00:00:Z","depth":0,"parameterNumber":3,"parameterNumberName":"V-component_of_WINDS"},"data":[0.0,0.0,0.0,0.0,0.0,0.0,0.0,0.0,0.0,0.0,0.0,0.0,0.0,0.0,0.0,0.0,0.0,0.0,0.0,0.0,0.0,0.0,0.0,0.0,0.0,0.0,0.0,0.0,0.0,0.0,0.0,0.0,0.0,0.0,0.0,0.0,0.0,0.0,0.0,0.0,0.0,0.0,0.0,0.0,0.0,0.0,0.0,0.0,0.0,0.0,0.0,0.0,0.0,0.0,0.0,0.0,0.0,0.0,0.0,0.0,0.0,0.0,0.0,0.0,0.0,0.0,0.0,0.0,0.0,0.0,0.0,0.0,0.0,0.0,0.0,0.0,0.0,0.0,0.0,0.0,0.0,0.0,0.0,0.0,0.0,0.0,0.0,0.0,0.0,0.0,0.0,0.0,0.0,0.0,0.0,0.0,0.0,0.0,0.0,0.0,0.0,0.0,0.0,0.0,0.0,0.0,0.0,0.0,0.0,0.0,0.0,0.0,0.0,0.0,0.0,0.0,0.0,0.0,0.0,0.0,0.0,0.0,0.0,0.0,0.0,0.0,0.0,0.0,0.0,0.0,0.0,0.0,0.0,0.0,0.0,0.0,0.0,0.0,0.0,0.0,0.0,0.0,0.0,0.0,0.0,0.0,0.0,0.0,0.0,0.0,0.0,0.0,0.0,0.0,0.0,0.0,0.0,0.0,0.0,0.0,0.0,0.0,0.0,0.0,0.0,0.0,0.0,0.0,0.0,0.0,0.0,0.0,0.0,0.0,0.0,0.0,0.0,0.0,0.0,0.0,0.0,0.0,0.0,0.0,0.0,0.0,0.0,0.0,0.0,0.0,0.0,0.0,0.0,0.0,0.0,0.0,0.0,0.0,0.0,0.0,0.0,0.0,0.0,0.0,0.0,0.0,0.0,0.0,0.0,0.0,0.0,0.0,0.0,0.0,0.0,0.0,0.0,0.0,0.0,0.0,0.0,0.0,0.0,0.0,0.0,0.0,0.0,0.0,0.0,0.0,0.0,0.0,0.0,0.0,0.0,0.0,0.0,0.0,0.0,0.0,0.0,0.0,0.0,0.0,0.0,0.0,0.0,0.0,0.0,0.0,0.0,0.0,0.0,0.0,0.0,0.0,0.0,0.0,0.0,0.0,0.0,0.0,0.0,0.0,0.0,0.0,0.0,0.0,0.0,0.0,0.0,0.0,0.0,0.0,0.0,0.0,0.0,0.0,0.0,0.0,0.0,0.0,0.0,0.0,0.0,0.0,0.0,0.0,0.0,0.0,0.0,0.0,0.0,0.0,0.0,0.0,0.0,0.0,0.0,0.0,0.0,0.0,0.0,0.0,0.0,0.0,0.0,0.0,0.0,0.0,0.0,0.0,0.0,0.0,0.0,0.0,0.0,0.0,0.0,0.0,0.0,0.0,0.0,0.0,0.0,0.0,0.0,0.0,0.0,0.0,0.0,0.0,0.0,0.0,0.0,0.0,0.0,0.0,0.0,0.0,0.0,0.0,0.0,0.0,0.0,0.0,0.0,0.0,0.0,0.0,0.0,0.0,0.0,0.0,0.0,0.0,0.0,0.0,0.0,0.0,0.0,0.0,0.0,0.0,0.0,0.0,0.0,0.0,0.0,0.0,0.0,0.0,0.0,0.0,0.0,0.0,0.0,0.0,0.0,0.0,0.0,0.0,0.0,0.0,0.0,0.0,0.0,0.0,0.0,0.0,0.0,0.0,0.0,0.0,0.0,0.0,0.0,0.0,0.0,0.0,0.0,0.0,0.0,0.0,0.0,0.0,0.0,0.0,0.0,0.0,0.0,0.0,0.0,0.0,0.0,0.0,0.0,0.0,0.0,0.0,0.0,0.0,0.0,0.0,0.0,0.0,0.0,0.0,0.0,0.0,0.0,0.0,0.0,0.0,0.0,0.0,0.0,0.0,0.0,0.0,0.0,0.0,0.0,0.0,0.0,0.0,0.0,0.0,0.0,0.0,0.0,0.0,0.0,0.0,0.0,0.0,0.0,0.0,0.0,0.0,0.0,0.0,0.0,0.0,0.0,0.0,0.0,0.0,0.0,0.0,0.0,0.0,0.0,0.0,0.0,0.0,0.0,0.0,0.0,0.0,0.0,0.0,0.0,0.0,0.0,0.0,0.0,0.0,0.0,0.0,0.0,0.0,0.0,0.0,0.0,0.0,0.0,0.0,0.0,0.0,0.0,0.0,0.0,0.0,0.0,0.0,0.0,0.0,0.0,0.0,0.0,0.0,0.0,0.0,0.0,0.0,0.0,0.0,0.0,0.0,0.0,0.0,0.0,0.0,0.0,0.0,0.0,0.0,0.0,0.0,0.0,0.0,0.0,0.0,0.0,0.0,0.0,0.0,0.0,0.0,0.0,0.0,0.0,0.0,0.0,0.0,0.0,0.0,0.0,0.0,0.0,0.0,0.0,0.0,0.0,0.0,0.0,0.0,0.0,0.0,0.0,0.0,0.0,0.0,0.0,0.0,0.0,0.0,0.0,0.0,0.0,0.0,0.0,0.0,0.0,0.0,0.0,0.0,0.0,0.0,0.0,0.0,0.0,0.0,0.0,0.0,0.0,0.0,0.0,0.0,0.0,0.0,0.0,0.0,0.0,0.0,0.0,0.0,0.0,0.0,0.0,0.0,0.0,0.0,0.0,0.0,0.0,0.0,0.0,0.0,0.0,0.0,0.0,0.0,0.0,0.0,0.0,0.0,0.0,0.0,0.0,0.0,0.0,0.0,0.0,0.0,0.0,0.0,0.0,0.0,0.0,0.0,0.0,0.0,0.0,0.0,0.0,0.0,0.0,0.0,0.0,0.0,0.0,0.0,0.0,0.0,0.0,0.0,0.0,0.0,0.0,0.0,0.0,0.0,0.0,0.0,0.0,0.0,0.0,0.0,0.0,0.0,0.0,0.0,0.0,0.0,0.0,0.0,0.0,0.0,0.0,0.0,0.0,0.0,0.0,0.0,0.0,0.0,0.0,0.0,0.0,0.0,0.0,0.0,0.0,0.0,0.0,0.0,0.0,0.0,0.0,0.0,0.0,0.0,0.0,0.0,0.0,0.0,0.0,0.0,0.0,0.0,0.0,0.0,0.0,0.0,0.0,0.0,0.0,0.0,0.0,0.0,0.0,0.0,0.0,0.0,0.0,0.0,0.0,0.0,0.0,0.0,0.0,0.0,0.0,0.0,0.0,0.0,0.0,0.0,0.0,0.0,0.0,0.0,0.0,0.0,0.0,0.0,0.0,0.0,0.0,0.0,0.0,0.0,0.0,0.0,0.0,0.0,0.0,0.0,0.0,0.0,0.0,0.0,0.0,0.0,0.0,0.0,0.0,0.0,0.0,0.0,0.0,0.0,0.0,0.0,0.0,0.0,0.0,0.0,0.0,0.0,0.0,0.0,0.0,0.0,0.0,0.0,0.0,0.0,0.0,0.0,0.0,0.0,0.0,0.0,0.0,0.0,0.0,0.0,0.0,0.0,0.0,0.0,0.0,0.0,0.0,0.0,0.0,0.0,0.0,0.0,0.0,0.0,0.0,0.0,0.0,0.0,0.0,0.0,0.0,0.0,0.0,0.0,0.0,0.0,0.0,0.0,0.0,0.0,0.0,0.0,0.0,0.0,0.0,0.0,0.0,0.0,0.0,0.0,0.0,0.0,0.0,0.0,0.0,0.0,0.0,0.0,0.0,0.0,0.0,0.0,0.0,0.0,0.0,0.0,0.0,0.0,0.0,0.0,0.0,0.0,0.0,0.0,0.0,0.0,0.0,0.0,0.0,0.0,0.0,0.0,0.0,0.0,0.0,0.0,0.0,0.0,0.0,0.0,0.0,0.0,0.0,0.0,0.0,0.0,0.0,0.0,0.0,0.0,0.0,0.0,0.0,0.0,0.0,0.0,0.0,0.0,0.0,0.0,0.0,0.0,0.0,0.0,0.0,0.0,0.0,0.0,0.0,0.0,0.0,0.0,0.0,0.0,0.0,0.0,0.0,0.0,0.0,0.0,0.0,0.0,0.0,0.0,0.0,0.0,0.0,0.0,0.0,0.0,0.0,0.0,0.0,0.0,0.0,0.0,0.0,0.0,0.0,0.0,0.0,0.0,0.0,0.0,0.0,0.0,0.0,0.0,0.0,0.0,0.0,0.0,0.0,0.0,0.0,0.0,0.0,0.0,0.0,0.0,0.0,0.0,0.0,0.0,0.0,0.0,0.0,0.0,0.0,0.0,0.0,0.0,0.0,0.0,0.0,0.0,0.0,0.0,0.0,0.0,0.0,0.0,0.0,0.0,0.0,0.0,0.0,0.0,0.0,0.0,0.0,0.0,0.0,0.0,0.0,0.0,0.0,0.0,0.0,0.0,0.0,0.0,0.0,0.0,0.0,0.0,0.0,0.0,0.0,0.0,0.0,0.0,0.0,0.0,0.0,0.0,0.0,0.0,0.0,0.0,0.0,0.0,0.0,0.0,0.0,0.0,0.0,0.0,0.0,0.0,0.0,0.0,0.0,0.0,0.0,0.0,0.0,0.0,0.0,0.0,0.0,0.0,0.0,0.0,0.0,0.0,0.0,0.0,0.0,0.0,0.0,0.0,0.0,0.0,0.0,0.0,0.0,0.0,0.0,0.0,0.0,0.0,0.0,0.0,0.0,0.0,0.0,0.0,0.0,0.0,0.0,0.0,0.0,0.0,0.0,0.0,0.0,0.0,0.0,0.0,0.0,0.0,0.0,0.0,0.0,0.0,0.0,0.0,0.0,0.0,0.0,0.0,0.0,0.0,0.0,0.0,0.0,0.0,0.0,0.0,0.0,0.0,0.0,0.0,0.0,0.0,0.0,0.0,0.0,0.0,0.0,0.0,0.0,0.0,0.0,0.0,0.0,0.0,0.0,0.0,0.0,0.0,0.0,0.0,0.0,0.0,0.0,0.0,0.0,0.0,0.0,0.0,0.0,0.0,0.0,0.0,0.0,0.0,0.0,0.0,0.0,0.0,0.0,0.0,0.0,0.0,0.0,0.0,0.0,0.0,0.0,0.0,0.0,0.0,0.0,0.0,0.0,0.0,0.0,0.0,0.0,0.0,0.0,0.0,0.0,0.0,0.0,0.0,0.0,0.0,0.0,0.0,0.0,0.0,0.0,0.0,0.0,0.0,0.0,0.0,0.0,0.0,0.0,0.0,0.0,0.0,0.0,0.0,0.0,0.0,0.0,0.0,0.0,0.0,0.0,0.0,0.0,0.0,0.0,0.0,0.0,0.0,0.0,0.0,0.0,0.0,0.0,0.0,0.0,0.0,0.0,0.0,0.0,0.0,0.0,0.0,0.0,0.0,0.0,0.0,0.0,0.0,0.0,0.0,0.0,0.0,0.0,0.0,0.0,0.0,0.0,0.0,0.0,0.0,0.0,0.0,0.0,0.0,0.0,0.0,0.0,0.0,0.0,0.0,0.0,0.0,0.0,0.0,0.0,0.0,0.0,0.0,0.0,0.0,0.0,0.0,0.0,0.0,0.0,0.0,0.0,0.0,0.0,0.0,0.0,0.0,0.0,0.0,0.0,0.0,0.0,0.0,0.0,0.0,0.0,0.0,0.0,0.0,0.0,0.0,0.0,0.0,0.0,0.0,0.0,0.0,0.0,0.0,0.0,0.0,0.0,0.0,0.0,0.0,0.0,0.0,0.0,0.0,0.0,0.0,0.0,0.0,0.0,0.0,0.0,0.0,0.0,0.0,0.0,0.0,0.0,0.0,0.0,0.0,0.0,0.0,0.0,0.0,0.0,0.0,0.0,0.0,0.0,0.0,0.0,0.0,0.0,0.0,0.0,0.0,0.0,0.0,0.0,0.0,0.0,0.0,0.0,0.0,0.0,0.0,0.0,0.0,0.0,0.0,0.0,0.0,0.0,0.0,0.0,0.0,0.0,0.0,0.0,0.0,0.0,0.0,0.0,0.0,0.0,0.0,0.0,0.0,0.0,0.0,0.0,0.0,0.0,0.0,0.0,0.0,0.0,0.0,0.0,0.0,0.0,0.0,0.0,0.0,0.0,0.0,0.0,0.0,0.0,0.0,0.0,0.0,0.0,0.0,0.0,0.0,-0.0291,0.0,0.0,0.0,0.0,0.0,0.0,0.0,0.0,0.0,0.0,0.0,0.0,0.0,0.0,0.0,0.0,0.0,0.0,0.0,0.0,0.0,0.0,0.0,0.0,0.0,0.0,0.0,0.0,0.0,0.0,0.0,0.0,0.0,0.0,0.0,0.0,0.0,0.5412,0.6184,0.6273,0.5482,0.3904,0.2452,0.0,0.0,0.0,0.0,0.0,0.0,0.0,0.0,0.0,0.0,0.0,0.0,0.0,0.0,0.0,0.0,0.0,0.0,0.0,0.0,0.0,0.0,0.0,0.0,0.0,0.0,0.0,0.0,0.0,0.0,0.0,0.0,0.0,0.0,0.0,0.0,0.0,0.0,0.0,0.0,0.0,0.0,0.0,0.0,0.0,0.0,0.0,0.0,0.0,0.0,0.0,0.0,0.0,0.0,0.0,0.0,0.0,0.0,0.0,0.0,0.0,0.0,0.0,0.0,0.0,0.0,0.0,0.0,0.0,0.0,0.0,0.0,0.0,0.2893,0.0,0.0,0.0,0.0,0.0,0.0,0.0,0.0,0.0,0.0,0.0,0.0,0.0,0.0,0.0,0.0,0.0,0.0,0.0,0.0,0.0,0.0,0.0,0.0117,0.0185,0.0358,0.0658,0.0833,0.0803,0.0302,0.0,0.0,0.1776,0.2854,0.3046,0.4665,0.5741,0.6232,0.6194,0.5062,0.2975,0.0,0.0,0.0,0.0,0.0,0.0,0.0,0.0,0.0,0.0,0.0,0.0,0.0,0.0,0.0,0.0,0.0,0.0,0.0,0.0,0.0,0.0,0.0,0.0,0.0,0.0,0.0,0.0,0.0,0.0,0.0,0.0,0.0,0.0,0.0,0.0,0.0,0.0,0.0,0.0,0.0,0.0,0.0,0.0,0.0,0.0,0.0,0.0,0.0,0.0,0.0,0.0,0.0,0.0,0.0,0.0,0.0,0.0,0.0,0.0,0.0,0.0,0.0,0.0,0.0,0.0,0.0,0.0,-0.5576,-0.7989,-0.7159,-0.529,-0.2473,-0.0071,0.3072,0.6573,0.0,0.0,0.0,0.0,0.0,0.0,0.0,0.0,0.0,0.0,0.0,0.0,0.0,0.0,0.0,0.0,0.0,0.0,0.0,0.0,0.0,0.0,-0.0235,-0.032,-0.0517,0.0134,0.0525,0.048,0.0178,0.0,0.0,0.1419,0.2436,0.2907,0.4112,0.5416,0.6772,0.6214,0.521,0.3818,0.2423,0.2075,0.2575,0.3199,0.0,0.0,0.0,0.0,0.0,0.0,0.0,0.0,0.0,0.0,0.0,0.0,0.0,0.0,0.0,0.0,0.0,0.0,0.0,0.0,0.0,0.0,0.0,0.0,0.0,0.0,0.0,0.0,0.0,0.0,0.0,0.0,0.0,0.0,0.0,0.0,0.0,0.0,0.0,0.0,0.0,0.0,0.0,-0.7312,-0.5102,0.0,0.0,0.0,0.0,0.0,0.0,0.0,0.0,0.0,0.0,0.0,0.0,0.0,0.0,-0.3238,-0.3319,-0.3602,-0.4016,-0.5064,-0.674,-0.8855,-0.8188,-0.5085,-0.0187,0.265,0.0,1.0407,0.9945,0.0,0.0,0.0,0.0,0.0,0.0,0.0,0.0,0.0,0.0,0.0,0.0,0.0,0.0,0.0,0.0,0.0,0.0,0.0,0.0,0.0,-0.11,-0.1553,-0.1335,-0.1745,-0.1401,0.0082,0.0056,0.0342,0.1152,0.1779,0.2274,0.2663,0.4053,0.551,0.7068,0.5967,0.474,0.3424,0.2545,0.2282,0.257,0.4113,0.6014,0.8136,1.0277,0.0,0.0,0.0,0.0,0.0,0.0,0.0,0.0,0.0,0.0,0.0,0.0,0.0,0.0,0.0,0.0,0.0,0.0,0.0,0.0,0.0,0.0,0.0,0.0,0.0,0.0,0.0,0.0,0.0,0.0,0.0,0.0,0.0,0.0,0.0,0.0,0.0,0.0,0.0,-0.6956,-0.6946,-0.59,-0.5581,-0.4869,0.0,0.0,0.0,0.0,0.0,0.0,0.0,0.0,0.0,-0.103,-0.2005,-0.2711,-0.3304,-0.3561,-0.3798,-0.3985,-0.545,-0.7063,-0.87,-0.7556,-0.486,-0.0642,0.3988,0.8855,1.3421,1.3015,1.2389,1.1468,0.0,0.0,0.0,0.0,-0.6998,-0.581,0.0,0.0,0.0,0.0,0.0,0.0,0.0,0.0,0.0,0.0,0.0,0.0,-0.0578,-0.1882,-0.2589,-0.2293,-0.3236,-0.307,-0.1339,-0.0646,0.0187,0.1227,0.1513,0.176,0.1986,0.3967,0.5563,0.666,0.5839,0.467,0.3138,0.2639,0.2442,0.2706,0.5497,0.7635,0.9292,1.1609,1.2624,0.0,0.0,0.0,0.0,0.0,0.0,0.0,0.0,0.0,0.0,0.0,0.0,0.0,0.0,0.0,0.0,0.0,0.0,0.0,0.0,0.0,0.0,0.0,0.0,0.0,0.0,0.0,0.0,0.0,0.0,0.0,0.0,0.0,0.0,0.0,0.0,0.0,0.0,-0.6504,-0.683,-0.6569,-0.6981,-0.6526,0.0,0.0,0.0,0.0,0.0,0.0,0.0749,0.0726,0.0348,-0.0421,-0.1806,-0.2806,-0.3321,-0.3376,-0.358,-0.3726,-0.5205,-0.7005,-0.905,-0.6836,-0.3815,0.0117,0.533,1.0802,1.6114,1.5773,1.4849,1.3382,1.0289,0.5279,-0.0711,-0.5672,-0.7259,-0.7155,0.0,0.0,0.0,0.0,0.0,0.0,0.0,0.0,0.0,0.0,0.0,0.0088,-0.1459,-0.2281,-0.2933,-0.3443,-0.3419,-0.368,-0.4521,-0.2338,-0.1019,-0.0952,-0.0032,0.0507,0.0597,0.3667,0.5265,0.5235,0.6041,0.5394,0.349,0.2853,0.2807,0.3302,0.7691,0.9874,1.0328,1.3247,1.435,1.4091,0.0,0.0,0.0,0.0,0.0,0.0,0.0,0.0,0.0,0.0,0.0,0.0,0.0,0.0,0.0,0.0,0.0,0.0,0.0,0.0,0.0,0.0,0.0,0.0,0.0,0.0,0.0,0.0,0.0,0.0,0.0,0.0,0.0,0.0,0.0,0.0,0.0,0.0,0.0,-0.7817,-0.9092,0.0,0.0,0.0,0.0,-0.403,-0.2226,-0.0499,0.1184,0.1114,0.0784,0.0353,-0.0799,-0.1931,-0.3047,-0.2258,-0.2531,-0.3674,-0.4416,-0.6836,-1.0419,-0.6571,-0.1709,0.3864,0.7185,1.2502,1.8757,1.8278,1.7343,1.583,1.1159,0.5357,-0.0759,-0.5695,-0.8123,-0.8974,0.0,0.0,0.0,0.0,0.0,0.0,0.0,0.0,0.1219,0.1296,0.0608,-0.0158,-0.0904,-0.2512,-0.3711,-0.4066,-0.4846,-0.5014,-0.426,-0.4138,-0.3883,-0.3487,-0.3149,-0.2328,-0.0998,0.1473,0.3211,0.4277,0.4983,0.4699,0.3392,0.2806,0.2593,0.2823,0.7556,1.0139,1.1199,1.4103,1.5653,1.5919,1.4407,1.3008,0.0,0.0,0.0,0.0,0.0,0.0,0.0,0.0,0.0,0.0,0.0,0.0,0.0,0.0,0.0,0.0,0.0,0.0,0.0,0.0,0.0,0.0,0.0,0.0,0.0,0.0,0.0,0.0,0.0,0.0,0.0,0.0,0.0,0.0,0.0,0.0,0.0,-0.8789,-0.9843,0.0,0.0,-0.9268,-0.8363,-0.6485,-0.4522,-0.2272,0.02,0.1397,0.1782,0.14,0.012,-0.0863,-0.1513,-0.0882,-0.101,-0.1904,-0.2689,-0.4547,-0.7139,-0.5525,-0.2142,0.2368,0.6703,1.264,1.94,1.9828,1.9417,1.7833,1.31,0.7667,0.1728,-0.4194,-0.7514,-0.9108,0.0,0.0,0.0,0.0,0.0,0.0,0.0,0.0,0.1252,0.1296,0.0513,-0.0392,-0.1202,-0.3139,-0.4457,-0.475,-0.5568,-0.5608,-0.4559,-0.4845,-0.4892,-0.459,-0.4853,-0.4198,-0.2552,-0.1221,0.0552,0.2712,0.3167,0.3203,0.2935,0.2726,0.2526,0.2568,0.6113,0.9099,1.157,1.4811,1.6637,1.727,1.5851,1.4559,1.3307,0.0,0.0,0.0,0.0,0.0,0.0,0.0,0.0,0.0,0.0,0.0,0.0,0.0,0.0,0.0,0.0,0.0,0.0,0.0,0.0,0.0,0.0,0.0,0.0,0.0,0.0,0.0,0.0,0.0,0.0,0.0,0.0,0.0,0.0,0.0,-0.8824,-0.9011,-1.078,-1.2035,-1.2133,-1.1711,-1.0701,-0.8868,-0.6497,-0.3871,-0.0846,0.0977,0.2047,0.2191,0.127,0.0523,0.0133,0.0529,0.079,0.0527,-0.0931,-0.2668,-0.4666,-0.458,-0.2313,0.1895,0.6328,1.2423,1.9187,2.0262,2.0209,1.9073,1.453,0.9655,0.4487,-0.1994,-0.6345,-0.9078,0.0,0.0,0.0,0.0,0.0,0.0,0.0,0.1362,0.127,0.1149,0.0593,-0.0528,-0.2435,-0.4019,-0.5121,-0.5418,-0.5393,-0.5426,-0.5643,-0.4479,-0.3868,-0.4235,-0.494,-0.4967,-0.4074,-0.3993,-0.2551,0.0487,0.0607,0.1189,0.2196,0.2528,0.2619,0.2449,0.3692,0.6796,1.1364,1.5193,1.7355,1.8181,1.705,1.6129,1.5235,0.0,0.0,0.0,0.0,0.0,0.0,0.0,0.0,0.0,0.0,0.0,0.0,0.0,0.0,0.0,0.0,0.0,0.0,0.0,0.0,0.0,0.0,0.0,0.0,0.0,0.0,0.0,0.0,0.0,0.0,0.0,0.0,0.0,-0.6648,-0.8285,-0.9128,-0.8668,-1.196,-1.4473,-1.4676,-1.4045,-1.2905,-1.1105,-0.8256,-0.5134,-0.1869,0.0,0.15,0.2684,0.2423,0.2033,0.1786,0.2199,0.275,0.3302,0.0824,-0.1511,-0.3302,-0.3875,-0.1555,0.2892,0.6346,1.1849,1.8464,1.9537,1.9891,1.9312,1.5352,1.1445,0.7075,0.0525,-0.4972,-0.8779,0.0,0.0,0.0,0.0,0.0,0.0,0.0,0.1631,0.1621,0.175,0.0835,-0.0135,-0.0992,-0.2776,-0.4188,-0.4791,-0.5062,-0.511,-0.4905,-0.4599,-0.4719,-0.5384,-0.6173,0.0,-0.5978,-0.4556,-0.3091,-0.1538,-0.0598,0.027,0.0953,0.1515,0.1675,0.1386,0.3171,0.6223,1.0289,1.4516,1.7645,1.9591,1.853,1.7456,1.6158,0.0,0.0,0.0,0.0,0.0,0.0,0.0,0.0,0.0,0.0,0.0,0.0,0.0,0.0,0.0,0.0,0.0,0.0,0.0,0.0,0.0,0.0,0.0,0.0,0.0,0.0,0.0,0.0,0.0,0.0,0.0,0.0,-0.6177,-0.6165,-0.7596,-0.9125,-1.0593,-1.3296,-1.5272,-1.572,-1.5192,-1.4545,-1.3739,-1.1049,-0.7864,-0.4288,-0.0378,0.273,0.4836,0.4414,0.4203,0.4358,0.4092,0.392,0.3574,0.193,0.0685,0.0,-0.0536,0.0916,0.4036,0.695,1.1348,1.6469,1.7233,1.7773,1.793,1.5303,1.1461,0.6884,0.1839,-0.3221,-0.7498,0.0,0.0,0.0,0.0,0.0,0.0,0.0,0.1844,0.1902,0.2136,0.1145,0.025,-0.029,-0.1983,-0.3387,-0.4184,-0.441,-0.4478,-0.4443,-0.4544,-0.4863,0.0,0.0,-0.6194,-0.6187,-0.5079,-0.3922,-0.2791,-0.1995,-0.1184,-0.0286,0.0303,0.0525,0.0539,0.2762,0.5725,0.9188,1.3771,1.7423,2.0106,1.9891,1.8889,1.7402,1.5104,1.302,1.1049,0.9545,0.8461,0.7426,0.6002,0.0,0.0,0.0,0.0,0.0,0.0,0.0,0.0,0.0,0.0,0.0,0.0,0.0,0.0,0.0,0.0,0.0,0.0,0.0,0.0,0.0,0.0,0.0,0.0,-0.5105,-0.6029,-0.6444,-0.8144,-0.9847,-1.136,-1.3565,-1.5312,-1.5939,-1.6086,-1.615,-1.6377,-1.4117,-1.0944,-0.7056,-0.2743,0.0799,0.3521,0.4175,0.467,0.5266,0.4994,0.4692,0.4085,0.2664,0.2218,0.2317,0.2176,0.3452,0.0,0.8925,1.1953,1.4903,1.5157,1.5524,0.0,0.0,0.0,0.0,0.0,-0.3194,-0.6166,0.0,0.0,0.0,0.0,0.0,0.0,0.0,0.2041,0.2183,0.2387,0.1612,0.0771,0.0066,-0.1282,-0.2475,-0.3515,-0.3551,-0.3643,-0.4095,-0.4272,0.0,-0.5185,-0.502,-0.5116,-0.5503,-0.542,-0.4875,-0.3714,-0.3499,-0.2714,-0.1539,-0.1218,-0.0848,-0.0329,0.2247,0.521,0.8468,1.3052,1.6906,1.9983,2.0831,2.0253,1.8726,1.6402,1.452,1.2936,1.0366,0.8864,0.7819,0.6264,0.0,0.0,0.0,0.0,0.0,0.0,0.0,0.0,0.0,0.0,0.0,0.0,0.0,0.0,0.0,0.0,0.0,0.0,0.0,0.0,0.0,0.0,0.0,0.0,-0.4574,-0.546,-0.7054,-0.9069,-1.0562,-1.1398,-1.3146,-1.4842,-1.5844,-1.6718,-1.7664,-1.8726,-1.6744,-1.3787,-0.9769,0.0,0.0,0.0,0.0,0.4083,0.4982,0.5118,0.4991,0.4591,0.3533,0.3488,0.4422,0.4655,0.6019,0.8403,1.1328,1.3065,1.3626,1.3277,1.3096,1.2974,1.3107,1.1914,0.9014,0.0594,-0.3533,-0.4646,0.0,0.0,0.0,0.0,0.0,0.0,0.0,0.2488,0.2645,0.2663,0.2654,0.2164,0.082,0.0537,-0.0323,-0.212,-0.2215,-0.261,-0.374,0.0,-0.4077,-0.5112,-0.5072,-0.5228,-0.5536,-0.5427,-0.5294,-0.4951,-0.4188,-0.3633,-0.3264,-0.3038,-0.2918,-0.2787,0.0754,0.5002,0.9686,1.2859,1.6361,1.992,2.0788,2.0582,1.9444,1.6985,1.4936,1.3233,1.1358,1.0023,0.8877,0.6994,0.6111,0.5669,0.468,0.0,0.0,0.0,0.0,0.0,0.0,0.0,0.0,0.0,0.0,0.0,0.0,0.0,0.0,0.0,0.0,0.0,0.0,0.0,0.0,-0.4005,-0.5039,-0.6085,-0.7151,-0.8475,-0.9864,-1.1329,-1.2832,-1.4101,-1.5271,-1.7035,-1.8078,-1.8156,-1.643,-1.442,-1.2255,-0.9273,0.0,-0.2219,0.0557,0.2645,0.4149,0.4425,0.4876,0.5454,0.0,0.0,0.8563,0.8753,0.9596,1.0834,1.2043,1.2304,1.2077,1.1846,1.0781,0.9342,0.896,0.769,0.5354,0.1484,-0.0736,-0.1742,0.0,0.0,0.0,0.0,0.0,0.0,0.0,0.2637,0.2827,0.3135,0.3171,0.3036,0.262,0.2171,0.1386,0.0223,-0.1275,-0.2417,0.0,-0.3518,-0.4112,-0.4768,-0.4782,-0.4915,-0.5276,-0.5201,-0.5282,-0.5365,-0.4922,-0.4552,-0.425,-0.43,-0.4215,-0.4202,-0.1104,0.325,0.8735,1.2112,1.5648,1.8943,2.0574,2.0876,2.0068,1.7746,1.5624,1.3793,1.2316,1.0854,0.945,0.7458,0.6378,0.57,0.5031,0.4845,0.5185,0.0,0.0,0.0,0.0,0.0,0.0,0.0,0.0,0.0,0.0,0.0,0.0,0.0,0.0,0.1063,0.0,0.0,-0.3358,-0.3805,-0.4122,-0.4934,-0.6515,-0.7651,-0.9012,-1.0819,-1.2512,-1.3634,-1.4053,-1.6072,-1.7097,-1.6658,-1.6091,-1.5265,-1.4019,-1.1725,-0.8769,-0.5315,-0.2333,0.0274,0.2441,0.3477,0.4913,0.6733,0.646,0.7812,1.0508,1.1202,1.2028,1.3088,1.3541,1.3335,1.2162,1.0376,0.8414,0.6604,0.6241,0.6033,0.5583,0.2627,0.087,0.0,0.0,0.0,0.0,0.0,0.0,0.0,0.0,0.2749,0.2957,0.3526,0.3522,0.3645,0.4141,0.353,0.2775,0.2154,-0.0417,-0.2065,0.0,-0.3429,-0.4143,-0.4322,-0.444,-0.4652,-0.489,-0.498,-0.5218,-0.5423,-0.5503,-0.5399,-0.5214,-0.5037,-0.4863,-0.4825,-0.3047,0.0882,0.6388,1.0741,1.4556,1.7835,2.0082,2.0841,2.0343,1.8378,1.6413,1.4458,1.3031,1.1561,0.9851,0.7868,0.6491,0.5656,0.5328,0.5455,0.6036,0.8004,0.9334,0.0,0.0,0.0,0.0,0.0,0.0,0.0,0.0,0.0,0.4147,0.3412,0.2265,0.1147,0.0085,-0.1476,-0.2862,-0.3265,-0.3131,-0.3749,-0.5774,-0.6934,-0.8224,-1.0101,-1.1753,-1.2727,-1.2557,-1.442,-1.5502,-1.5158,-1.5756,-1.5904,-1.5146,-1.384,-1.1489,-0.8435,-0.5665,-0.2825,-0.0132,0.18,0.4312,0.7464,0.7744,0.9321,1.2003,1.3264,1.4295,1.5238,1.4974,1.4089,1.2282,0.8898,0.6523,0.5103,0.4361,0.5103,0.6173,0.3578,0.2141,0.142,0.0,0.0,0.0,0.0,0.0,0.0,0.0,0.0,0.3307,0.3364,0.3883,0.4157,0.3898,0.4338,0.3934,0.2223,0.0688,0.0,-0.1676,-0.308,-0.3886,-0.3856,-0.4411,-0.471,-0.4639,-0.5011,-0.5251,-0.5266,-0.5183,-0.5649,-0.66,-0.5064,-0.4514,-0.4815,-0.4732,-0.1995,0.2741,0.8109,1.3088,1.7456,1.9597,2.0242,1.9809,1.8364,1.6902,1.5401,1.3529,1.2012,1.0562,0.8084,0.6915,0.6437,0.5396,0.5958,0.7373,0.9251,0.0,1.0157,1.2411,1.0871,0.8395,0.7612,0.6871,0.6246,0.0,0.0,0.361,0.2273,0.1078,0.0093,-0.039,-0.1262,-0.2045,-0.2435,-0.3095,-0.4237,-0.569,-0.6898,-0.8086,-0.9242,-1.0058,-1.0783,-1.1434,-1.2998,-1.3888,-1.4087,-1.5409,-1.6011,-1.5419,-1.5087,-1.3871,-1.1538,-0.9534,-0.6819,-0.366,-0.0856,0.2446,0.633,0.9112,1.1999,1.4679,1.5952,1.6937,1.7519,1.4964,1.2789,1.0596,0.7617,0.6086,0.5377,0.3823,0.3608,0.3957,0.4238,0.3833,0.309,0.0,0.0,0.0,0.0,0.0,0.0,0.0,0.0,0.0,0.396,0.4319,0.4681,0.502,0.5284,0.4952,0.3784,0.2206,0.0,-0.0322,-0.1859,-0.3041,-0.3801,-0.3836,-0.384,-0.3807,-0.3963,-0.4175,-0.4459,-0.464,-0.5088,-0.5937,-0.5673,-0.5689,-0.5655,-0.6036,-0.3302,0.179,0.7552,1.2265,1.6138,1.8597,1.9494,1.9448,1.8519,1.7086,1.5352,1.3759,1.2379,0.0,0.0,0.7416,0.6735,0.5743,0.6303,0.7943,1.0936,1.146,0.0,1.25,1.199,0.0,0.0,0.7037,0.6375,0.633,0.5584,0.4526,0.297,0.177,0.1038,0.0855,-0.0637,-0.2279,0.0,-0.4232,-0.5325,-0.6834,-0.7912,-0.8908,-0.9877,-0.974,-0.9814,-1.075,-1.2285,-1.3076,-1.2853,-1.4095,-1.4874,-1.4744,-1.5157,-1.4716,-1.3282,-1.1972,-0.9929,-0.7271,-0.2878,0.1935,0.6978,0.992,1.285,1.5862,1.7001,1.7817,1.8079,1.5211,1.2708,1.0578,0.7944,0.6062,0.4738,0.3395,0.2744,0.2771,0.3306,0.3343,0.3051,0.0,0.0,0.0,0.0,0.0,0.0,0.0,0.0,0.0,0.0,0.4638,0.5061,0.6051,0.6054,0.5775,0.5008,0.0,0.0,0.0,-0.0638,-0.2086,-0.3153,-0.3188,-0.3191,-0.3265,-0.3239,-0.3341,-0.368,-0.4085,-0.4526,-0.5232,-0.6341,-0.7085,-0.7675,-0.7199,-0.4229,0.0574,0.6061,1.099,1.5143,1.755,1.8725,1.8968,1.8442,1.7037,1.5244,1.4087,1.2552,0.0,0.0,0.7788,0.6715,0.5779,0.6304,0.7918,1.1362,1.2529,1.2613,1.2392,0.0,0.0,0.8713,0.7325,0.6573,0.6415,0.6009,0.5154,0.3638,0.2531,0.184,0.1823,-0.0349,0.0,-0.3548,-0.458,-0.5621,-0.7,-0.8277,-0.9139,-0.9692,-0.9447,-0.9293,-0.9799,-1.087,-1.1464,-1.1305,-1.2467,-1.3335,-1.368,-1.4581,-1.4904,-1.4482,-1.3708,-1.2371,-1.0032,-0.4637,0.1013,0.6728,1.0211,1.3442,1.658,1.7628,1.8057,1.7642,1.5262,1.2994,1.0699,0.8169,0.5958,0.4185,0.2837,0.2041,0.1781,0.1721,0.2294,0.2993,0.0,0.0,0.0,0.0,0.0,0.0,0.0,0.0,0.0,0.0,0.0,0.0,0.0,0.6624,0.6313,0.0,0.0,0.0,0.0,0.0094,-0.1135,-0.1742,-0.259,-0.316,-0.3384,-0.3437,-0.3216,-0.2835,-0.3723,-0.4396,-0.5057,-0.6552,-0.8694,-1.0974,-0.8044,-0.4976,-0.1663,0.2902,0.8635,1.488,1.6582,1.7742,1.8438,1.7802,1.6588,1.5194,1.4339,0.0,0.0,0.0,0.7887,0.6505,0.5347,0.5871,0.0,0.9787,1.2216,0.0,0.0,0.0,0.8154,0.8581,0.7869,0.6956,0.6514,0.586,0.5076,0.3792,0.271,0.1954,0.1775,-0.038,-0.226,-0.2205,-0.3515,-0.4774,-0.5383,-0.7089,-0.8178,-0.7801,-0.8878,-0.9099,0.0,-0.8027,-0.8627,-0.9731,-1.0465,-1.1319,-1.2266,-1.3523,-1.4461,-1.5121,-1.514,-1.378,-1.1263,-0.6282,-0.1009,0.4358,0.9768,1.3991,1.711,1.8129,1.7886,1.6504,1.5052,1.2939,1.0551,0.7918,0.587,0.3994,0.2285,0.1364,0.0848,-0.025,0.103,0.3169,0.0,0.0,0.0,0.0,0.0,0.0,0.0,0.0,0.0,0.0,0.0,0.0,0.0,0.0,0.0,0.0,0.0,0.0,0.0,0.1973,0.0821,0.0443,-0.1363,-0.2299,-0.2413,-0.1828,-0.1724,-0.2219,-0.2197,-0.2928,-0.4249,-0.546,-0.7011,-0.8806,-0.8083,-0.6417,-0.3872,0.0347,0.5252,1.0402,1.3575,1.5502,1.6452,1.6818,1.5684,1.3902,0.0,0.0,0.0,0.0,0.0,0.6691,0.6143,0.7029,0.8603,1.0469,1.3739,1.5993,0.0,0.0,0.9984,0.9464,0.8484,0.7299,0.6327,0.5881,0.5379,0.4067,0.3529,0.316,0.2994,0.097,-0.0891,-0.1276,-0.2498,-0.3929,-0.5394,-0.6607,-0.7522,-0.7907,-0.7275,0.0,0.0,0.0,0.0,-0.7991,-0.8414,-0.9273,-1.0642,-1.231,-1.3747,-1.4905,-1.5445,-1.4738,-1.2815,-0.7988,-0.2805,0.2755,1.0698,1.5435,1.703,1.7292,1.701,1.6126,1.4171,1.2314,1.0399,0.8221,0.6477,0.4846,0.3255,0.1236,-0.1094,-0.3075,-0.3605,-0.3134,0.0,0.0,0.0,0.0,0.0,0.0,0.0,0.0,0.0,0.0,0.0,0.0,0.0,0.0,0.0,0.0,0.0,0.0,0.0,0.0,0.2485,0.1755,0.0334,-0.0679,-0.1157,-0.0344,-0.0462,-0.1305,-0.1051,-0.1658,-0.3204,-0.4243,-0.573,-0.7475,-0.7774,-0.7725,-0.7165,-0.2309,0.205,0.6102,1.0327,1.2762,1.3911,1.5094,1.4521,0.0,0.0,0.0,0.0,0.0,0.0,0.0,0.7082,0.8646,1.0456,1.1312,1.3656,1.5418,1.2674,1.1373,1.0606,1.0168,0.8987,0.7733,0.6789,0.6285,0.5582,0.4313,0.4011,0.3877,0.3972,0.2594,0.0929,-0.0373,-0.1655,-0.3124,-0.4845,-0.5958,-0.6602,-0.6837,-0.5859,0.0,0.0,0.0,0.0,-0.6599,-0.676,-0.7558,-0.9225,-1.0943,-1.2589,-1.4252,-1.5177,-1.4928,-1.3633,-0.908,-0.3019,0.4534,1.1792,1.5725,1.6637,1.6518,1.6046,1.5136,1.2897,1.1316,1.0108,0.8066,0.6272,0.4492,0.2605,0.0347,-0.2244,-0.4556,-0.6173,-0.7056,0.0,0.0,0.0,0.0,0.0,0.0,0.0,0.0,0.0,0.0,0.0,0.0,0.0,0.0,0.0,0.0,0.0,0.0,0.0,0.0,0.0,0.2213,0.2125,0.1623,0.056,0.0896,0.0677,-0.0115,-0.0,-0.0595,-0.1838,-0.2895,-0.4701,-0.6962,-0.7105,-0.8634,-1.0814,-0.4954,-0.0797,0.2287,0.697,0.9492,1.0867,1.2666,0.0,0.0,0.0,0.0,0.0,0.0,0.0,0.0,0.0,1.0595,1.244,1.2247,1.2333,1.2487,1.2425,1.1232,1.0065,1.0579,0.9443,0.8303,0.7943,0.6903,0.564,0.464,0.4109,0.4102,0.0,0.0,0.2845,0.0597,-0.0859,-0.2375,-0.3909,-0.492,-0.5265,0.0,0.0,0.0,0.0,0.0,0.0,-0.5317,0.0,-0.6343,-0.7939,-0.942,-1.1223,-1.3325,-1.4417,-1.4688,-1.4024,-0.9477,-0.1765,0.8929,1.2639,1.5004,1.5895,1.5704,1.4916,1.3571,1.1483,1.0347,0.9764,0.7607,0.5361,0.2996,0.053,-0.1396,-0.2798,-0.4957,-0.6913,-0.8769,0.0,0.0,0.0,0.0,0.0,0.0,0.0,0.0,0.0,0.0,0.0,0.0,0.0,0.0,0.0,0.0,0.0,0.0,0.0,0.0,0.0,0.0,0.0,0.0,0.0,0.0,0.0,0.1035,0.1013,0.0559,-0.0564,-0.1219,-0.2676,-0.48,-0.5514,-0.6458,-0.7399,-0.4292,-0.1499,0.1057,0.0,0.7064,0.8525,0.0,0.0,0.0,0.0,0.0,0.0,0.0,0.0,0.0,0.0,1.1532,1.2572,1.3346,1.3557,1.3481,1.3321,1.2566,1.1696,1.0607,1.0089,0.9608,0.8402,0.7749,0.705,0.5784,0.4614,0.4144,0.0,0.0,0.0,0.0972,-0.0584,0.0,-0.3158,-0.3374,0.0,0.0,0.0,-0.1979,-0.2044,-0.198,0.0,0.0,-0.4362,-0.5243,-0.7236,-0.9219,-1.121,-1.3325,-1.4545,-1.4892,-1.4503,-0.7514,-0.0602,0.6245,1.0154,1.2711,1.3862,1.4219,1.4073,1.3457,1.1603,1.0282,0.9376,0.7695,0.5971,0.3764,-0.2418,-0.5942,-0.8042,-1.1082,-1.3223,-1.4637,0.0,0.0,0.0,0.0,0.0,0.0,0.0,0.0,0.0,0.0,0.0,0.0,0.0,0.0,0.0,0.0,0.0,0.0,0.0,0.0,0.0,0.0,0.0,0.0,0.0,0.0,0.0,0.0,0.0,0.0,0.0626,-0.0102,-0.1333,-0.3021,-0.4023,-0.5114,-0.6095,-0.483,0.0,0.0,0.0,0.0,0.0,0.0,0.0,0.0,0.0,0.0,0.0,0.0,0.0,0.9513,1.0815,1.1921,1.2845,1.3447,0.0,1.3755,1.349,1.2724,1.1979,1.1106,1.0686,1.0101,0.9151,0.8537,0.7749,0.6196,0.4965,0.0,0.0,0.0,0.0,0.0,0.0,0.0,-0.237,-0.2128,-0.1663,0.0,-0.1043,0.0,-0.1441,-0.1934,-0.3002,0.0,-0.5085,-0.5873,-0.742,-0.947,-1.1562,-1.3451,-1.4675,-1.4271,-1.2274,-0.6226,-0.0463,0.4806,0.8417,1.1035,1.2592,1.283,1.2929,1.2791,0.0,0.963,0.8879,0.7056,0.3609,-0.0865,-0.5618,-0.8857,-1.1192,-1.3933,-1.62,-1.7946,0.0,0.0,0.0,0.0,0.0,0.0,0.0,0.0,0.0,0.0,0.4329,0.0,0.0,0.0,0.0,0.0,0.0,0.0,0.0,0.0,0.0,0.0,0.0,0.0,0.0,0.0,0.0,0.0,0.0,0.0,0.0,0.0,0.0,0.0,0.0,0.0,0.0,0.0,0.0,0.0,0.0,0.0,0.0,0.0,0.0,0.0,0.0,0.0,0.0,0.0,0.6775,0.8441,1.0602,1.2297,1.3393,1.332,1.3521,1.3635,1.3344,1.244,1.1713,1.1703,1.117,1.0507,0.9889,0.9045,0.7964,0.6363,0.0,0.4522,0.4406,0.0,0.3337,0.3407,0.0,0.0303,-0.1138,-0.0674,-0.0087,-0.0,0.0,-0.0351,-0.122,-0.2414,-0.4002,-0.6251,-0.7031,-0.7626,-0.8182,-1.0313,-1.2287,-1.4074,-1.4817,-1.3387,-0.9356,-0.5575,-0.1123,0.3993,0.7037,0.9518,1.1352,1.1477,1.171,1.1844,0.0,0.0,0.7208,0.464,-0.0599,-0.7257,-0.8749,-1.0694,-1.2936,-1.4888,-1.7076,-1.9334,0.0,0.0,0.0,0.0,0.0,0.0,0.0,0.0,0.0,0.0,0.4601,0.4786,0.0,0.0,0.0,0.0,0.0,0.0,0.0,0.0,0.0,0.0,0.0,0.0,0.0,0.0,0.0,0.0,0.0,0.0,0.0,0.0,0.0,0.0,0.0,0.0,0.0,0.0,0.0,0.0,0.0,0.0,0.0,0.0,0.0,0.0,0.0,0.0,0.0,0.0,0.7392,1.009,1.2593,1.3801,1.4487,1.4924,1.4297,1.3521,1.3323,1.3074,1.2652,1.2172,1.1833,1.1336,1.0711,0.8843,0.0,0.0,0.0,0.5644,0.5005,0.4113,0.0,0.4051,0.0,0.0,0.0,0.0,0.2143,0.0,0.0,0.0,0.0,0.0,0.0,0.0,0.0,0.0,-0.9889,-1.1581,-1.3815,-1.6392,-1.5649,-1.3638,-1.0145,-0.5847,-0.1769,0.218,0.5575,0.7578,0.846,0.9771,1.0773,1.1409,1.0289,0.0,0.0686,-0.2291,-0.4955,-0.7432,-1.0682,-1.251,-1.3604,-1.586,-1.7667,-1.9334,0.0,0.0,0.0,0.0,0.0,0.0,0.0,0.445,0.4995,0.5151,0.5171,0.525,0.5397,0.5458,0.575,0.0,0.0,0.0,0.0,0.0,0.0,0.0,0.0,0.0,0.0,0.0,0.0,0.0,0.0,0.0,0.0,0.0,0.0,0.0,0.0,0.0,0.0,0.0,0.0,0.0,0.0,0.0,0.0,0.0,0.0,0.0,0.0,0.0,0.0,0.0,0.6599,1.0529,1.3124,1.4413,1.502,1.5056,1.4393,1.3497,1.3057,1.2841,1.2709,1.2149,1.2056,1.1507,0.9975,0.0,0.0,0.0,0.0,0.3341,0.3108,0.0,0.0,0.0,0.0,0.0,0.0,0.0,0.0,0.0,0.0,0.0,0.0,0.0,0.0,0.0,0.0,0.0,-1.2192,-1.4852,-1.6937,-1.8024,-1.7027,-1.4413,-1.015,-0.6286,-0.2406,0.1397,0.3431,0.5266,0.694,0.6983,0.673,0.6276,0.4979,0.0,-0.1682,-0.4271,-0.6473,-0.8646,-1.1843,-1.4007,-1.5435,-1.6955,-1.9043,-2.1261,0.0,0.0,0.0,0.0,0.0,0.0,0.0,0.3942,0.5008,0.5126,0.528,0.5312,0.5061,0.4752,0.4578,0.0,0.0,0.0,0.0,0.0,0.0,0.0,0.0,0.0,0.0,0.0,0.0,0.0,0.0,0.0,0.0,0.0,0.0,0.0,0.0,0.0,0.0,0.0,0.0,0.0,0.0,0.0,0.0,0.0,0.0,0.0,0.0,0.0,0.0,0.0,0.5629,0.9985,1.2734,1.4444,1.5327,1.4888,1.4154,1.337,1.2725,1.2616,1.2556,1.2024,1.1996,1.1264,0.8829,0.6381,0.0,0.0,0.0895,0.0066,0.0,0.0,0.0,0.0,0.0,0.0,0.0,0.0,0.0,0.0,0.0,0.0,0.0,0.0,0.0,0.0,0.0,0.0,-1.5729,-1.8813,-2.0345,-2.0059,-1.8893,-1.5703,-1.0712,-0.7211,-0.3468,0.0495,0.132,0.2792,0.4776,0.3445,0.2109,0.078,-0.0548,0.0,0.0,-0.5846,-0.8634,-1.1307,-1.3282,-1.5602,-1.7935,-1.8755,-2.0895,-2.3457,0.0,0.0,0.0,0.0,0.0,0.0,0.0,0.2293,0.3636,0.4202,0.4214,0.4238,0.4522,0.3916,0.3313,0.0,0.0,0.0,0.0,0.0,0.0,0.0,0.0,0.0,0.0,0.0,0.0,0.0,0.0,0.0,0.0,0.0,0.0,0.0,0.0,0.0,0.0,0.0,0.0,0.0,0.0,0.0,0.0,0.0,0.0,0.0,0.0,0.0,0.0,0.0,0.0,0.8147,1.1526,1.3762,1.5055,1.4938,0.0,0.0,1.2697,1.2652,1.2419,1.1978,1.1602,1.0729,0.804,0.0,0.0,0.0644,-0.1274,-0.2645,-0.2907,0.0,0.0,0.0,0.0,0.0,0.0,0.0,0.0,0.0,0.0,0.0,0.0,0.0,0.0,0.0,0.0,0.0,0.0,-2.2811,-2.3779,-2.3762,-2.1097,-1.7599,-1.3158,-0.9183,-0.5292,-0.1437,-0.0429,0.0141,0.0254,-0.0766,-0.1635,-0.2296,-0.2434,0.0,0.0,-1.0406,-1.4115,-1.6189,-1.6102,-1.7935,-2.0864,-2.2121,-2.3545,-2.4859,0.0,0.0,0.0,0.0,0.0,0.0,-0.1509,-0.0451,0.0776,0.2386,0.2514,0.2611,0.3039,0.2017,0.1373,0.18,0.0,0.0,0.0,0.0,0.0,0.0,0.0,0.0,0.0,0.0,0.0,0.0,0.0,0.0,0.0,0.0,0.0,0.0,0.0,0.0,0.0,0.0,0.0,0.0,0.0,0.0,0.0,0.0,0.0,0.0,0.0,0.0,0.0,0.0,0.0,0.0,0.8181,1.0282,0.0,0.0,1.3644,1.3098,1.2416,1.2483,1.254,1.1923,1.1382,1.0357,0.806,0.0,0.3381,0.0892,-0.1018,-0.2489,-0.3368,0.0,0.0,0.0,0.0,0.0,0.0,0.0,0.0,0.0,0.0,0.0,0.0,0.0,0.0,0.0,0.0,0.0,-2.5711,-2.5973,-2.5954,-2.5739,-2.3296,-1.9421,-1.4292,-1.0084,-0.5914,-0.1739,-0.158,-0.2095,-0.312,-0.344,-0.3853,-0.4323,-0.4752,0.0,0.0,-1.1008,-1.4081,-1.6352,-1.7642,-1.9353,-2.136,-2.3735,-2.483,-2.5256,0.0,0.0,0.0,0.0,0.0,-0.4327,-0.3314,-0.2517,-0.1467,0.023,0.0319,0.0493,0.1219,-0.0405,-0.1175,-0.0395,-0.0774,0.0,0.0,0.0,0.0,0.0,0.0,0.0,0.0,0.0,0.0,0.0,0.0,0.0,0.0,0.0,0.0,0.0,0.0,0.0,0.0,0.0,0.0,0.0,0.0,0.0,0.0,0.0,0.0,0.0,0.0,0.0,0.0,0.0,0.0,0.0,0.0,0.0,0.0,0.0,1.2534,1.2372,1.1906,1.2051,1.2153,1.153,1.0878,0.9678,0.0,0.0,0.3576,0.0941,-0.0987,-0.2617,-0.3986,-0.4796,-0.4652,-0.2847,0.0,-0.2451,0.0,0.0,0.0,0.0,0.0,0.0,0.0,0.0,0.0,0.0,0.0,0.0,0.0,-2.8439,-2.8011,-2.7661,-2.5058,-2.111,-1.5664,-1.0912,-0.6647,-0.2866,-0.3051,-0.3839,-0.5128,-0.5053,-0.5233,-0.5756,0.0,0.0,0.0,-1.1155,-1.3603,-1.5824,-1.8011,-1.9738,-2.1381,-2.3921,-2.5127,-2.5639,0.0,0.0,0.0,0.0,0.0,0.0,-0.4685,-0.3447,-0.255,-0.2363,-0.2455,-0.2077,-0.0746,-0.3077,-0.4535,-0.4068,-0.3538,0.0,0.0,0.0,0.0,0.0,0.0,0.0,0.0,0.0,-0.1284,-0.4464,-0.4767,-0.5633,0.0,0.0,0.0,0.0,0.0,0.0,0.0,0.0,0.0,0.0,0.0,0.0,0.0,0.0,0.0,0.0,0.0,0.0,0.0,0.0,0.0,0.0,0.0,0.0,0.0,0.0,1.0928,1.0669,1.1347,1.1294,1.1053,1.0674,0.9953,0.8787,0.0,0.0,0.2807,0.0391,-0.1749,-0.3732,-0.5455,-0.6277,-0.6325,-0.5248,-0.4411,0.0,0.0,0.0,0.0,0.0,0.0,0.0,0.0,0.0,0.0,0.0,0.0,0.0,0.0,-3.036,-3.0167,-2.9766,-2.6424,-2.2341,-1.7581,-1.1917,-0.7867,-0.5342,-0.5042,-0.5035,-0.5421,-0.549,-0.5807,0.0,0.0,0.0,0.0,-1.1595,-1.3621,-1.5405,-1.6961,-1.9072,-2.1225,-2.241,-2.4273,-2.63,0.0,0.0,0.0,0.0,0.0,0.0,0.0,-0.6353,-0.5903,-0.5862,-0.58,-0.5568,-0.5159,-0.6273,-0.7314,-0.7929,-0.6572,0.0,0.0,0.0,0.0,0.0,0.0,0.0,0.0,0.0,-0.073,-0.2926,-0.4151,-0.5225,-0.6169,-0.7694,0.0,0.0,0.0,0.0,0.0,0.0,0.0,0.0,0.0,0.0,0.0,0.0,0.0,0.0,0.0,0.0,0.0,0.0,0.0,0.0,0.0,0.0,0.0,0.4779,0.7014,0.8873,0.8977,0.9332,0.9482,0.8621,0.8038,0.7188,0.5567,0.0,0.149,-0.1185,-0.3495,-0.5573,-0.7387,-0.863,-0.9198,-0.8746,-0.8684,0.0,0.0,0.0,0.0,0.0,0.0,0.0,0.0,0.0,0.0,0.0,0.0,0.0,0.0,-3.0789,-3.0697,-3.026,-2.7079,-2.2828,-1.761,-1.2914,-0.8907,-0.5586,-0.5067,-0.4911,-0.5145,-0.5931,0.0,0.0,0.0,0.0,0.0,-1.1981,-1.4151,-1.6138,-1.8062,-2.0247,-2.241,-2.3819,-2.5447,-2.6917,0.0,0.0,0.0,0.0,0.0,0.0,0.0,-0.7429,-0.7725,-0.8174,-0.8396,-0.8523,-0.8454,-0.926,-0.998,-1.0484,-0.9832,0.0,0.0,0.0,0.0,0.0,0.0,0.0,0.0,0.0438,-0.1195,-0.3328,-0.4147,-0.4941,-0.5784,-0.6901,-0.8107,-0.9456,0.0,0.0,0.0,0.0,0.0,0.0,0.0,0.0,-1.5305,0.0,0.0,0.0,0.0,0.0,0.0,0.0,0.0,0.0,0.0,0.0,0.0,0.0,0.2976,0.5252,0.0,0.7681,0.7991,0.7337,0.6891,0.0,0.0,0.0,0.0353,-0.2339,-0.4616,-0.6684,-0.851,-0.9338,-0.9754,-0.9821,-0.9829,0.0,0.0,0.0,0.0,0.0,0.0,0.0,0.0,0.0,0.0,0.0,0.0,0.0,0.0,-3.0768,-3.0473,-2.9561,-2.666,-2.2595,-1.7411,-1.2858,-0.8996,-0.5896,-0.4979,-0.4757,-0.5176,-0.6129,0.0,0.0,0.0,0.0,0.0,-1.2654,-1.4606,-1.6456,-1.8739,-2.0892,-2.2864,-2.4514,-2.5867,-2.698,0.0,0.0,0.0,0.0,0.0,0.0,0.0,-0.7077,-0.8286,-0.9528,-1.033,-1.0823,-1.0905,-1.1977,-1.2551,-1.2174,0.0,0.0,0.0,0.0,0.0,0.0,0.0,0.0,0.0,-0.0542,-0.2394,-0.5048,-0.4538,-0.48,-0.5859,-0.5987,-0.7015,-0.8907,-1.086,0.0,0.0,0.0,0.0,0.0,-1.5662,-1.5462,0.0,0.0,0.0,0.0,0.0,0.0,0.0,0.0,0.0,0.0,0.0,0.0,0.0,0.0,0.0,0.0,0.0,0.5819,0.6288,0.6624,0.6061,0.5107,0.0,0.0,0.0,0.0,-0.5268,-0.7256,-0.9162,-0.8996,-0.8761,-0.9318,-0.9033,0.0,0.0,0.0,0.0,0.0,0.0,0.0,0.0,0.0,0.0,0.0,0.0,0.0,0.0,-3.0487,-2.958,-2.7965,-2.5217,-2.1642,-1.6996,-1.2026,-0.8365,-0.6101,-0.4726,-0.4504,-0.5382,-0.6261,0.0,0.0,0.0,0.0,0.0,-1.357,-1.5221,-1.6669,-1.9158,-2.1145,-2.2821,-2.4481,-2.5789,-2.6776,0.0,0.0,0.0,0.0,0.0,0.0,0.0,0.0,0.0,0.0,-1.1676,-1.2473,-1.3976,-1.4357,-1.4701,0.0,0.0,0.0,0.0,0.0,0.0,0.0,0.0,0.0,-0.2104,-0.1763,-0.2339,-0.3825,-0.448,-0.5028,-0.539,-0.5994,-0.7183,-0.8827,-1.0783,-1.3194,0.0,0.0,0.0,0.0,-1.6316,-1.6348,0.0,0.0,0.0,0.0,-1.4321,-1.377,0.0,0.0,0.0,0.0,0.0,0.0,0.0,0.0,-0.2728,-0.1684,0.024,0.0,0.2867,0.2684,0.2354,0.1804,0.0,0.0,0.0,0.0,0.0,-0.8975,-1.1242,-1.1348,-1.1595,-1.3178,0.0,0.0,0.0,0.0,0.0,0.0,0.0,0.0,0.0,0.0,0.0,0.0,0.0,0.0,0.0,-3.0799,-2.9558,-2.7033,-2.3918,-2.0107,-1.5794,-1.1406,-0.7804,-0.5061,-0.4597,-0.4665,-0.5167,-0.6773,0.0,0.0,0.0,0.0,-1.3401,-1.5186,-1.6949,-1.8844,-2.0762,-2.2436,-2.3924,-2.5172,-2.6268,-2.7221,0.0,0.0,0.0,0.0,0.0,0.0,0.0,0.0,0.0,0.0,0.0,-1.3568,-1.538,-1.573,0.0,0.0,0.0,0.0,0.0,0.0,0.0,0.0,0.0,-0.6028,-0.3965,-0.2958,-0.3055,-0.4168,-0.4572,-0.4984,-0.539,-0.5755,-0.666,-0.8189,-1.0854,-1.3344,0.0,0.0,0.0,0.0,-1.6571,0.0,0.0,0.0,0.0,0.0,-1.4543,-1.3952,0.0,-1.1944,-1.1527,-1.1297,0.0,0.0,0.0,0.0,-0.4058,-0.3301,-0.2115,-0.0822,0.018,0.0057,-0.0161,-0.0649,-0.1408,0.0,0.0,0.0,0.0,0.0,-1.1911,0.0,0.0,0.0,0.0,0.0,0.0,0.0,0.0,0.0,0.0,0.0,0.0,0.0,0.0,0.0,0.0,0.0,0.0,-3.066,-2.9278,-2.6384,-2.3038,-1.9223,-1.4853,-1.0557,-0.727,-0.4844,-0.4137,-0.438,-0.5411,-0.708,-0.8468,0.0,0.0,0.0,-1.4814,-1.6245,-1.776,-1.9336,-2.0735,-2.2257,-2.3807,-2.4618,-2.5672,-2.6775,0.0,0.0,0.0,0.0,0.0,0.0,0.0,0.0,0.0,0.0,0.0,0.0,0.0,0.0,0.0,0.0,0.0,0.0,0.0,0.0,0.0,0.0,0.0,-0.7992,-0.5599,-0.4136,-0.3986,-0.5113,-0.4917,-0.5166,-0.5734,-0.5738,-0.6521,-0.8078,-1.1121,-1.3297,0.0,0.0,0.0,0.0,-1.6523,0.0,0.0,0.0,0.0,0.0,0.0,0.0,0.0,-1.2642,-1.2365,-1.1925,-1.0418,0.0,0.0,0.0,0.0,0.0,-0.3704,-0.3071,-0.2443,-0.1792,-0.1991,-0.2533,-0.3275,0.0,0.0,0.0,0.0,0.0,0.0,0.0,0.0,0.0,0.0,0.0,0.0,0.0,0.0,0.0,0.0,0.0,0.0,0.0,0.0,0.0,0.0,0.0,0.0,-3.0232,-2.874,-2.5797,-2.2502,-1.8536,-1.4203,-0.9908,-0.6764,-0.4861,-0.3854,-0.4209,-0.5898,-0.7382,-0.8969,0.0,0.0,0.0,-1.5799,-1.7021,-1.8308,-1.9449,-2.0411,-2.1869,-2.3549,-2.4138,-2.5169,-2.654,0.0,0.0,0.0,0.0,0.0,0.0,0.0,0.0,0.0,0.0,0.0,0.0,0.0,0.0,0.0,0.0,0.0,0.0,0.0,0.0,0.0,-1.3092,-1.1012,-0.9154,-0.7485,-0.5154,-0.4416,-0.5266,-0.6256,-0.6606,-0.6363,-0.745,-0.8892,-1.056,-1.1649,-1.2895,-1.4148,0.0,0.0,-1.5015,-1.5959,0.0,0.0,0.0,0.0,0.0,0.0,0.0,0.0,-1.1524,-1.2014,-1.2543,-0.9381,0.0,0.0,0.0,0.0,0.0,-0.5575,-0.6156,-0.6,-0.346,-0.3457,-0.4003,0.0,0.0,0.0,0.0,0.0,0.0,0.0,0.0,0.0,0.0,0.0,0.0,0.0,0.0,0.0,0.0,0.0,0.0,0.0,0.0,0.0,0.0,0.0,0.0,0.0,-2.9373,-2.7834,-2.4546,-2.1663,-1.8139,-1.3799,-0.996,-0.6813,-0.4444,-0.4489,-0.5074,-0.6039,-0.8453,-1.0484,0.0,0.0,-1.556,-1.6507,-1.7872,-1.9399,-2.0952,-2.1477,-2.2961,-2.4821,-2.5798,-2.6941,-2.8188,0.0,0.0,0.0,0.0,0.0,0.0,0.0,0.0,0.0,0.0,0.0,0.0,0.0,0.0,0.0,0.0,0.0,0.0,0.0,0.0,0.0,-1.3279,-1.1529,-0.9641,-0.7681,-0.5779,-0.5307,-0.631,-0.6912,-0.7333,-0.7561,-0.824,-0.9418,-1.0907,-1.1203,-1.204,-1.324,-1.3899,-1.4495,-1.5018,0.0,0.0,0.0,0.0,0.0,0.0,0.0,0.0,0.0,0.0,-1.1726,-1.1984,-0.967,0.0,0.0,0.0,0.0,0.0,-0.5605,-0.6328,-0.6832,-0.5614,-0.615,-0.7014,0.0,0.0,0.0,0.0,0.0,0.0,0.0,0.0,0.0,0.0,0.0,0.0,0.0,0.0,0.0,0.0,0.0,0.0,0.0,0.0,0.0,0.0,0.0,0.0,0.0,0.0,-2.7331,-2.4303,-2.1895,-1.8411,-1.3671,-1.0827,-0.799,-0.5033,-0.5116,-0.5758,-0.7038,-0.9155,-1.1135,-1.2981,0.0,-1.6088,-1.7348,-1.8475,-2.0108,-2.2162,-2.4032,-2.5213,-2.6051,-2.7524,-2.8818,-2.9928,0.0,0.0,0.0,0.0,0.0,0.0,0.0,0.0,0.0,0.0,0.0,0.0,0.0,0.0,0.0,0.0,0.0,0.0,0.0,0.0,-1.5171,-1.3176,-1.1636,-0.9819,-0.7748,-0.646,-0.6284,-0.732,-0.751,-0.8014,-0.8702,-0.865,-0.9319,-1.0605,-1.0467,-1.1139,-1.2454,-1.3181,-1.4005,-1.4903,0.0,0.0,0.0,0.0,0.0,0.0,0.0,0.0,0.0,0.0,0.0,0.0,0.0,0.0,0.0,-0.792,-0.6834,-0.651,-0.6277,-0.6633,-0.7229,0.0,0.0,0.0,0.0,0.0,0.0,0.0,0.0,0.0,0.0,0.0,0.0,0.0,0.0,0.0,0.0,0.0,0.0,0.0,0.0,0.0,0.0,0.0,0.0,0.0,0.0,0.0,0.0,0.0,-2.6568,-2.3932,-2.1872,-1.8578,-1.3987,-1.1847,-0.9206,-0.5941,-0.5889,-0.6595,-0.804,-0.9936,-1.1862,-1.3744,-1.5185,-1.6581,-1.7952,-1.9432,-2.1225,-2.333,-2.5848,-2.6994,-2.7304,-2.8827,-3.0048,-3.1077,0.0,0.0,0.0,0.0,0.0,0.0,0.0,0.0,0.0,0.0,0.0,0.0,0.0,0.0,0.0,0.0,0.0,0.0,0.0,0.0,-1.4383,-1.265,-1.1019,-0.9688,-0.861,-0.7453,-0.7115,-0.7675,-0.8482,-0.9103,-0.9458,-0.873,-0.9103,-1.0196,-0.9696,-1.0436,-1.2043,-1.243,-1.3086,-1.402,-1.5537,0.0,0.0,0.0,0.0,0.0,0.0,0.0,0.0,0.0,0.0,0.0,0.0,0.0,-1.0974,-0.9893,-0.8779,-0.8193,-0.9178,-0.8804,-0.837,-0.9352,0.0,0.0,0.0,0.0,0.0,0.0,0.0,0.0,0.0,0.0,0.0,0.0,0.0,0.0,0.0,0.0,0.0,0.0,0.0,0.0,0.0,0.0,0.0,0.0,0.0,0.0,0.0,0.0,0.0,-2.2999,-2.0649,-1.7963,-1.4848,-1.249,-0.9793,-0.6715,-0.7094,-0.7714,-0.8657,-1.0983,-1.3014,-1.4679,-1.6398,-1.7488,-1.8265,-2.1193,-2.3142,-2.4447,-2.5527,-2.7015,-2.8617,-2.916,-3.0058,-3.1014,0.0,0.0,0.0,0.0,0.0,0.0,0.0,0.0,0.0,0.0,0.0,0.0,0.0,0.0,0.0,0.0,0.0,0.0,0.0,-1.4675,-1.3432,-1.208,-1.0527,-0.9072,-0.7838,-0.731,-0.7486,-0.8413,-0.9085,-0.938,-0.9356,-0.838,-0.8232,-0.8753,-0.8674,-0.9536,-1.1101,-1.2004,-1.2774,-1.3605,-1.5401,-1.5801,0.0,0.0,0.0,0.0,0.0,0.0,0.0,0.0,-1.0887,-1.1107,-1.0386,-1.1035,-1.1797,-1.029,-0.9242,-0.8679,-0.8665,-0.824,-0.7953,0.0,0.0,0.0,0.0,0.0,0.0,0.0,0.0,0.0,0.0,0.0,0.0,0.0,0.0,0.0,0.0,0.0,0.0,0.0,0.0,0.0,0.0,0.0,0.0,0.0,0.0,0.0,0.0,0.0,0.0,-2.2118,-2.0229,-1.791,-1.5035,-1.3157,-1.1079,-0.8991,-0.8406,-0.852,-0.9361,-1.1404,-1.3146,-1.4618,-1.6365,-1.8219,-2.024,-2.2752,-2.407,-2.4615,-2.557,-2.7257,-2.9136,-2.9338,-3.0099,-3.1209,0.0,0.0,0.0,0.0,0.0,0.0,0.0,0.0,0.0,0.0,0.0,0.0,0.0,0.0,0.0,0.0,0.0,0.0,-1.513,-1.3893,-1.2636,-1.1439,-0.9888,-0.8453,-0.725,-0.7085,-0.7487,-0.8392,-0.9194,-0.9526,-0.9438,-0.8376,-0.8094,-0.8586,-0.8443,-0.9254,-1.0762,-1.1888,-1.2891,-1.3814,-1.5404,-1.5936,0.0,0.0,0.0,0.0,0.0,0.0,0.0,0.0,-1.1166,-1.1455,-1.1301,-1.1856,-1.2393,-1.1236,-1.0547,-1.0027,-0.9533,-0.9122,-0.8873,0.0,0.0,0.0,0.0,0.0,0.0,0.0,0.0,0.0,0.0,0.0,0.0,0.0,0.0,0.0,0.0,0.0,0.0,0.0,0.0,0.0,0.0,0.0,0.0,0.0,0.0,0.0,0.0,0.0,0.0,0.0,-1.9385,-1.7292,-1.4867,-1.3132,-1.1662,-1.018,-0.9244,-0.9142,-0.9901,-1.166,-1.3233,-1.4646,-1.7079,-1.9377,-2.1646,-2.3649,-2.47,-2.5041,-2.5654,-2.7324,-2.9385,-2.9324,-3.0154,-3.1318,0.0,0.0,0.0,0.0,0.0,0.0,0.0,0.0,0.0,0.0,0.0,0.0,0.0,0.0,0.0,0.0,0.0,0.0,-1.4305,-1.3282,-1.2071,-1.0663,-0.9086,-0.789,-0.701,-0.7018,-0.7169,-0.763,-0.8884,-0.9622,-0.9841,-0.8654,-0.8886,-1.0132,-0.9374,-0.9838,-1.123,-1.2114,-1.3299,-1.4645,-1.5566,-1.6196,-1.6558,0.0,0.0,0.0,0.0,0.0,0.0,0.0,-1.1671,-1.1783,-1.3359,-1.323,-1.2603,-1.3132,-1.3033,-1.2661,-1.2413,-1.203,0.0,0.0,0.0,0.0,0.0,0.0,0.0,0.0,0.0,0.0,0.0,0.0,0.0,0.0,0.0,0.0,0.0,0.0,0.0,0.0,0.0,0.0,0.0,0.0,0.0,0.0,0.0,0.0,0.0,0.0,0.0,0.0,-1.7975,-1.615,-1.4201,-1.2539,-1.1081,-0.9892,-0.9614,-0.9689,-1.018,-1.1818,-1.3361,-1.4936,-1.8935,-2.107,-2.2079,-2.3819,-2.5062,-2.5906,-2.5906,-2.7324,-2.9385,-2.9153,-3.0067,-3.13,0.0,0.0,0.0,0.0,0.0,0.0,0.0,0.0,0.0,0.0,0.0,0.0,0.0,0.0,0.0,0.0,0.0,0.0,-1.3579,-1.2242,-1.0981,-1.0023,-0.8233,-0.6856,-0.5945,-0.606,-0.6653,-0.7769,-0.8563,-0.9135,-0.9528,-0.8788,-0.8864,-0.9528,-0.9155,-0.9549,-1.0582,-1.1965,-1.3208,-1.452,-1.5762,-1.6446,-1.6648,0.0,0.0,0.0,0.0,0.0,0.0,0.0,0.0,0.0,-1.3186,-1.3861,-1.4058,-1.2956,-1.2824,-1.2592,-1.0901,-1.1435,0.0,0.0,0.0,0.0,0.0,0.0,0.0,0.0,0.0,0.0,0.0,0.0,0.0,0.0,0.0,0.0,0.0,0.0,0.0,0.0,0.0,0.0,0.0,0.0,0.0,0.0,0.0,0.0,0.0,0.0,0.0,0.0,-1.6883,-1.5534,-1.4314,-1.3337,-1.2365,-1.13,-1.0456,-1.0037,-1.018,-1.1515,-1.3613,-1.6206,-1.9252,-2.1434,-2.2895,-2.3985,-2.4956,-2.5633,-2.5822,-2.7093,-2.8723,-2.9005,-2.9718,-3.0557,0.0,0.0,0.0,0.0,0.0,0.0,0.0,0.0,0.0,0.0,0.0,0.0,0.0,0.0,0.0,0.0,0.0,0.0,0.0,-1.1268,-1.0108,-0.8982,-0.7441,-0.6307,-0.552,-0.5575,-0.6108,-0.727,-0.7862,-0.8761,-0.9691,-0.9185,-0.9443,-1.0247,-0.9707,-0.9908,-1.0751,-1.2144,-1.3615,-1.5157,-1.6756,-1.7637,-1.7982,0.0,0.0,0.0,0.0,0.0,0.0,0.0,0.0,0.0,-1.2987,-1.3478,-1.3657,-1.3414,-1.3331,-1.3292,-1.2902,0.0,0.0,0.0,0.0,0.0,0.0,0.0,0.0,0.0,0.0,0.0,0.0,0.0,0.0,0.0,0.0,0.0,0.0,0.0,0.0,0.0,0.0,0.0,0.0,0.0,0.0,0.0,0.0,0.0,0.0,0.0,0.0,0.0,-1.627,-1.5166,-1.4189,-1.3315,-1.214,-1.0818,-1.0158,-1.0037,-1.0557,-1.207,-1.481,-1.8318,-2.0641,-2.2394,-2.378,-2.4299,-2.4871,-2.5359,-2.5633,-2.6731,-2.829,-2.8551,-2.9392,-3.0399,0.0,0.0,-0.1036,-0.0855,0.0,0.0,0.0,0.0,0.0,0.0,-0.173,0.0,0.0,0.0,0.0,0.0,0.0,0.0,0.0,0.0,-0.9411,-0.7948,-0.6807,-0.5918,-0.5352,-0.5292,-0.5649,-0.6318,-0.7081,-0.8389,-1.0179,-0.982,-1.0393,-1.1649,-1.0686,-1.0605,-1.1273,-1.2373,-1.4062,-1.6014,-1.7672,-1.8917,-1.9665,-1.8233,0.0,0.0,0.0,0.0,0.0,0.0,0.0,0.0,-1.2912,-1.2638,-1.2277,-1.4017,-1.4222,-1.4457,0.0,0.0,0.0,0.0,0.0,0.0,0.0,0.0,0.0,0.0,0.0,0.0,0.0,0.0,0.0,0.0,0.0,0.0,0.0,0.0,0.0,0.0,0.0,0.0,0.0,0.0,0.0,0.0,0.0,0.0,0.0,0.0,0.0,-1.6869,-1.5951,-1.482,-1.37,-1.2515,-1.1069,0.0,-0.9348,-1.0004,-1.1214,-1.3223,-1.6606,-2.086,-2.2473,-2.3614,-2.455,-2.455,-2.4786,-2.5189,-2.5359,-2.6452,-2.7919,-2.7919,-2.9015,-3.0413,0.0,0.0,-0.1075,-0.098,0.0,0.0,0.0,0.0,0.0,0.0,0.0,0.0,0.0,0.0,0.0,0.0,0.0,0.0,0.0,0.0,-0.9034,-0.8397,-0.5923,-0.4412,-0.3946,-0.4161,-0.4779,-0.5747,-0.6871,-0.8243,-0.9715,-0.9992,-1.0407,-1.0877,-1.0531,-1.0282,-1.0162,-1.0819,-1.1928,-1.3389,-1.4666,-1.6096,-1.7225,-1.6297,-1.5557,0.0,0.0,0.0,0.0,0.0,0.0,0.0,-1.2532,-1.2964,-1.3239,-1.2953,-1.3787,-1.4964,0.0,0.0,0.0,0.0,0.0,0.0,0.0,0.0,0.0,0.0,0.0,0.0,0.0,0.0,0.0,0.0,0.0,0.0,0.0,0.0,0.0,0.0,0.0,0.0,0.0,0.0,0.0,0.0,0.0,0.0,0.0,0.0,0.0,-1.6074,-1.475,-1.3305,-1.1766,-1.0989,-1.0537,0.0,-0.9715,-1.0192,-1.1794,-1.4109,-1.7627,-2.2079,-2.2531,-2.3431,-2.455,-2.455,-2.47,-2.4935,-2.5189,-2.6023,-2.7216,-2.7656,-2.8342,-2.9217,0.0,0.0,0.0,0.0,0.0,0.0,0.0,0.0,0.0,0.0,0.0,0.0,0.0,0.0,0.0,0.0,-0.895,-0.9357,-0.9018,-0.8843,-0.8359,-0.7427,-0.5195,-0.3804,-0.3476,-0.3577,-0.4289,-0.5617,-0.653,-0.7806,0.0,-1.0176,-1.061,-1.1055,-1.0508,-1.0124,-1.004,-1.0614,-1.1787,-1.34,-1.5151,-1.6458,-1.7208,-1.6563,-1.567,-1.4541,-1.2963,0.0,0.0,0.0,0.0,0.0,0.0,0.0,-1.2455,-1.2773,-1.3451,-1.452,0.0,0.0,0.0,0.0,0.0,0.0,0.0,0.0,0.0,0.0,0.0,0.0,0.0,0.0,0.0,0.0,0.0,0.0,0.0,0.0,0.0,0.0,0.0,0.0,0.0,0.0,0.0,0.0,0.0,0.0,0.0,-1.7161,-1.669,-1.5687,-1.4045,-1.2812,-1.2143,-1.0844,-1.0424,-1.0713,-1.019,-1.0905,-1.2909,-1.5789,-1.8699,-2.1568,-2.2232,-2.3237,-2.4378,-2.4378,-2.455,-2.47,-2.4956,-2.555,-2.6384,-2.6952,-2.7796,-2.854,0.0,0.0,0.0,0.0,0.0,0.0,0.0,0.0,0.0,0.0,0.0,0.0,0.0,0.0,-0.5957,0.0,0.0,0.0,-0.8531,-0.8228,-0.7396,-0.5937,-0.4511,-0.3628,-0.3294,-0.3322,-0.4002,-0.5484,0.0,0.0,0.0,0.0,0.0,-1.1288,-1.0218,-0.9798,-0.9928,-1.0303,-1.1441,-1.3223,-1.5576,-1.673,-1.7136,-1.679,-1.5718,-1.4206,-1.2831,-1.1954,-1.1536,-1.189,0.0,0.0,0.0,0.0,-1.1254,-1.2775,-1.3117,-1.3821,0.0,0.0,0.0,0.0,0.0,0.0,0.0,0.0,0.0,0.0,0.0,0.0,0.0,0.0,0.0,0.0,0.0,0.0,0.0,0.0,0.0,0.0,0.0,0.0,0.0,0.0,0.0,0.0,0.0,0.0,-1.7206,-1.6251,-1.5654,-1.5591,-1.3961,-1.3143,-1.3252,-1.1643,-1.0803,-1.0967,-1.1006,-1.2066,-1.4017,-1.7132,-1.9242,-2.0605,-2.189,-2.3037,-2.412,-2.412,-2.4206,-2.4378,-2.4615,-2.5013,-2.5555,-2.6109,-2.7045,-2.8105,0.0,0.0,0.0,0.0,0.0,0.0,0.0,0.0,0.0,0.0,0.0,0.0,0.0,-0.4517,-0.5466,-0.6152,-0.7416,-0.8066,-0.7829,0.0,0.0,-0.4622,-0.3746,-0.3132,-0.2691,-0.3421,-0.4121,-0.4677,0.0,0.0,0.0,0.0,0.0,-1.0565,0.0,0.0,-0.8083,-0.7684,-0.8084,-0.9258,-1.09,-1.2344,-1.363,-1.4041,-1.4048,-1.3795,-1.3028,-1.2536,-1.2438,-1.2979,-1.2965,0.0,0.0,0.0,0.0,-1.2226,-1.2772,0.0,0.0,0.0,0.0,0.0,0.0,0.0,0.0,0.0,0.0,0.0,0.0,0.0,0.0,0.0,0.0,0.0,0.0,0.0,0.0,0.0,0.0,0.0,0.0,0.0,0.0,0.0,0.0,0.0,0.0,0.0,-1.9065,-1.6868,-1.5655,-1.5601,-1.5124,-1.4429,-1.3166,-1.2818,-1.2301,-1.1727,-1.248,-1.3266,-1.4028,-1.6279,-1.8427,-2.0437,-2.1499,-2.2571,-2.36,-2.3754,-2.3754,-2.3667,-2.3667,-2.4344,-2.525,-2.5128,-2.6108,-2.7516,0.0,0.0,0.0,0.0,0.0,0.0,0.0,0.0,0.0,0.0,0.0,-0.2108,-0.2635,-0.3888,-0.4883,-0.5447,-0.6722,-0.745,-0.7246,-0.6372,-0.5328,-0.4291,-0.365,-0.3149,-0.2812,-0.3262,-0.3906,-0.4677,0.0,0.0,0.0,-0.9455,-1.0188,0.0,0.0,0.0,0.0,0.0,0.0,-0.9411,-1.0984,-1.2291,-1.328,0.0,-1.3779,-1.3424,-1.2866,-1.2536,-1.2438,-1.2884,-1.2752,-1.248,0.0,0.0,0.0,0.0,0.0,0.0,0.0,0.0,0.0,0.0,0.0,0.0,0.0,0.0,0.0,0.0,0.0,0.0,0.0,0.0,0.0,0.0,0.0,0.0,0.0,0.0,0.0,0.0,0.0,0.0,0.0,0.0,0.0,0.0,0.0,-1.8342,-1.8343,-1.6936,-1.6229,-1.6356,-1.5836,-1.5152,-1.4417,-1.3628,-1.3006,-1.2302,-1.2859,-1.3661,-1.4668,-1.5955,-1.7572,-1.9519,-2.1084,-2.2119,-2.2794,-2.3076,-2.3164,-2.3096,-2.331,-2.3711,-2.4212,-2.4769,-2.545,-2.6126,0.0,0.0,0.0,0.0,0.0,0.0,0.0,0.0,0.0,0.0,0.0,-0.1722,-0.2111,0.0,0.0,0.0,-0.6168,-0.6815,-0.6707,-0.5882,-0.4999,-0.4229,-0.3629,-0.3114,-0.2833,-0.3111,-0.3704,0.0,0.0,0.0,-0.9247,-0.9484,-1.0668,0.0,-1.1351,0.0,0.0,0.0,0.0,0.0,0.0,-1.2505,0.0,0.0,-1.4227,-1.3623,-1.3285,0.0,0.0,0.0,0.0,0.0,0.0,0.0,0.0,0.0,0.0,0.0,0.0,0.0,0.0,0.0,0.0,0.0,0.0,0.0,0.0,0.0,0.0,0.0,0.0,0.0,0.0,0.0,0.0,0.0,0.0,0.0,0.0,0.0,0.0,0.0,0.0,0.0,0.0,0.0,0.0,-1.7622,-1.7729,-1.7041,-1.6791,-1.7202,-1.6398,-1.5829,-1.5589,-1.4456,-1.349,-1.2836,-1.3141,-1.387,-1.4949,-1.601,-1.7239,-1.8562,-2.0465,-2.1496,-2.1998,-2.2302,-2.2391,-2.2391,-2.2697,-2.2922,-2.3148,-2.41,-2.4746,-2.5201,0.0,0.0,0.0,0.0,0.0,0.0,0.0,0.0,0.0,0.0,0.0,-0.1751,-0.2329,-0.3377,-0.4223,-0.4677,-0.5664,-0.6263,-0.6263,-0.5445,-0.4732,-0.4236,-0.337,0.0,-0.2468,-0.3092,0.0,0.0,0.0,0.0,-0.9238,-0.9877,-1.1162,-1.2871,-1.1569,-1.014,-0.8521,0.0,0.0,0.0,0.0,-1.1487,0.0,0.0,0.0,0.0,0.0,0.0,0.0,0.0,0.0,0.0,0.0,0.0,0.0,0.0,0.0,0.0,0.0,0.0,0.0,0.0,0.0,0.0,0.0,0.0,0.0,0.0,0.0,0.0,0.0,0.0,0.0,0.0,0.0,0.0,0.0,0.0,0.0,0.0,0.0,0.0,0.0,0.0,0.0,0.0,0.0,-1.7756,-1.8143,-1.7308,-1.7189,-1.7922,-1.7004,-1.6513,-1.6562,-1.5218,-1.416,-1.3397,-1.3814,-1.4082,-1.421,-1.6586,-1.7707,-1.7937,-1.9367,-2.0515,-2.1482,-2.166,-2.1463,-2.1122,-2.1423,-2.1906,-2.2334,-2.2542,-2.3715,-2.5331,0.0,0.0,0.0,0.0,0.0,0.0,0.0,0.0,0.0,0.0,0.0,0.0,0.0,-0.3555,-0.4401,-0.4574,-0.5344,-0.5837,-0.5937,-0.5281,-0.4732,-0.4401,-0.3823,-0.3503,0.0,0.0,0.0,0.0,0.0,-0.5762,-0.8231,-0.8779,-0.9681,-1.0771,-1.1189,-1.1024,-1.0307,-0.9217,0.0,0.0,-1.126,-1.2516,0.0,0.0,0.0,0.0,0.0,0.0,0.0,0.0,0.0,0.0,0.0,0.0,0.0,0.0,0.0,0.0,0.0,0.0,0.0,0.0,0.0,0.0,0.0,0.0,0.0,0.0,0.0,0.0,0.0,0.0,0.0,0.0,0.0,0.0,0.0,0.0,0.0,0.0,0.0,0.0,0.0,0.0,0.0,0.0,0.0,0.0,-1.7475,-1.743,-1.7668,-1.8306,-1.7111,-1.6231,-1.5632,-1.4975,-1.4355,-1.3733,-1.3977,-1.4441,-1.4966,-1.6272,-1.7323,-1.8234,-1.883,-1.9457,-2.0093,-2.0564,-2.0564,-2.0326,-2.0517,-2.0796,-2.1235,-2.2114,-2.2908,-2.3589,0.0,0.0,0.0,0.0,0.0,0.0,0.0,0.0,0.0,0.0,0.0,0.0,0.0,0.0,-0.4463,-0.4739,-0.5179,-0.5454,-0.5555,-0.5062,-0.4684,-0.4408,-0.3993,-0.3771,-0.3757,0.0,0.0,0.0,0.0,0.0,0.0,0.0,-0.8592,-0.9546,-1.0054,0.0,0.0,0.0,0.0,-1.0971,0.0,0.0,-1.5137,0.0,0.0,0.0,0.0,0.0,0.0,0.0,0.0,0.0,0.0,0.0,0.0,0.0,0.0,0.0,0.0,0.0,0.0,0.0,0.0,0.0,0.0,0.0,0.0,0.0,0.0,0.0,0.0,0.0,0.0,0.0,0.0,0.0,0.0,0.0,0.0,0.0,0.0,0.0,0.0,0.0,0.0,0.0,0.0,0.0,-1.6935,-1.7238,-1.753,-1.788,-1.7118,-1.6124,-1.5114,-1.5016,-1.4603,-1.3882,-1.404,-1.4397,-1.5116,-1.5758,-1.6669,-1.7888,-1.836,-1.8894,-1.9471,-1.9837,-1.9904,-1.9592,-1.9763,-1.9926,-2.0261,-2.1434,-2.1964,-2.2441,0.0,0.0,0.0,0.0,0.0,0.0,0.0,0.0,0.0,0.0,0.0,0.0,0.0,0.0,0.0,-0.5266,-0.5203,-0.5093,-0.5077,-0.4746,-0.4415,-0.4249,-0.386,-0.3581,-0.346,-0.3693,0.0,0.0,0.0,0.0,0.0,0.0,-0.7911,0.0,-0.8412,-0.8866,-1.0077,0.0,-1.0644,-1.1063,0.0,-1.3944,-1.5246,0.0,0.0,0.0,-2.1258,-2.1279,0.0,0.0,0.0,0.0,0.0,0.0,0.0,0.0,0.0,0.0,0.0,0.0,0.0,0.0,0.0,0.0,0.0,0.0,0.0,0.0,0.0,0.0,0.0,0.0,0.0,0.0,0.0,0.0,0.0,0.0,0.0,0.0,0.0,0.0,0.0,0.0,0.0,0.0,0.0,-1.6444,-1.6711,-1.699,-1.6975,-1.6703,-1.6953,-1.647,-1.5034,-1.5219,-1.4891,-1.3779,-1.3787,-1.4065,-1.4488,-1.5014,-1.5828,-1.6978,-1.7842,-1.8735,-1.9579,-1.9579,-1.9313,-1.8892,-1.9217,-1.9277,-1.9197,-2.03,-2.1217,-2.2071,0.0,0.0,0.0,0.0,0.0,0.0,-0.0818,0.0,0.0,0.0,0.0,0.0,0.0,0.0,-0.4945,-0.5685,-0.5685,-0.5464,-0.4991,-0.4862,-0.4699,-0.4581,-0.4574,-0.4595,-0.4636,-0.4747,0.0,0.0,0.0,0.0,0.0,0.0,0.0,0.0,-0.7727,-0.8012,-0.8133,-0.8117,0.0,0.0,-1.0774,-1.3312,0.0,0.0,0.0,0.0,0.0,-2.3719,0.0,0.0,-2.1655,-1.927,0.0,0.0,0.0,0.0,0.0,0.0,-0.8446,0.0,0.0,0.0,0.0,0.0,0.0,0.0,0.0,0.0,0.0,0.0,0.0,0.0,0.0,0.0,0.0,0.0,0.0,0.0,0.0,0.0,0.0,0.0,0.0,0.0,0.0,0.0,-1.5378,-1.5922,-1.6405,-1.6886,-1.6874,-1.6188,-1.6759,-1.6471,-1.5063,-1.5145,-1.4608,-1.3338,-1.3728,-1.3982,-1.4141,-1.514,-1.6044,-1.6836,-1.7576,-1.7994,-1.8272,-1.8458,-1.8473,-1.8318,-1.8119,-1.8338,-1.8887,-1.927,-2.0091,-2.1255,0.0,0.0,0.1368,0.08,0.0,0.0211,-0.058,-0.1012,-0.1517,0.0,0.0,0.0,0.0,0.0,-0.5359,-0.556,-0.5751,-0.5498,-0.477,-0.4821,-0.4826,-0.4678,-0.4831,-0.499,-0.5233,-0.522,-0.5151,0.0,0.0,0.0,0.0,0.0,0.0,0.0,0.0,0.0,0.0,0.0,0.0,0.0,-1.1044,0.0,0.0,-1.9225,-2.186,0.0,0.0,0.0,-2.5669,-2.5591,-2.3691,0.0,0.0,0.0,0.0,0.0,0.0,0.0,0.0,0.0,0.0,0.0,0.0,0.0,-0.5664,-0.5882,-0.625,0.0,0.0,0.0,0.0,0.0,0.0,0.0,0.0,0.0,0.0,0.0,0.0,0.0,0.0,0.0,0.0,0.0,0.0,-1.4468,-1.5033,-1.5615,-1.6393,-1.6432,-1.6368,-1.6195,-1.6471,-1.6101,-1.5083,-1.4975,-1.4432,-1.3286,-1.3472,-1.3649,-1.3752,-1.4846,-1.5671,-1.6197,-1.6965,-1.734,-1.7434,-1.772,-1.786,-1.7945,-1.7584,-1.7728,-1.8143,-1.8564,-1.9346,-2.0238,0.0,0.0,0.1218,0.1135,0.1123,0.079,-0.04,-0.0538,-0.094,0.0,0.0,0.0,0.0,0.0,0.0,0.0,-0.5443,-0.5267,-0.4452,-0.4655,-0.4728,-0.4571,-0.4854,-0.5185,-0.5447,-0.542,-0.5412,-0.5459,0.0,0.0,0.0,0.0,0.0,0.0,-0.5207,-0.5095,0.0,0.0,0.0,-0.7738,-1.2087,-1.4691,0.0,0.0,-2.358,0.0,-2.5881,-2.6791,-2.7194,-2.6853,-2.5109,0.0,0.0,0.0,0.0,0.0,-1.3904,0.0,0.0,0.0,0.0,0.0,0.0,0.0,-0.5955,-0.598,-0.6019,0.0,0.0,0.0,0.0,0.0,0.0,0.0,0.0,0.0,0.0,0.0,0.0,0.0,0.0,0.0,0.0,-1.2991,-1.3791,-1.4263,-1.4871,-1.5626,-1.646,-1.5914,-1.5945,-1.6494,-1.6116,-1.5642,-1.5083,-1.4783,-1.4292,-1.3499,-1.3188,-1.3199,-1.3488,-1.4247,-1.4939,-1.5425,-1.6197,-1.6658,-1.6908,-1.7204,-1.7429,-1.764,-1.7483,-1.7239,-1.7174,-1.7904,-1.8659,-1.9415,0.1095,0.1328,0.1369,0.1346,0.0715,-0.0174,-0.1351,-0.1546,-0.1603,0.0,0.0,0.0,0.0,0.0,0.0,0.0,-0.5017,-0.4669,-0.3803,-0.4185,-0.4381,-0.4345,-0.5299,-0.5893,-0.5966,-0.6388,-0.6395,-0.5951,0.0,0.0,0.0,0.0,0.0,0.0,-0.486,-0.4794,0.0,0.0,0.0,-0.704,-0.9162,0.0,-1.7649,-1.9108,-2.2203,-2.5677,-2.6224,-2.7087,-2.7804,0.0,-2.5098,-2.3263,0.0,0.0,0.0,0.0,0.0,0.0,0.0,0.0,0.0,0.0,0.0,0.0,-0.4384,-0.4873,-0.5859,0.0,0.0,0.0,0.0,0.0,0.0,0.0,0.0,0.0,0.0,0.0,0.0,0.0,0.0,0.0,0.0,-1.3259,-1.3921,-1.4522,-1.5395,-1.5959,-1.596,-1.6202,-1.6236,-1.594,-1.6021,-1.575,-1.5083,-1.4592,-1.4005,-1.3225,-1.3003,-1.2991,-1.3237,-1.3458,-1.4327,-1.5724,-1.5927,-1.6562,-1.7414,-1.7008,-1.6873,-1.6954,-1.6873,-1.7003,-1.7092,-1.696,-1.775,-1.8993,0.0471,0.1051,0.1269,0.0768,0.0306,-0.0352,-0.1392,-0.155,0.0,0.0,0.0,0.0,0.0,0.0,0.0,0.0,0.0,0.0,0.0,-0.3946,-0.4221,-0.4148,-0.5164,-0.594,-0.631,-0.6741,-0.7003,-0.6942,0.0,0.0,0.0,0.0,0.0,0.0,0.0,0.0,0.0,0.0,-0.6357,-0.6966,-1.0063,0.0,-1.7136,-1.9287,-2.2178,-2.4939,-2.5366,-2.5884,-2.6208,-2.5393,-2.4417,0.0,0.0,-2.0411,-1.9886,0.0,-1.745,-1.716,0.0,0.0,0.0,-0.8672,0.0,0.0,0.0,-0.5228,-0.5712,-0.7041,0.0,0.0,0.0,0.0,0.0,0.0,0.0,0.0,0.0,0.0,0.0,0.0,0.0,0.0,0.0,-1.3411,-1.3944,-1.4734,-1.5422,-1.5967,-1.6357,-1.6184,-1.6021,-1.6211,-1.598,-1.5604,-1.5083,-1.4592,-1.3945,-1.3351,-1.2995,-1.2887,-1.2969,-1.3284,-1.3823,-1.47,-1.5454,-1.6216,-1.6729,-1.642,-1.6317,-1.6251,-1.6349,-1.6429,-1.6517,-1.6693,-1.7194,-1.7907,-0.004,0.0593,0.0891,0.014,0.0,-0.0302,-0.1198,-0.1328,0.0,0.0,0.0,0.0,0.0,0.0,0.0,0.0,0.0,0.0,0.0,0.0,-0.3841,-0.403,-0.4952,-0.5755,-0.6535,-0.7003,-0.7426,-0.7788,0.0,0.0,0.0,0.0,0.0,0.0,0.0,0.0,0.0,0.0,0.0,-0.793,0.0,-1.3976,-1.5443,-1.939,-2.1686,-2.3103,-2.4031,-2.4305,-2.4422,-2.4068,0.0,-2.261,-2.1835,-2.1881,0.0,0.0,0.0,0.0,0.0,0.0,0.0,0.0,0.0,-0.7707,0.0,0.0,0.0,-0.7268,0.0,0.0,0.0,0.0,0.0,0.0,0.0,0.0,0.0,0.0,0.0,0.0,0.0,0.0,0.0,-1.3526,-1.3892,-1.5204,-1.5259,-1.5697,-1.6742,-1.603,-1.5787,-1.6299,-1.5763,-1.5325,-1.4994,-1.4567,-1.4112,-1.3534,-1.305,-1.2759,-1.2867,-1.3244,-1.3437,-1.346,-1.49,-1.5632,-1.5692,-1.5822,-1.5815,-1.566,-1.6029,-1.5958,-1.5818,-1.6402,-1.6663,-1.6909,0.0168,0.0093,0.0101,0.0,0.0,-0.0266,-0.1144,-0.1328,0.0,0.0,0.0,0.0,0.0,0.0,0.0,0.0,0.0,0.0,-0.305,0.0,0.0,-0.4146,-0.5038,-0.5809,-0.658,-0.7462,-0.7876,-0.7787,-0.7886,0.0,0.0,0.0,0.0,0.0,-0.6686,0.0,0.0,0.0,-0.8729,0.0,-1.2229,-1.2499,0.0,-1.655,-1.8816,-2.0261,-2.2843,-2.3807,-2.3715,0.0,-2.2552,-2.2173,0.0,-2.1531,0.0,0.0,0.0,0.0,0.0,0.0,0.0,0.0,-1.0651,0.0,0.0,0.0,-0.7057,-0.6457,0.0,0.0,0.0,0.0,0.0,0.0,0.0,0.0,0.0,0.0,0.0,0.0,0.0,0.0,0.0,0.0,-1.446,-1.602,-1.509,-1.4961,-1.6031,-1.6031,-1.5824,-1.5493,-1.565,-1.5418,-1.4608,-1.4671,-1.44,-1.3727,-1.3147,-1.2759,-1.2867,-1.3244,-1.3244,-1.2953,-1.4051,-1.4707,-1.5163,-1.5648,-1.5491,-1.5187,-1.5523,-1.5773,-1.5721,-1.5741,-1.6064,-1.6414,0.0186,0.0,0.0,0.0,0.0,-0.0127,-0.0508,-0.0153,0.0,0.0,0.0,0.0,0.0,0.0,0.0,0.0,0.0,-0.4728,0.0,0.0,0.0,0.0,-0.4713,-0.5625,-0.6771,-0.7466,-0.8055,-0.8546,-0.9082,0.0,0.0,0.0,0.0,0.0,-0.8205,0.0,-0.9087,0.0,0.0,0.0,0.0,0.0,0.0,-1.5848,-1.854,-1.9779,-2.1762,-2.2365,-2.2188,0.0,-2.1421,0.0,0.0,0.0,0.0,0.0,0.0,0.0,0.0,0.0,0.0,0.0,0.0,0.0,0.0,0.0,-0.7098,0.0,0.0,0.0,0.0,0.0,0.0,0.0,0.0,0.0,0.0,0.0,0.0,0.0,0.0,0.0,0.0,0.0,0.0,0.0,0.0,-1.467,-1.5864,-1.5661,-1.5469,-1.528,-1.4999,-1.476,-1.4667,-1.4316,-1.4194,-1.4112,-1.3244,-1.2759,-1.2759,-1.2953,-1.2964,-1.2878,-1.3545,-1.4071,-1.4622,-1.5041,-1.5281,-1.5434,-1.5074,-1.5145,-1.5311,-1.5429,-1.5834,-1.648,0.0466,0.0,0.0,0.0,0.0,0.0489,0.0381,0.0471,0.0,0.0,0.0,0.0,-0.3853,-0.4289,0.0,0.0,0.0,-0.5497,0.0,0.0,-0.3576,0.0,-0.4389,0.0,0.0,-0.7234,-0.7942,-0.8856,-0.9755,0.0,0.0,0.0,0.0,0.0,0.0,-0.9981,-1.0875,0.0,0.0,-1.0519,-1.1023,-1.1305,-1.1689,-1.5611,-1.8122,-1.9564,-2.0442,-2.0791,-2.0624,-2.0432,-2.0051,0.0,-2.1047,0.0,0.0,0.0,0.0,0.0,-1.8212,0.0,0.0,0.0,0.0,0.0,0.0,0.0,0.0,0.0,0.0,0.0,0.0,0.0,0.0,0.0,0.0,0.0,0.0,0.0,0.0,0.0,0.0,0.0,0.0,0.0,0.0,0.0,0.0,-1.3948,-1.5389,-1.5118,-1.488,-1.4925,-1.4563,-1.4382,-1.4553,-1.4297,-1.4239,-1.4292,-1.3437,-1.2953,-1.2759,-1.2759,-1.2759,-1.2802,-1.3405,-1.3762,-1.3975,-1.4407,-1.4877,-1.5186,-1.4677,-1.4549,-1.4826,-1.5238,-1.5597,-1.6223,0.1193,0.1407,0.0,0.0,0.0,0.0,0.0,0.0,0.0,0.0,0.0,0.0,0.0,0.0,0.0,0.0,0.0,-0.3642,-0.3398,0.0,-0.3946,0.0,0.0,0.0,0.0,0.0,-0.7428,-0.8151,-0.9265,0.0,0.0,0.0,0.0,0.0,0.0,-1.0849,-1.1757,-1.128,-1.2414,-1.4307,-1.3669,-1.4374,-1.5878,0.0,-1.6653,-1.8799,-1.9062,0.0,0.0,-1.8787,-1.8685,0.0,0.0,0.0,0.0,0.0,0.0,0.0,0.0,0.0,0.0,-1.3118,0.0,0.0,0.0,0.0,-0.8127,0.0,0.0,0.0,0.0,0.0,0.0,0.0,0.0,0.0,0.0,0.0,0.0,0.0,0.0,0.0,0.0,0.0,0.0,0.0,0.0,0.0,-1.4141,-1.4093,-1.3999,-1.3926,-1.4408,-1.4493,-1.4255,-1.4795,-1.4783,-1.4292,-1.3727,-1.3244,-1.2759,-1.2759,-1.2759,-1.2813,-1.376,-1.3846,-1.3423,-1.3975,-1.4166,-1.4168,-1.4524,-1.4328,-1.4099,-1.4998,-1.5177,-1.515,0.0,0.0,0.0,0.0,0.0,0.0,0.0,-0.0142,0.0,0.0,0.0,0.0,0.0,0.0,-0.5856,0.0,0.0,-0.5115,-0.5061,-0.4598,0.0,0.0,0.0,-0.5106,0.0,0.0,0.0,0.0,0.0,0.0,0.0,0.0,0.0,0.0,0.0,-1.1662,0.0,0.0,0.0,0.0,0.0,-1.394,-1.5337,0.0,0.0,-1.751,-1.8091,-1.856,0.0,-1.8611,-1.8703,-1.8875,-1.9282,-1.9404,-1.9291,-1.9113,-1.8887,0.0,0.0,0.0,-1.5705,-1.4011,0.0,0.0,0.0,0.0,0.0,0.0,0.0,0.0,0.0,0.0,0.0,0.0,0.0,0.0,0.0,0.0,0.0,0.0,0.0,0.0,0.0,0.0,0.0,0.0,0.0,0.0,0.0,-1.3917,-1.3899,-1.3696,-1.3791,-1.3931,-1.4111,-1.3749,-1.3787,-1.4292,-1.3437,-1.2953,-1.2759,-1.2759,-1.2294,-1.1503,-1.2538,-1.2663,-1.2237,-1.2976,-1.2994,-1.2596,-1.341,-1.3629,-1.3751,-1.4518,-1.476,-1.4823,0.2007,0.0,0.0,0.0,0.0,0.0,0.0,0.0,0.0,0.0,-0.1382,0.0,-0.1426,0.0,-0.6108,0.0,-0.5601,-0.5375,-0.5622,-0.4751,0.0,-0.4851,-0.4692,0.0,0.0,0.0,0.0,0.0,0.0,-0.908,0.0,0.0,0.0,0.0,0.0,0.0,0.0,0.0,-1.2843,0.0,0.0,-1.3906,0.0,0.0,-1.6196,-1.6534,0.0,-1.7846,-1.8444,-1.8182,-1.8387,-1.8785,-1.9211,-1.8864,-1.8402,-1.8653,-1.8127,-1.7423,-1.7211,-1.6324,0.0,-1.4138,-1.2111,0.0,-0.7901,0.0,0.0,0.0,0.0,0.0,0.0,0.0,0.0,0.0,0.0,0.0,0.0,-0.628,0.0,0.0,0.0,0.0,0.0,0.0,0.0,0.0,0.0,0.0,0.0,0.0,-1.3666,-1.3564,-1.3505,-1.3671,-1.4143,-1.3358,-1.3433,-1.4292,-1.3244,-1.2759,-1.2759,-1.2565,-1.187,-1.0833,-1.1502,-1.1673,-1.1481,-1.201,-1.2133,-1.1885,-1.2653,-1.2961,-1.3121,-1.3789,-1.4298,-1.4808,0.0,0.0,0.0,0.0,0.1962,0.0,0.0,0.0,-0.1343,0.0,-0.2847,-0.3954,-0.3967,-0.5339,-0.6455,-0.6455,-0.5124,0.0,-0.4907,-0.4389,0.0,0.0,-0.4591,-0.4692,-0.4984,0.0,0.0,0.0,0.0,0.0,0.0,0.0,0.0,0.0,-1.0977,0.0,-1.2452,-1.2548,-1.3324,-1.4247,-1.4336,-1.4334,-1.4334,-1.4489,-1.5051,-1.5883,-1.5883,-1.6854,-1.7765,-1.7536,-1.7873,-1.8583,-1.8162,-1.818,-1.8321,-1.7876,-1.7539,-1.7238,-1.6768,-1.6332,-1.5554,-1.3644,0.0,0.0,0.0,0.0,-1.0159,0.0,0.0,0.0,0.0,0.0,0.0,0.0,0.0,0.0,0.0,0.0,0.0,0.0,0.0,0.0,0.0,0.0,0.0,0.0,0.0,0.0,0.0,0.0,-1.3203,-1.3508,-1.3608,-1.3819,-1.4153,-1.3767,-1.3727,-1.4196,-1.3244,-1.2759,-1.2759,-1.2273,-1.1625,-1.0915,-1.0741,-1.0899,-1.127,-1.1191,-1.1521,-1.1921,-1.2184,-1.2377,-1.2483,-1.3121,-1.3943,-1.4969,0.0,0.1741,0.266,0.0,0.1316,0.03,0.0,0.0,0.0,0.0,-0.2994,-0.4019,-0.4196,-0.4536,-0.4845,-0.4845,-0.4748,0.0,0.0,0.0,0.0,-0.4812,-0.4636,-0.4669,-0.4752,-0.4399,0.0,-0.5708,0.0,0.0,-0.6579,0.0,0.0,0.0,0.0,0.0,-1.1063,-1.1736,-1.2373,-1.3078,-1.3241,-1.3032,0.0,0.0,-1.3562,-1.4225,-1.5216,-1.5951,-1.6453,-1.6703,-1.7159,-1.7611,-1.7961,-1.8031,-1.7915,-1.7355,-1.7076,-1.6583,-1.5544,-1.4978,-1.4555,-1.4151,-1.2908,-1.1751,0.0,0.0,0.0,0.0,0.0,0.0,0.0,0.0,0.0,0.0,0.0,0.0,0.0,0.0,0.0,0.0,0.0,0.0,0.0,0.0,0.0,0.0,0.0,0.0,0.0,0.0,0.0,-1.3955,-1.3903,-1.3802,-1.3689,-1.3578,-1.334,-1.3147,-1.2953,-1.2565,-1.2175,-1.2078,-1.1582,-1.0923,-1.0814,-1.0741,-1.061,-1.0736,-1.0778,-1.0747,-1.1448,-1.1772,-1.2088,-1.3093,-1.3796,-1.4426,-0.0424,0.0,0.0,0.2199,0.0,0.0,-0.0061,0.0,0.0,-0.182,-0.2598,0.0,-0.4158,-0.4308,-0.4077,-0.348,-0.3584,0.0,0.0,0.0,0.0,-0.4473,-0.4457,-0.4468,-0.4518,-0.4276,0.0,-0.4953,0.0,0.0,-0.5063,0.0,0.0,0.0,0.0,-0.9699,0.0,-1.1253,-1.1907,-1.1918,-1.2241,0.0,0.0,-1.213,-1.2458,-1.2899,-1.3894,-1.4944,-1.5909,-1.6048,-1.6652,-1.708,-1.733,-1.7283,-1.7067,-1.6806,-1.6112,-1.5325,-1.4781,-1.4005,-1.3435,-1.3764,-1.2725,-1.1813,-1.193,-1.1563,-1.1187,0.0,0.0,0.0,0.0,0.0,0.0,0.0,0.0,0.0,0.0,0.0,0.0,0.0,0.0,0.0,0.0,0.0,0.0,0.0,0.0,0.0,0.0,0.0,0.0,-1.4342,-1.3947,-1.3681,-1.3733,-1.3205,-1.3031,-1.305,-1.2662,-1.237,-1.2068,-1.1883,-1.1463,-1.0888,-1.0783,-1.0527,-1.0059,-1.0395,-1.0416,-1.036,-1.1087,-1.1441,-1.1652,-1.2305,-1.2964,-1.3621,0.0,0.0,0.0,0.0,0.0,0.0,0.0,0.0671,0.0,-0.1604,0.0,-0.2583,-0.4155,-0.4174,-0.3579,-0.2468,0.0,-0.2581,-0.3245,-0.3835,-0.4161,-0.3953,-0.416,-0.4276,-0.4139,-0.4525,0.0,0.0,0.0,0.0,0.0,0.0,0.0,0.0,0.0,0.0,0.0,-1.1016,-1.1476,0.0,-1.1421,-1.1594,-1.1932,-1.1425,-1.1524,-1.1926,-1.2241,-1.361,-1.5392,-1.5401,-1.6005,-1.6733,-1.6708,-1.6382,-1.6057,-1.6057,-1.507,-1.3976,-1.4148,-1.3335,-1.2682,-1.2975,-1.2564,-1.204,-1.1843,-1.166,-1.162,-1.1844,-1.1177,-1.0896,0.0,0.0,0.0,0.0,0.0,0.0,0.0,0.0,0.0,0.0,0.0,0.0,0.0,0.0,0.0,0.0,0.0,0.0,0.0,0.0,0.0,-1.4444,-1.3737,-1.3557,-1.4099,0.0,-1.2543,-1.3091,-1.2349,-1.198,-1.2068,-1.158,-1.1206,-1.0845,-1.0456,-1.0134,-0.9699,-1.0045,-1.0222,-1.034,-1.0937,-1.1221,-1.1226,-1.1247,-1.1776,-1.27,0.0,0.0,0.0,0.0,0.0,0.2795,0.3123,0.2195,0.1015,-0.0176,-0.035,-0.1402,-0.4068,-0.323,-0.2478,-0.2322,-0.2243,0.0,0.0,0.0,0.0,-0.412,-0.4101,-0.4142,-0.3968,-0.3733,-0.3448,0.0,0.0,0.0,0.0,0.0,0.0,0.0,0.0,0.0,-0.9581,-1.0632,0.0,-1.1695,-1.1641,-1.1086,-1.0583,-1.0583,-1.0567,-1.0535,-1.0608,-1.174,-1.3618,-1.4556,-1.5128,-1.547,-1.6059,-1.609,-1.5624,-1.5032,-1.4642,-1.4138,-1.3116,-1.2953,-1.3021,-1.2666,-1.2459,-1.2431,-1.2525,-1.252,-1.247,-1.262,-1.2301,-1.1663,-1.0543,0.0,0.0,0.0,0.0,0.0,0.0,0.0,0.0,0.0,0.0,0.0,0.0,0.0,0.0,0.0,0.0,0.0,0.0,0.0,0.0,0.0,-1.3071,0.0,0.0,0.0,-1.227,-1.2257,-1.1879,-1.159,-1.1385,-1.0806,-1.0536,-1.0348,-0.9784,-0.9436,-0.932,-0.9432,-0.9717,-1.0074,-1.0314,-1.0513,-1.0678,-1.0809,-1.0982,-1.1319,0.0,0.0,0.0,0.0,0.0,0.0,0.0,0.2657,0.0,0.0217,-0.0646,-0.1374,-0.1989,-0.2208,-0.227,-0.2328,-0.2281,-0.2245,-0.2241,-0.3004,-0.347,-0.3798,-0.4018,0.0,-0.3954,-0.3743,-0.325,-0.2408,0.0,0.0,0.0,0.0,0.0,0.0,0.0,-0.7365,0.0,0.0,0.0,-1.1214,-1.1183,-1.0753,-1.0248,-0.9963,-0.9948,-0.9899,-0.9844,-1.0506,-1.1589,-1.2969,-1.3899,-1.4462,-1.5146,-1.5026,-1.458,-1.4284,-1.3634,-1.2893,-1.2499,-1.2387,-1.2395,-1.2284,-1.2311,-1.2459,-1.2561,-1.2304,-1.2122,-1.2314,-1.2014,-1.1222,-0.9591,-0.7849,0.0,0.0,0.0,0.0,0.0,0.0,0.0,0.0,0.0,0.0,0.0,0.0,0.0,0.0,0.0,0.0,0.0,0.0,0.0,0.0,0.0,0.0,0.0,0.0,0.0,-1.2015,-1.1773,-1.1394,-1.1002,-1.0502,-1.0112,-0.979,-0.9457,-0.921,-0.896,-0.9312,-0.9598,-0.9944,-1.01,-1.0249,-1.0399,-1.0548,-1.0649,-1.0891,0.0,0.0986,0.0,0.0,0.1543,0.0,0.3831,0.2846,0.1514,0.0134,-0.1346,-0.1616,-0.0135,-0.1413,-0.2333,-0.2333,-0.2309,-0.2255,-0.2161,-0.2692,-0.3199,-0.3656,-0.3891,-0.4106,-0.4036,-0.3878,-0.3277,0.0,0.0,0.0,0.0,0.0,0.0,0.0,0.0,0.0,0.0,0.0,-1.0251,-1.0736,-1.071,-1.0383,-1.0018,-0.9826,-0.9478,-0.9224,-0.9224,-0.944,-0.9753,-1.1097,-1.239,-1.3483,-1.3826,-1.3839,-1.3542,-1.3542,-1.2783,-1.192,-1.2132,-1.2032,-1.1953,-1.2095,-1.223,-1.2321,-1.2452,-1.2058,-1.1668,-1.1831,-1.1463,-1.0648,-0.9275,-0.8151,0.0,0.0,0.0,0.0,0.0,0.0,0.0,0.0,0.0,0.0,0.0,0.0,0.0,0.0,0.0,0.0,0.0,0.0,0.0,0.0,0.0,-1.2752,-1.3342,0.0,-1.2356,-1.1848,-1.1656,-1.1296,-1.0708,-1.0207,-0.9797,-0.9439,-0.9102,-0.8899,-0.8832,-0.9225,-0.9557,-0.9836,-0.9992,-1.0002,-1.0129,-1.0419,-1.0555,-1.0531,0.0,0.0,0.0,0.0,0.0,0.0,0.0,0.3438,0.1514,0.0134,-0.1346,-0.1616,-0.0135,-0.1413,-0.2333,-0.2333,-0.2234,-0.2166,-0.2155,-0.2289,-0.2793,-0.4007,-0.4164,-0.4136,-0.4036,-0.37,-0.3224,0.0,0.0,0.0,0.0,0.0,0.0,0.0,0.0,0.0,0.0,-0.9813,-1.0644,-1.1307,-1.1103,-1.0362,-0.9307,-0.9602,-0.9135,-0.8369,-0.8369,-0.8475,-0.8874,-0.9264,-1.0384,-1.1779,-1.2554,-1.2874,-1.2657,-1.2359,-1.2496,-1.2604,-1.1866,-1.2067,-1.2411,-1.2177,-1.223,-1.2321,-1.2452,-1.2163,-1.184,-1.1861,-1.1317,-1.0707,-1.0471,-0.9393,-0.7626,0.0,0.0,0.0,0.0,0.0,0.0,0.0,0.0,0.0,0.0,0.0,0.0,0.0,0.0,0.0,0.0,0.0,0.0,-1.0696,0.0,-1.1565,-1.2151,-1.2404,-1.2103,-1.1241,-1.1288,-1.0904,-1.0224,-0.9838,-0.9657,-0.9482,-0.8526,-0.8495,-0.9123,-0.9306,-0.9557,-0.9836,-0.9992,-0.981,-0.9731,-1.021,-1.0181,-0.9954,0.0,0.0,0.0,0.0,0.0,0.0,0.0,0.3098,0.2506,0.1397,-0.0,-0.0673,-0.0,-0.1373,-0.2226,-0.2226,-0.2183,-0.2155,-0.2155,-0.2155,-0.2812,-0.4105,-0.4204,-0.4044,-0.3883,-0.3615,-0.3024,0.0,0.0,0.0,0.0,0.0,0.0,0.0,0.0,-0.7593,-0.949,-1.0037,-1.0746,-1.149,-1.0872,-1.0353,-0.983,-0.9598,-0.9238,-0.8616,-0.8386,-0.8344,-0.8471,-0.8711,-0.9732,-1.1034,-1.1677,-1.2017,-1.2025,-1.2088,-1.2065,-1.2057,-1.1733,-1.2051,-1.2386,-1.2168,-1.2343,-1.2571,-1.2497,-1.2018,-1.1585,-1.1429,-1.0717,-1.005,-0.9938,-0.9048,-0.8043,0.0,0.0,0.0,0.0,0.0,0.0,0.0,0.0,0.0,0.0,0.0,0.0,0.0,0.0,0.0,0.0,0.0,0.0,-0.9083,0.0,-1.1764,-1.1955,-1.2657,-1.2507,-1.1589,-1.1337,-1.0708,-0.983,-0.9038,-0.8641,-0.8656,-0.8398,-0.8682,-0.9164,-0.932,-0.9557,-0.9829,-0.989,-0.9861,-0.9843,-0.9574,-0.9908,-1.0346,0.1087,0.0,0.1246,0.0,0.156,0.1761,0.222,0.3029,0.3196,0.2031,0.0499,-0.0519,-0.0671,-0.1616,-0.2155,-0.2155,-0.2155,-0.2155,-0.2155,-0.2558,-0.323,-0.4308,-0.3988,0.0,-0.3689,-0.3406,-0.2968,-0.2014,-0.1653,0.0,0.0,0.0,0.0,0.0,-0.6261,-0.7573,-0.9294,-0.9875,-1.0541,-1.1138,-1.0768,-1.0387,-1.0094,-0.9549,-0.9086,-0.8548,-0.834,-0.8158,-0.7981,-0.8424,-0.9165,-1.0029,-1.0639,-1.0975,-1.1283,-1.1593,-1.1743,-1.1769,-1.1674,-1.2012,-1.2386,-1.2168,-1.2343,-1.2599,-1.2384,-1.1818,-1.1353,-1.0878,-1.0259,-0.9828,-0.9604,-0.8852,-0.8408,-0.862,0.0,0.0,0.0,0.0,0.0,0.0,0.0,-0.9508,-0.9659,0.0,0.0,0.0,0.0,0.0,0.0,0.0,0.0,0.0,0.0,0.0,0.0,-1.2772,-1.2796,-1.1994,-1.1443,-1.0609,-0.9327,-0.8435,-0.7939,-0.7753,-0.8323,-0.8662,-0.893,-0.9286,-0.953,-0.964,-0.9802,-0.9787,-0.964,-0.9265,-0.9468,-0.9961,0.1076,0.1268,0.147,0.1594,0.1615,0.207,0.3329,0.3591,0.3145,0.1909,-0.0337,-0.1889,-0.2129,-0.2155,-0.2155,-0.2155,-0.2155,-0.2155,-0.2155,-0.3501,-0.4308,0.0,0.0,-0.3341,-0.3689,-0.3074,-0.2807,-0.2899,0.0,0.0,-0.0458,0.0,-0.3355,-0.5609,-0.6369,-0.7282,-0.8372,-0.9532,-1.0135,-1.0308,-1.0581,-1.0225,-0.973,-0.9287,-0.8503,-0.7942,-0.8032,-0.7729,-0.7562,-0.7897,-0.8335,-0.8738,-0.945,-0.9901,-1.0243,-1.0552,-1.1368,-1.2157,-1.1665,-1.2051,-1.2386,-1.2168,-1.223,-1.2256,-1.2055,-1.1639,-1.1125,-1.0354,-1.0224,-1.0175,-1.0023,-0.9253,-0.8552,-0.856,0.0,0.0,0.0,0.0,0.0,0.0,-0.8704,-0.7203,-0.7144,0.0,0.0,0.0,0.0,0.0,0.0,0.0,0.0,-0.8876,-1.034,0.0,-1.2079,-1.2778,-1.2778,-1.2221,-1.1566,-1.0404,-0.8825,-0.8237,-0.7739,-0.7247,-0.8153,-0.8381,-0.8323,-0.9084,-0.9235,-0.9136,-0.964,-0.9335,-0.8604,-0.9457,-0.897,-0.7948,0.1321,0.1449,0.157,0.161,0.2223,0.2897,0.355,0.2242,0.0673,-0.0449,-0.1346,-0.1855,-0.2016,-0.2033,-0.2033,0.0,-0.3029,-0.3633,0.0,-0.4039,-0.4037,-0.3633,-0.3362,-0.3088,-0.3076,-0.2821,-0.2541,-0.2372,0.0,0.0,0.0,-0.3272,-0.4388,-0.5683,-0.6173,-0.7355,-0.8887,-0.8553,-0.8999,-0.9724,-0.9407,-0.9404,-0.9249,-0.8655,-0.8267,-0.8015,-0.7651,-0.7379,-0.7131,-0.7077,-0.7139,-0.7185,-0.7803,-0.8845,-1.0044,-1.0133,-1.0655,-1.1063,-1.0871,-1.0951,-1.1253,-1.1205,-1.1335,-1.1533,-1.1809,-1.0898,-0.9823,-0.9306,-0.9076,-0.9064,-0.9199,-0.8916,-0.8582,-0.8562,-0.903,0.0,0.0,0.0,0.0,0.0,0.0,-0.7704,0.0,-0.712,0.0,0.0,0.0,0.0,0.0,0.0,0.0,0.0,-1.0871,0.0,-1.2069,-1.2634,-1.2719,-1.2136,-1.1898,-1.0502,-0.8237,-0.8038,-0.754,-0.6648,-0.7328,-0.7744,-0.8087,-0.852,-0.8621,-0.8765,-0.9004,-0.8976,-0.8726,-0.8604,-0.8238,-0.7937,0.2534,0.2733,0.2826,0.2826,0.3027,0.3311,0.355,0.1906,0.0112,-0.157,-0.1458,-0.138,-0.1963,-0.1977,0.0,-0.2718,-0.3649,-0.4308,-0.4308,-0.4308,-0.3633,-0.2018,-0.2582,-0.2857,-0.2828,0.0,0.0,-0.2143,-0.2236,-0.2456,-0.2792,-0.3677,-0.4374,-0.4885,-0.5622,-0.666,-0.7736,-0.7706,-0.8086,-0.905,-0.8693,-0.878,-0.9081,-0.8189,-0.7631,-0.7416,-0.6902,-0.648,-0.624,-0.6366,-0.6437,-0.6496,-0.6788,-0.7711,-0.8673,-0.9239,-0.9798,-1.0098,-1.0215,-1.0454,-1.08,-1.095,-1.0948,-1.0998,-1.1152,-1.0313,-0.948,-0.9048,-0.8796,-0.8777,-0.8995,-0.885,-0.8747,-0.8694,-0.8888,-0.8972,-0.8882,0.0,0.0,0.0,0.0,0.0,0.0,-0.8086,-0.8026,0.0,0.0,0.0,0.0,0.0,0.0,-0.886,-1.131,0.0,-1.2544,-1.2578,-1.2377,-1.1887,-1.1326,-1.001,-0.7939,-0.754,-0.7036,-0.6448,-0.6746,-0.7217,-0.7684,-0.8015,-0.8202,-0.8421,-0.8973,-0.897,-0.8482,-0.7994,-0.7872,-0.7915,0.4264,0.475,0.0,0.0,0.3934,0.0,0.355,0.2578,0.1009,-0.1346,-0.0673,-0.046,-0.184,-0.1977,-0.2474,-0.3849,0.0,0.0,0.0,-0.4189,-0.2978,-0.0135,-0.1386,-0.2358,-0.2704,-0.2463,-0.2203,-0.2203,-0.2203,-0.2341,-0.2753,-0.3027,-0.3304,-0.3588,-0.4748,-0.534,-0.5494,-0.6697,-0.75,-0.7869,-0.7874,-0.8345,-0.8913,-0.7604,-0.6814,-0.6234,-0.582,-0.5564,-0.5292,-0.5781,-0.607,-0.633,-0.6254,-0.6234,-0.6642,-0.7738,-0.8647,-0.9268,-0.9557,-1.0143,-1.0834,-1.1002,-1.1001,-1.0587,-0.9979,-0.9785,-0.9638,-0.9309,-0.915,-0.9166,-0.9188,-0.906,-0.8847,-0.8802,-0.891,-0.8899,-0.8612,0.0,0.0,0.0,0.0,0.0,0.0,-0.9045,-0.9793,0.0,0.0,0.0,0.0,0.0,-0.8928,-1.0374,-1.1765,-1.2699,-1.3217,-1.2451,-1.1854,-1.1303,-1.0123,-0.8931,-0.7839,-0.6836,-0.6437,-0.6448,-0.638,-0.6801,-0.7258,-0.7768,-0.7938,-0.8093,-0.9136,-0.8908,-0.7823,-0.7739,-0.775,-0.775,0.0,0.0,0.4834,0.4834,0.3934,0.3311,0.355,0.2578,0.1234,-0.0224,-0.0224,-0.046,-0.184,-0.1977,-0.2642,-0.4076,-0.4275,-0.4308,-0.4308,-0.3359,-0.2004,-0.0143,-0.0848,-0.1399,-0.1529,-0.1952,-0.2234,-0.2234,-0.2234,-0.2374,-0.2791,-0.1954,-0.2115,-0.3162,-0.3461,-0.4087,-0.5052,-0.5218,-0.5683,-0.5995,-0.6444,-0.6668,-0.6777,-0.6455,-0.5932,-0.5431,-0.5288,-0.4877,-0.4296,-0.4422,-0.4427,-0.4434,-0.4505,-0.4393,-0.4736,-0.672,-0.7509,-0.7902,-0.8239,-0.8614,-0.9106,-0.9194,-0.9374,-0.9596,-0.9666,-0.9211,-0.8793,-0.8689,-0.8355,-0.8243,-0.8594,-0.8387,-0.8276,-0.8567,-0.8261,-0.796,-0.7851,-0.7235,0.0,0.0,-0.7645,-0.8078,-0.8847,-0.9783,-1.0078,0.0,0.0,0.0,0.0,-0.9588,-1.0345,-1.1194,-1.2429,-1.3092,-1.308,-1.2419,-1.1237,-0.9554,-0.8773,-0.7839,-0.6736,-0.6537,-0.6437,-0.6448,-0.6588,-0.6834,-0.7011,-0.7227,-0.7432,-0.7444,-0.7748,-0.7664,-0.7252,-0.6654,-0.6407,-0.6407,0.3362,0.4351,0.503,0.4863,0.3934,0.3311,0.355,0.2578,0.1346,0.0112,0.0,-0.0476,-0.1846,-0.1977,-0.2657,-0.4152,-0.4308,-0.4354,-0.4463,-0.2441,-0.0584,0.1022,0.0,-0.0575,-0.0561,-0.1705,-0.2286,-0.2285,-0.2298,-0.2168,-0.2179,-0.1454,-0.1318,-0.1779,-0.2522,-0.314,-0.3782,-0.4086,-0.4555,-0.4883,-0.531,-0.5663,-0.5903,-0.5871,-0.5459,-0.476,-0.4785,-0.4351,-0.3744,-0.3397,-0.3566,-0.3895,-0.3961,-0.3727,-0.3805,-0.5191,-0.6037,-0.6668,-0.724,-0.7796,-0.8182,-0.8371,-0.8488,-0.8654,-0.871,-0.8639,-0.8375,-0.8262,-0.8027,-0.7999,-0.8329,-0.8308,-0.8203,-0.8103,-0.7609,-0.7125,-0.6786,-0.6052,0.0,-0.6492,-0.7415,-0.8385,-0.9422,-1.0361,-1.0729,-1.0035,-1.0007,0.0,-0.9515,-1.0168,-1.0823,-1.1414,-1.2335,-1.2855,-1.2853,-1.205,-1.0932,-0.9487,-0.8512,-0.7579,-0.6757,-0.6535,-0.6497,-0.6616,-0.6861,-0.6942,-0.6818,-0.7089,-0.7086,-0.6914,-0.707,-0.6951,-0.6584,-0.6085,-0.5916,-0.5916,0.3362,0.4372,0.5064,0.4866,0.4,0.3352,0.3556,0.2602,0.148,0.0455,0.0119,-0.0496,-0.1876,-0.2004,-0.2556,-0.3887,-0.3934,-0.4169,-0.4651,-0.175,0.073,0.2191,0.1196,0.0297,0.0142,-0.116,-0.1904,-0.1906,-0.222,-0.1945,-0.1211,-0.106,-0.0606,-0.0,-0.1519,-0.228,-0.259,-0.3197,-0.3676,-0.4017,-0.4433,-0.4932,-0.5329,-0.5274,-0.4823,-0.4247,-0.413,-0.3676,-0.3043,-0.2714,-0.2882,-0.352,-0.3585,-0.322,-0.3174,-0.3673,-0.4432,-0.5424,-0.6345,-0.7066,-0.7471,-0.7796,-0.774,-0.7619,-0.764,-0.7862,-0.7877,-0.7654,-0.7748,-0.7922,-0.8117,-0.83,-0.809,-0.763,-0.6938,-0.627,-0.5768,0.0,-0.5056,-0.5924,-0.7327,-0.8648,-0.9688,-1.0815,-1.123,-1.0903,-1.0748,-1.0605,-1.0352,-1.0621,-1.0887,-1.123,-1.1964,-1.2305,-1.2324,-1.1605,-1.0727,-0.9818,-0.8557,-0.7717,-0.7089,-0.6572,-0.6503,-0.6706,-0.692,-0.6822,-0.6711,-0.6979,-0.6909,-0.658,-0.6842,-0.6579,-0.5916,-0.5916,-0.5794,-0.5548,0.3586,0.3701,0.4136,0.5084,0.4306,0.3545,0.358,0.2706,0.1948,0.1705,0.0736,-0.0503,-0.1851,-0.2127,-0.2268,-0.2556,-0.2527,-0.3179,-0.4662,-0.175,0.073,0.2337,0.2243,0.1514,0.0151,-0.0149,-0.0298,-0.0301,-0.1643,-0.1946,-0.1211,-0.0455,-0.0152,-0.0,-0.0308,-0.1238,-0.25,-0.2656,-0.2659,-0.282,-0.3595,-0.4068,-0.4081,-0.4388,-0.4077,-0.3615,-0.378,-0.2874,-0.1618,-0.1586,-0.1607,-0.1638,-0.1742,-0.1709,-0.1833,-0.2948,-0.3578,-0.4169,-0.5208,-0.589,-0.6306,-0.6879,-0.6784,-0.6584,-0.6812,-0.6685,-0.6458,-0.6684,-0.7061,-0.7422,-0.762,-0.7521,-0.7401,-0.7271,-0.6339,-0.5455,-0.5004,0.0,-0.5229,-0.6299,-0.7374,-0.8574,-1.0014,-1.0445,-1.0632,-1.0661,-1.0439,-1.0216,-1.0186,-1.0638,-1.0923,-1.1106,-1.1528,-1.1558,-1.1211,-1.0969,-1.0241,-0.8871,-0.8307,-0.761,-0.6855,-0.6358,-0.6132,-0.6066,-0.6055,-0.5971,-0.5962,-0.6538,-0.6689,-0.6609,-0.6235,-0.5989,-0.5916,-0.5916,-0.5179,-0.4198,0.3758,0.3679,0.4036,0.5158,0.4372,0.3589,0.3589,0.2727,0.1977,0.1977,0.0864,-0.0256,-0.0837,-0.1688,-0.2237,-0.2206,-0.2282,-0.2065,-0.1515,-0.0152,0.1064,0.1824,0.2304,0.1698,0.0154,0.0,0.0,0.0,0.0152,-0.0458,-0.1854,-0.0618,0.0,0.0,0.0,-0.0473,-0.111,-0.1587,-0.2055,-0.2514,-0.2985,-0.3142,-0.3142,-0.3927,-0.3927,-0.3462,-0.4119,-0.2865,-0.0479,0.0477,0.0479,0.016,0.0,-0.0153,-0.0757,-0.1737,-0.3083,-0.4362,-0.504,-0.5318,-0.5597,-0.6006,-0.5916,-0.5835,-0.615,-0.6116,-0.6093,-0.6436,-0.6761,-0.7067,-0.7328,-0.7208,-0.6978,-0.6507,-0.5562,0.0,0.0,-0.4381,-0.4741,-0.5969,-0.7368,-0.8627,-0.9647,-1.0231,-1.0508,-1.0372,-1.0144,-1.0015,-1.0168,-1.0397,-1.0756,-1.1172,-1.1281,-1.1152,-1.059,-1.0277,-0.954,-0.8293,-0.7489,-0.7047,-0.6736,-0.6213,-0.5898,-0.5803,-0.5799,-0.5845,-0.5858,-0.6212,-0.6463,-0.6378,-0.6305,-0.6073,-0.5794,-0.5056,-0.4444,-0.3951,0.3913,0.3801,0.4017,0.5276,0.4475,0.3673,0.3673,0.2755,0.1986,0.2015,0.0894,0.0,0.0,-0.1017,-0.1881,-0.2271,-0.2333,-0.1207,0.141,0.1579,0.158,0.1571,0.22,0.1877,0.062,0.0153,0.0153,0.062,0.1854,0.1242,-0.1257,-0.0473,0.0,0.0,0.0481,0.0641,0.048,-0.0481,-0.1276,-0.1894,-0.2215,-0.2377,-0.2534,-0.3,-0.2996,-0.2685,-0.3349,-0.1908,0.0474,0.2073,0.2067,0.1571,0.1533,0.1062,0.045,-0.0431,-0.2354,-0.4305,-0.4631,-0.4729,-0.4692,-0.4842,-0.49,-0.4837,-0.5129,-0.5414,-0.5704,-0.6033,-0.642,-0.6665,-0.6914,-0.6878,-0.6508,-0.5714,0.0,0.0,0.0,-0.4039,-0.4428,-0.5727,-0.7336,-0.8607,-0.9065,-0.9867,-1.0192,-0.9893,-0.9848,-0.9817,-0.9912,-1.0048,-1.0427,-1.1061,-1.102,-1.0798,-1.0214,-0.9652,-0.8879,-0.7939,-0.693,-0.6507,-0.6562,-0.6117,-0.5827,-0.557,-0.5669,-0.562,-0.5651,-0.5996,-0.6129,-0.6023,-0.6156,-0.6077,-0.5794,-0.4441,-0.3704,-0.3458,0.3948,0.3935,0.4291,0.5636,0.478,0.3924,0.3924,0.2831,0.2016,0.2127,0.084,0.0,0.0,-0.0144,-0.0729,-0.2184,-0.2283,-0.0939,0.22,0.2564,0.2571,0.2359,0.2514,0.2512,0.2354,0.0775,0.0775,0.2354,0.2482,0.2329,0.2043,0.0636,0.0,0.0,0.178,0.2425,0.2241,0.0647,-0.0,-0.032,-0.1132,-0.1786,-0.2271,-0.0802,-0.0319,-0.016,0.0639,0.0959,0.1278,0.2239,0.2399,0.2386,0.2329,0.2293,0.1808,0.0439,-0.1131,-0.2454,-0.3054,-0.3264,-0.323,-0.3222,-0.3218,-0.3331,-0.3655,-0.41,-0.4526,-0.4828,-0.5582,-0.6219,-0.6443,-0.6014,-0.5464,-0.512,0.0,0.0,-0.3175,-0.3886,-0.474,-0.5893,-0.7217,-0.8165,-0.8621,-0.9244,-0.9398,-0.9052,-0.9426,-0.9522,-0.9226,-0.9643,-1.0004,-1.0242,-1.0454,-1.037,-1.0096,-0.9212,-0.8534,-0.7939,-0.6936,-0.63,-0.6215,-0.58,-0.5653,-0.5629,-0.532,-0.5161,-0.5247,-0.5456,-0.5564,-0.5664,-0.5556,-0.561,-0.5794,-0.4441,-0.3211,-0.21,0.3828,0.3951,0.4074,0.4564,0.4198,0.3976,0.4049,0.3348,0.2644,0.22,0.1688,0.1,0.0144,0.0,-0.0586,-0.2215,-0.2261,-0.1384,0.0941,0.2078,0.2579,0.2568,0.2557,0.254,0.2515,0.1877,0.1407,0.0942,0.2048,0.2532,0.2544,0.193,0.1299,0.0817,0.1478,0.2133,0.2616,0.1971,0.1308,0.0809,-0.0162,-0.0651,-0.0813,-0.0162,0.0,0.0162,0.163,0.2267,0.272,0.2902,0.3202,0.3306,0.3227,0.2736,0.2103,0.0865,-0.0,-0.0822,-0.1492,-0.2411,-0.3173,-0.3146,-0.314,-0.3128,-0.3209,-0.3565,-0.3796,-0.4027,-0.4561,-0.4965,-0.5086,-0.5101,-0.4829,-0.4302,0.0,-0.3872,-0.3717,-0.4454,-0.5349,-0.6158,-0.7155,-0.7924,-0.8495,-0.8806,-0.8984,-0.8864,-0.9073,-0.9172,-0.9266,-0.9911,-1.0231,-1.0112,-1.0036,-0.9841,-0.9518,-0.9006,-0.835,-0.754,-0.6942,-0.6507,-0.621,-0.5653,-0.5507,-0.5536,-0.5058,-0.4886,-0.4924,-0.5008,-0.5017,-0.5017,-0.533,-0.5137,-0.4441,-0.3209,-0.2471,-0.1977,0.3748,0.391,0.4063,0.4063,0.3789,0.3794,0.4115,0.3831,0.3259,0.2507,0.2258,0.1857,0.0869,0.0585,-0.0148,-0.1487,-0.1507,-0.0921,0.0314,0.1762,0.2593,0.2593,0.2568,0.2555,0.2552,0.254,0.1898,0.079,0.2071,0.256,0.272,0.259,0.2293,0.1656,0.1662,0.2159,0.265,0.266,0.2315,0.1636,0.115,0.0658,0.0493,0.0819,0.0818,0.0983,0.2312,0.3098,0.3362,0.3565,0.3683,0.3753,0.3661,0.3163,0.2528,0.1578,0.1126,0.0696,-0.0278,-0.1236,-0.2297,-0.2678,-0.2798,-0.2778,-0.2867,-0.2986,-0.3112,-0.3484,-0.3918,-0.4345,-0.4468,-0.46,-0.4356,-0.3689,-0.3653,-0.3843,-0.3773,-0.4424,-0.5205,-0.619,-0.6857,-0.7493,-0.7918,-0.8229,-0.834,-0.8411,-0.8442,-0.8674,-0.9099,-0.9518,-0.9776,-0.9844,-0.9575,-0.9174,-0.8627,-0.8428,-0.7932,-0.7042,-0.6681,-0.6342,-0.5906,-0.5629,-0.5383,-0.5264,-0.4889,-0.4818,-0.4848,-0.4682,-0.4768,-0.4868,-0.4976,-0.4278,-0.3211,-0.2347,-0.1977,-0.1977,0.3848,0.4092,0.4308,0.4308,0.3578,0.339,0.4002,0.4229,0.3929,0.3038,0.2569,0.2322,0.2294,0.1765,0.0897,0.0149,0.0,0.0471,0.1257,0.2104,0.2616,0.2577,0.2537,0.2552,0.2631,0.2594,0.257,0.256,0.256,0.256,0.2562,0.2592,0.262,0.2649,0.2679,0.2676,0.2649,0.2679,0.2675,0.265,0.268,0.2188,0.1344,0.2326,0.2647,0.2647,0.3144,0.3261,0.3203,0.3727,0.3843,0.3753,0.3661,0.3572,0.3354,0.2478,0.2311,0.2002,0.0572,0.014,-0.0275,-0.1788,-0.2177,-0.2147,-0.2249,-0.2242,-0.2494,-0.3362,-0.4079,-0.4542,-0.4916,-0.4551,-0.4056,-0.3351,-0.2908,-0.2828,-0.3308,-0.3671,-0.4306,-0.5543,-0.6216,-0.6655,-0.6877,-0.7197,-0.7469,-0.7557,-0.7723,-0.8026,-0.8616,-0.843,-0.8611,-0.9268,-0.9076,-0.8474,-0.754,-0.7341,-0.7042,-0.6748,-0.6154,-0.5695,-0.5395,-0.5492,-0.5268,-0.4807,-0.4807,-0.4742,-0.4815,-0.4592,-0.4819,-0.5306,-0.4337,-0.3088,-0.1977,-0.1977,-0.1977,-0.1977,0.396,0.4142,0.4303,0.4303,0.4105,0.3791,0.3402,0.3855,0.4211,0.4038,0.3268,0.2595,0.2319,0.221,0.1942,0.1807,0.1227,0.1254,0.2252,0.2472,0.2667,0.2656,0.2645,0.265,0.2675,0.3328,0.3632,0.3428,0.3273,0.3113,0.3278,0.315,0.3004,0.2679,0.3358,0.3526,0.3182,0.3528,0.3524,0.3515,0.3362,0.2861,0.2355,0.3018,0.3013,0.2679,0.3181,0.3483,0.3764,0.456,0.4989,0.5057,0.4283,0.4017,0.3637,0.2598,0.2584,0.2715,0.2263,0.1117,-0.0138,-0.1114,-0.137,-0.1483,-0.1491,-0.1886,-0.2273,-0.2528,-0.3023,-0.3373,-0.3337,-0.3406,-0.3204,-0.2747,-0.292,-0.3082,-0.3102,-0.3957,-0.4837,-0.566,-0.6111,-0.6695,-0.7444,-0.7376,-0.7379,-0.7684,-0.778,-0.7916,-0.8341,-0.8379,-0.851,-0.8954,-0.8758,-0.8287,-0.7534,-0.7335,-0.6782,-0.6057,-0.5681,-0.5561,-0.5482,-0.519,-0.5033,-0.5226,-0.4561,-0.4349,-0.4599,-0.4137,-0.4008,-0.4061,-0.3013,-0.2347,-0.1977,-0.1977,-0.1358,-0.0617,0.4955,0.514,0.5298,0.4747,0.4451,0.4171,0.3643,0.3691,0.4031,0.4403,0.4033,0.321,0.2364,0.2395,0.2427,0.2457,0.2038,0.2243,0.2946,0.2832,0.3026,0.37,0.3701,0.3701,0.3701,0.4206,0.4354,0.3984,0.3826,0.3653,0.3139,0.3331,0.3184,0.3029,0.3533,0.3701,0.3701,0.3868,0.4036,0.4038,0.3887,0.3557,0.322,0.3745,0.3571,0.3387,0.3726,0.4025,0.4296,0.4923,0.5327,0.537,0.4768,0.4496,0.4253,0.3348,0.3331,0.3455,0.3286,0.2262,0.1124,0.0426,-0.028,-0.0689,-0.0692,-0.0964,-0.1503,-0.1767,-0.2148,-0.2379,-0.2849,-0.2933,-0.288,-0.2565,-0.2761,-0.2951,-0.2894,-0.3673,-0.4569,-0.5484,-0.5715,-0.6194,-0.7169,-0.6956,-0.6826,-0.71,-0.7263,-0.7467,-0.7936,-0.8106,-0.832,-0.8729,-0.8364,-0.7959,-0.7208,-0.6759,-0.6194,-0.5592,-0.5256,-0.5137,-0.5025,-0.4837,-0.4772,-0.4935,-0.4372,-0.4148,-0.4151,-0.3782,-0.348,-0.2926,-0.2313,-0.1977,-0.1977,-0.1358,-0.0741,0.0,0.6365,0.6719,0.6643,0.5656,0.4866,0.4343,0.4343,0.3827,0.3592,0.4364,0.457,0.4178,0.2568,0.2448,0.2481,0.2511,0.2596,0.2978,0.3476,0.301,0.3365,0.5048,0.5384,0.5384,0.5384,0.5384,0.5046,0.4204,0.4372,0.4009,0.2803,0.3144,0.3333,0.3367,0.3535,0.3701,0.4036,0.4204,0.4206,0.4214,0.4257,0.4276,0.4284,0.4325,0.414,0.4103,0.4613,0.4719,0.4801,0.5289,0.5325,0.5159,0.4954,0.4853,0.4755,0.431,0.4121,0.3935,0.3639,0.3321,0.2873,0.247,0.1297,0.0142,0.0141,0.014,-0.014,-0.1102,-0.1223,-0.1602,-0.2858,-0.2941,-0.2898,-0.2603,-0.244,-0.2294,-0.2531,-0.2973,-0.3768,-0.4954,-0.5185,-0.5534,-0.6476,-0.6263,-0.6007,-0.6146,-0.6335,-0.6813,-0.7533,-0.7613,-0.7948,-0.8445,-0.8113,-0.7598,-0.6691,-0.6002,-0.5514,-0.5313,-0.4935,-0.4582,-0.4385,-0.445,-0.448,-0.4263,-0.4151,-0.3813,-0.3474,-0.3586,-0.2915,-0.1977,-0.1853,-0.1853,-0.173,-0.0494,0.0,0.0,0.6567,0.6641,0.6729,0.6653,0.5491,0.4622,0.4622,0.4534,0.4453,0.4657,0.4864,0.4628,0.3929,0.3674,0.3409,0.3294,0.292,0.2813,0.2813,0.2843,0.2861,0.3197,0.4712,0.5384,0.5384,0.5384,0.5384,0.5048,0.5216,0.5038,0.4856,0.3856,0.3526,0.3367,0.4544,0.4878,0.4542,0.5379,0.5912,0.63,0.5804,0.5499,0.5191,0.4817,0.4456,0.427,0.4912,0.5219,0.5349,0.6397,0.685,0.6645,0.5707,0.5304,0.5049,0.4013,0.3684,0.3635,0.3299,0.2881,0.2462,0.2293,0.2017,0.1592,0.1143,0.0841,0.069,-0.0138,-0.0272,-0.0669,-0.2106,-0.2356,-0.2202,-0.2147,-0.1613,-0.159,-0.2535,-0.2973,-0.3549,-0.4429,-0.4624,-0.5086,-0.5864,-0.6188,-0.6256,-0.6251,-0.616,-0.6388,-0.6912,-0.7102,-0.7292,-0.7485,-0.7659,-0.7253,-0.6475,-0.6019,-0.5624,-0.5186,-0.4786,-0.4629,-0.4682,-0.4585,-0.4707,-0.5046,-0.3589,-0.2692,-0.2242,-0.325,-0.2915,-0.1853,-0.0864,-0.0494,-0.037,-0.0123,0.0,0.0,0.6606,0.6697,0.6803,0.6856,0.6286,0.557,0.4855,0.474,0.4794,0.4739,0.4928,0.4842,0.4805,0.422,0.395,0.3699,0.3455,0.3334,0.3334,0.3187,0.3207,0.3569,0.4729,0.5384,0.5384,0.6221,0.6221,0.5384,0.5384,0.5384,0.5384,0.4712,0.4208,0.3871,0.4407,0.4757,0.5089,0.5625,0.6169,0.655,0.6413,0.6271,0.6301,0.6127,0.5755,0.5548,0.6001,0.6108,0.6035,0.6714,0.6755,0.6659,0.5936,0.5547,0.5021,0.4364,0.4145,0.393,0.3461,0.3041,0.2765,0.2885,0.2898,0.2622,0.1881,0.1716,0.141,0.0278,0.0,-0.0409,-0.1458,-0.1582,-0.1698,-0.1904,-0.1505,-0.1365,-0.1831,-0.2542,-0.3382,-0.4015,-0.4476,-0.5058,-0.5662,-0.6007,-0.6111,-0.5899,-0.6139,-0.6384,-0.665,-0.6912,-0.7176,-0.7477,-0.7351,-0.7036,-0.6524,-0.5974,-0.5469,-0.4804,-0.4449,-0.4272,-0.4257,-0.4145,-0.4257,-0.4484,-0.3589,-0.2627,-0.1881,-0.188,-0.1559,-0.0988,-0.0247,0.0,0.0,0.0,0.0,0.0,0.6839,0.7002,0.7027,0.69,0.697,0.6586,0.5281,0.4841,0.4733,0.4999,0.5021,0.5091,0.5095,0.4811,0.4376,0.4296,0.4187,0.4212,0.4036,0.387,0.406,0.4622,0.5117,0.5425,0.5384,0.6892,0.7059,0.5888,0.5888,0.572,0.5384,0.5384,0.5216,0.4712,0.4261,0.4458,0.5322,0.554,0.5908,0.6435,0.667,0.7058,0.7265,0.7328,0.7136,0.7068,0.6979,0.6853,0.6874,0.6745,0.6696,0.6334,0.6171,0.5805,0.5309,0.488,0.4774,0.4548,0.3962,0.3512,0.3356,0.3661,0.3508,0.3063,0.2481,0.2331,0.2023,0.0564,0.028,0.0,-0.0666,-0.0661,-0.0918,-0.1406,-0.1271,-0.101,-0.0993,-0.2105,-0.3092,-0.3822,-0.4561,-0.5147,-0.5549,-0.5818,-0.5727,-0.5402,-0.5877,-0.6265,-0.6463,-0.6937,-0.7317,-0.7644,-0.717,-0.6838,-0.6546,-0.5803,-0.5038,-0.4361,-0.4114,-0.3924,-0.3698,-0.3474,-0.325,-0.3253,-0.3292,-0.2706,-0.1606,-0.0494,0.0,0.0,0.0,0.0,0.0,0.0,0.0,0.0,0.7395,0.7688,0.772,0.7215,0.7096,0.7137,0.6915,0.5719,0.4993,0.5679,0.5432,0.5027,0.5104,0.5204,0.5111,0.5127,0.489,0.4588,0.4544,0.4542,0.4376,0.4553,0.5237,0.5597,0.539,0.572,0.6389,0.7725,0.7725,0.6892,0.5384,0.5384,0.5384,0.5216,0.5227,0.4944,0.4511,0.5209,0.6079,0.6949,0.7653,0.8273,0.8234,0.7527,0.7167,0.7139,0.6996,0.7362,0.7893,0.7869,0.7661,0.7252,0.7221,0.7213,0.6866,0.5337,0.4834,0.482,0.467,0.4154,0.3661,0.3415,0.2948,0.2478,0.2333,0.2602,0.257,0.1548,0.1251,0.1097,0.0808,0.0805,0.0801,0.0657,0.0262,-0.0389,-0.1136,-0.1761,-0.2628,-0.3704,-0.4807,-0.5269,-0.4948,-0.5227,-0.5144,-0.4714,-0.5197,-0.5562,-0.5696,-0.6542,-0.6904,-0.6895,-0.678,-0.6463,-0.6037,-0.5202,-0.471,-0.4554,-0.344,-0.3477,-0.4369,-0.2802,-0.202,-0.2026,-0.2144,-0.147,-0.0247,-0.0123,0.0,0.0,0.0,0.0,0.0,0.0,0.0,0.0,0.7421,0.7711,0.7888,0.7842,0.7564,0.7451,0.7243,0.6502,0.5774,0.5695,0.5575,0.5335,0.5147,0.527,0.551,0.5677,0.5592,0.5631,0.5433,0.5463,0.5482,0.5482,0.5521,0.5556,0.5583,0.6628,0.741,0.806,0.806,0.7729,0.6892,0.5888,0.5455,0.5583,0.5583,0.5537,0.5637,0.6049,0.6647,0.7075,0.7604,0.8002,0.8607,0.8071,0.8071,0.8048,0.8395,0.8727,0.8901,0.8901,0.8453,0.7791,0.7586,0.7525,0.7197,0.5423,0.4943,0.4924,0.4834,0.4654,0.4337,0.414,0.3831,0.3675,0.3358,0.3463,0.3278,0.211,0.1955,0.1796,0.1758,0.175,0.1742,0.1717,0.1441,0.0517,-0.1773,-0.2256,-0.2734,-0.4071,-0.4561,-0.4797,-0.4885,-0.4896,-0.4929,-0.4893,-0.5229,-0.5575,-0.5762,-0.6255,-0.6408,-0.6231,-0.6308,-0.6076,-0.5532,-0.5202,-0.4698,-0.4029,-0.3667,-0.3365,-0.2914,-0.213,-0.1832,-0.1895,-0.1175,-0.0598,0.0,0.0864,0.1111,0.1111,0.1111,0.1111,0.1111,0.1111,0.1111,0.1111]}]]